[[{"header":{"parameterUnit":"m.s-1","parameterCategory":1,"la1":30.6,"la2":29.2853,"lo1":-89.7004,"lo2":-87.6739,"dy":0.0162,"dx":0.0183,"nx":112,"ny":82,"refTime":"2026-03-12T00:00:00:Z","depth":0,"parameterNumber":2,"parameterNumberName":"U-component_of_WINDS"},"data":[0.0,0.0,0.0,0.0,0.0,0.0,0.0,0.0,0.0,0.0,0.0,0.0,0.0,0.0,0.0,0.0,0.0,0.0,0.0,0.0,0.0,0.0,0.0,0.0,0.0,0.0,0.0,0.0,0.0,0.0,0.0,0.0,0.0,0.0,0.0,0.0,0.0,0.0,0.0,0.0,0.0,0.0,0.0,0.0,0.0,0.0,0.0,0.0,0.0,0.0,0.0,0.0,0.0,0.0,0.0,0.0,0.0,0.0,0.0,0.0,0.0,0.0,0.0,0.0,0.0,0.0,0.0,0.0,0.0,0.0,0.0,0.0,0.0,0.0,0.0,0.0,0.0,0.0,0.0,0.0,0.0,0.0,0.0,0.0,0.0,0.0,0.0,0.0,0.0,0.0,-1.6098,-1.7285,-1.8781,-1.9629,-1.9516,-1.9501,-1.842,-1.5908,0.0,0.0,0.0,0.0,0.0,0.0,0.0,0.0,0.0,0.0,0.0,0.0,0.0,0.0,0.0,0.0,0.0,0.0,0.0,0.0,0.0,0.0,0.0,0.0,0.0,0.0,0.0,0.0,0.0,0.0,0.0,0.0,0.0,0.0,0.0,0.0,0.0,0.0,0.0,0.0,0.0,0.0,0.0,0.0,0.0,0.0,0.0,0.0,0.0,0.0,0.0,0.0,0.0,0.0,0.0,0.0,0.0,0.0,0.0,0.0,0.0,0.0,0.0,0.0,0.0,0.0,0.0,0.0,0.0,0.0,0.0,0.0,0.0,0.0,0.0,0.0,0.0,0.0,0.0,0.0,0.0,0.0,0.0,0.0,0.0,0.0,0.0,0.0,0.0,0.0,0.0,0.0,0.0,0.0,0.0,0.0,0.0,0.0,0.0,0.0,0.0,0.0,0.0,0.0,-1.6278,-1.9735,-1.9579,-1.9413,-1.9953,-1.8835,-1.7341,-1.556,0.0,0.0,0.0,0.0,0.0,0.0,0.0,0.0,0.0,0.0,0.0,0.0,0.0,0.0,0.0,0.0,0.0,0.0,0.0,0.0,0.0,0.0,0.0,0.0,0.0,0.0,0.0,0.0,0.0,0.0,0.0,0.0,0.0,0.0,0.0,0.0,0.0,0.0,0.0,0.0,0.0,0.0,0.0,0.0,0.0,0.0,0.0,0.0,0.0,0.0,0.0,0.0,0.0,0.0,0.0,0.0,0.0,0.0,0.0,0.0,0.0,0.0,0.0,0.0,0.0,0.0,0.0,0.0,0.0,0.0,0.0,0.0,0.0,0.0,0.0,0.0,0.0,0.0,0.0,0.0,0.0,0.0,0.0,0.0,0.0,0.0,0.0,0.0,0.0,0.0,0.0,0.0,0.0,0.0,0.0,0.0,0.0,0.0,0.0,0.0,0.0,0.0,0.0,-1.5829,-1.7475,-2.0389,-2.0082,-1.9648,-1.9718,-1.8773,-1.7397,-1.5578,-1.4187,0.0,0.0,0.0,0.0,0.0,0.0,0.0,0.0,0.0,0.0,0.0,0.0,0.0,0.0,0.0,0.0,0.0,0.0,0.0,0.0,0.0,0.0,0.0,0.0,0.0,0.0,0.0,0.0,0.0,0.0,0.0,0.0,0.0,0.0,0.0,0.0,0.0,0.0,0.0,0.0,0.0,0.0,0.0,0.0,0.0,0.0,0.0,0.0,0.0,0.0,0.0,0.0,0.0,0.0,0.0,0.0,0.0,0.0,0.0,0.0,0.0,0.0,0.0,0.0,0.0,0.0,0.0,0.0,0.0,0.0,0.0,0.0,0.0,0.0,0.0,0.0,0.0,0.0,0.0,0.0,0.0,0.0,0.0,0.0,0.0,0.0,0.0,0.0,0.0,0.0,0.0,0.0,0.0,0.0,0.0,0.0,0.0,0.0,0.0,0.0,0.0,0.0,-1.7938,-1.9006,-2.058,-2.0376,-1.9961,-1.951,-1.869,-1.7423,-1.5622,-1.3521,0.0,0.0,0.0,0.0,0.0,0.0,0.0,0.0,0.0,0.0,0.0,0.0,0.0,0.0,0.0,0.0,0.0,0.0,0.0,0.0,0.0,0.0,0.0,0.0,0.0,0.0,0.0,0.0,0.0,0.0,0.0,0.0,0.0,0.0,0.0,0.0,0.0,0.0,0.0,0.0,0.0,0.0,0.0,0.0,0.0,0.0,0.0,0.0,0.0,0.0,0.0,0.0,0.0,0.0,0.0,0.0,0.0,0.0,0.0,0.0,0.0,0.0,0.0,0.0,0.0,0.0,0.0,0.0,0.0,0.0,0.0,0.0,0.0,0.0,0.0,0.0,0.0,0.0,0.0,0.0,0.0,0.0,0.0,0.0,0.0,0.0,0.0,0.0,0.0,0.0,0.0,0.0,0.0,0.0,0.0,0.0,0.0,0.0,0.0,0.0,0.0,0.0,-1.8597,-2.059,-2.0857,-2.0521,-2.0117,-1.971,-1.8225,-1.6783,-1.5584,-1.2854,0.0,0.0,0.0,0.0,0.0,0.0,0.0,0.0,0.0,0.0,0.0,0.0,0.0,0.0,0.0,0.0,0.0,0.0,0.0,0.0,0.0,0.0,0.0,0.0,0.0,0.0,0.0,0.0,0.0,0.0,0.0,0.0,0.0,0.0,0.0,0.0,0.0,0.0,0.0,0.0,0.0,0.0,0.0,0.0,0.0,0.0,0.0,0.0,0.0,0.0,0.0,0.0,0.0,0.0,0.0,0.0,0.0,0.0,0.0,0.0,0.0,0.0,0.0,0.0,0.0,0.0,0.0,0.0,0.0,0.0,0.0,0.0,0.0,0.0,0.0,0.0,0.0,0.0,0.0,0.0,0.0,0.0,0.0,0.0,0.0,0.0,0.0,0.0,0.0,0.0,0.0,0.0,0.0,0.0,0.0,0.0,0.0,0.0,0.0,0.0,0.0,0.0,-1.83,-2.0279,-2.0845,-2.0898,-2.0592,-1.9762,-1.8512,-1.695,-1.5055,0.0,0.0,0.0,0.0,0.0,0.0,0.0,0.0,0.0,0.0,0.0,0.0,0.0,0.0,0.0,0.0,0.0,0.0,0.0,0.0,0.0,0.0,0.0,0.0,0.0,0.0,0.0,0.0,0.0,0.0,0.0,0.0,0.0,0.0,0.0,0.0,0.0,0.0,0.0,0.0,0.0,0.0,0.0,0.0,0.0,0.0,0.0,0.0,0.0,0.0,0.0,0.0,0.0,0.0,0.0,0.0,0.0,0.0,0.0,0.0,0.0,0.0,0.0,0.0,0.0,0.0,0.0,0.0,0.0,0.0,0.0,0.0,0.0,0.0,0.0,0.0,0.0,0.0,0.0,0.0,0.0,0.0,0.0,0.0,0.0,0.0,0.0,0.0,0.0,0.0,0.0,0.0,0.0,0.0,0.0,0.0,0.0,0.0,0.0,0.0,0.0,0.0,-1.5604,-1.845,-2.0419,-2.0638,-2.1194,-2.0985,-1.9566,-1.8614,-1.7094,-1.4742,0.0,0.0,0.0,0.0,0.0,0.0,0.0,0.0,0.0,0.0,0.0,0.0,0.0,0.0,0.0,0.0,0.0,0.0,0.0,0.0,0.0,0.0,0.0,0.0,0.0,0.0,0.0,0.0,0.0,0.0,0.0,0.0,0.0,0.0,0.0,0.0,0.0,0.0,0.0,0.0,0.0,0.0,0.0,0.0,0.0,0.0,0.0,0.0,0.0,0.0,0.0,0.0,0.0,0.0,0.0,0.0,0.0,0.0,0.0,0.0,0.0,0.0,0.0,0.0,0.0,0.0,0.0,0.0,0.0,0.0,0.0,0.0,0.0,0.0,0.0,0.0,0.0,0.0,0.0,0.0,0.0,0.0,0.0,0.0,0.0,0.0,0.0,0.0,0.0,0.0,0.0,0.0,0.0,0.0,0.0,0.0,0.0,0.0,0.0,0.0,0.0,0.0,-1.5724,-1.9273,-2.1324,-2.0302,-2.133,-2.1231,-1.9081,-1.8414,-1.7094,0.0,0.0,0.0,0.0,0.0,0.0,0.0,0.0,0.0,0.0,0.0,0.0,0.0,0.0,0.0,0.0,0.0,0.0,0.0,0.0,0.0,0.0,0.0,0.0,0.0,0.0,0.0,0.0,0.0,0.0,0.0,0.0,0.0,0.0,0.0,0.0,0.0,0.0,0.0,0.0,0.0,0.0,0.0,0.0,0.0,0.0,0.0,0.0,0.0,0.0,0.0,0.0,0.0,0.0,0.0,0.0,0.0,0.0,0.0,0.0,0.0,0.0,0.0,0.0,0.0,0.0,0.0,0.0,0.0,0.0,0.0,0.0,0.0,0.0,0.0,0.0,0.0,0.0,0.0,0.0,0.0,0.0,0.0,0.0,0.0,0.0,0.0,0.0,0.0,0.0,0.0,0.0,0.0,0.0,0.0,0.0,0.0,0.0,0.0,0.0,0.0,0.0,0.0,-1.6463,-1.9609,-2.1342,-2.0447,-2.1398,-2.1199,-1.9018,-1.8679,-1.725,-1.4089,0.0,0.0,0.0,0.0,0.0,0.0,0.0,0.0,0.0,0.0,0.0,0.0,0.0,0.0,0.0,0.0,0.0,0.0,0.0,0.0,0.0,0.0,0.0,0.0,0.0,0.0,0.0,0.0,0.0,0.0,0.0,0.0,0.0,0.0,0.0,0.0,0.0,0.0,0.0,0.0,0.0,0.0,0.0,0.0,0.0,0.0,0.0,0.0,0.0,0.0,0.0,0.0,0.0,0.0,0.0,0.0,0.0,0.0,0.0,0.0,0.0,0.0,0.0,0.0,0.0,0.0,0.0,0.0,0.0,0.0,0.0,0.0,0.0,0.0,0.0,0.0,0.0,0.0,0.0,0.0,0.0,0.0,0.0,0.0,0.0,0.0,0.0,0.0,0.0,0.0,0.0,0.0,0.0,0.0,0.0,0.0,0.0,0.0,0.0,0.0,0.0,0.0,-1.6672,-1.931,-2.0784,-2.028,-2.1087,-2.086,-1.8892,-1.8709,-1.7329,-1.4088,0.0,0.0,0.0,0.0,0.0,0.0,0.0,0.0,0.0,0.0,0.0,0.0,0.0,0.0,0.0,0.0,0.0,0.0,0.0,0.0,0.0,0.0,0.0,0.0,0.0,0.0,0.0,0.0,0.0,0.0,0.0,0.0,0.0,0.0,0.0,0.0,0.0,0.0,0.0,0.0,0.0,0.0,0.0,0.0,0.0,0.0,0.0,0.0,0.0,0.0,0.0,0.0,0.0,0.0,0.0,0.0,0.0,0.0,0.0,0.0,0.0,0.0,0.0,0.0,0.0,0.0,0.0,0.0,0.0,0.0,0.0,0.0,0.0,0.0,0.0,0.0,0.0,0.0,0.0,0.0,0.0,0.0,0.0,0.0,0.0,0.0,0.0,0.0,0.0,0.0,0.0,0.0,0.0,0.0,0.0,0.0,0.0,0.0,0.0,0.0,0.0,0.0,-1.6578,-1.8639,-1.992,-2.0022,-2.06,-2.036,-1.8783,-1.8608,-1.7405,-1.4609,0.0,0.0,0.0,0.0,0.0,0.0,0.0,0.0,0.0,0.0,0.0,0.0,0.0,0.0,0.0,0.0,0.0,0.0,0.0,0.0,0.0,0.0,0.0,0.0,0.0,0.0,0.0,0.0,0.0,0.0,0.0,0.0,0.0,0.0,0.0,0.0,0.0,0.0,0.0,0.0,0.0,0.0,0.0,0.0,0.0,0.0,0.0,0.0,0.0,0.0,0.0,0.0,0.0,0.0,0.0,0.0,0.0,0.0,0.0,0.0,-1.4055,0.0,0.0,0.0,0.0,0.0,0.0,0.0,0.0,0.0,0.0,0.0,0.0,0.0,0.0,0.0,0.0,0.0,0.0,0.0,0.0,0.0,0.0,0.0,0.0,0.0,0.0,0.0,0.0,0.0,0.0,0.0,0.0,0.0,0.0,0.0,0.0,0.0,0.0,0.0,0.0,0.0,-1.7018,-1.8851,-1.9971,-2.0124,-2.0655,-2.0469,-1.9188,-1.8681,-1.7613,-1.5615,-1.4006,0.0,0.0,0.0,0.0,0.0,0.0,0.0,0.0,0.0,0.0,0.0,0.0,0.0,0.0,0.0,0.0,0.0,0.0,0.0,0.0,0.0,0.0,0.0,0.0,0.0,0.0,0.0,0.0,0.0,0.0,0.0,0.0,0.0,0.0,0.0,0.0,0.0,0.0,0.0,0.0,0.0,0.0,0.0,0.0,0.0,0.0,0.0,0.0,0.0,0.0,0.0,0.0,0.0,0.0,0.0,0.0,0.0,0.0,0.0,0.0,-1.5279,0.0,0.0,0.0,0.0,0.0,0.0,0.0,0.0,0.0,0.0,0.0,0.0,0.0,0.0,0.0,0.0,0.0,0.0,0.0,0.0,0.0,0.0,0.0,0.0,0.0,0.0,0.0,0.0,0.0,0.0,0.0,0.0,0.0,0.0,0.0,0.0,0.0,0.0,0.0,0.0,-1.737,-1.8526,-1.9316,-1.994,-2.0258,-2.0077,-1.9181,-1.8614,-1.768,-1.6233,-1.4847,0.0,0.0,0.0,0.0,0.0,0.0,0.0,0.0,0.0,0.0,0.0,0.0,0.0,0.0,0.0,0.0,0.0,0.0,0.0,0.0,0.0,0.0,0.0,0.0,0.0,0.0,0.0,0.0,0.0,0.0,0.0,0.0,0.0,0.0,0.0,0.0,0.0,0.0,0.0,0.0,0.0,0.0,0.0,0.0,0.0,0.0,0.0,0.0,0.0,0.0,0.0,0.0,0.0,-2.0439,-2.1029,-2.1933,-2.1992,-2.2063,-2.2026,-1.9527,-1.8511,-1.8543,-1.7289,0.0,0.0,0.0,0.0,0.0,0.0,0.0,0.0,0.0,0.0,0.0,0.0,0.0,0.0,0.0,0.0,0.0,0.0,0.0,0.0,0.0,0.0,0.0,0.0,-1.7451,-1.7174,-1.4858,0.0,0.0,0.0,0.0,0.0,0.0,0.0,0.0,0.0,0.0,0.0,-1.7558,-1.816,-1.8719,-1.9698,-1.9798,-1.9623,-1.9171,-1.8656,-1.7903,-1.6851,-1.5768,-1.4481,0.0,0.0,0.0,0.0,0.0,0.0,0.0,0.0,0.0,0.0,0.0,0.0,0.0,0.0,0.0,0.0,0.0,0.0,0.0,0.0,0.0,0.0,0.0,0.0,0.0,0.0,0.0,0.0,0.0,0.0,0.0,0.0,-1.2187,-1.2797,0.0,0.0,0.0,0.0,0.0,0.0,0.0,0.0,0.0,0.0,0.0,0.0,0.0,-1.9045,-2.0251,-2.1179,-2.1769,-2.1995,-2.2975,-2.3527,-2.369,-2.3966,-2.4362,-2.4764,-2.4067,0.0,-2.0277,-1.9121,0.0,0.0,0.0,0.0,0.0,0.0,0.0,0.0,0.0,0.0,0.0,0.0,0.0,0.0,0.0,0.0,0.0,0.0,0.0,0.0,0.0,0.0,-1.9284,-1.9346,-1.9422,-1.9384,0.0,-1.6769,-1.4765,-1.4614,-1.3763,0.0,0.0,0.0,0.0,0.0,0.0,0.0,-1.7336,-1.8338,-1.9121,-1.9748,-1.9798,-1.9773,-1.971,-1.9196,-1.8619,-1.8016,-1.6901,-1.5768,-1.462,-1.3541,0.0,0.0,0.0,0.0,0.0,0.0,0.0,0.0,0.0,0.0,0.0,0.0,0.0,0.0,0.0,0.0,0.0,0.0,0.0,0.0,0.0,0.0,0.0,0.0,0.0,0.0,0.0,0.0,0.0,-1.2344,-1.3551,-1.4086,-1.4212,-1.4136,0.0,0.0,0.0,0.0,0.0,0.0,0.0,0.0,0.0,-1.9999,-2.0863,-2.1841,-2.2987,-2.3766,-2.4481,-2.5109,-2.5611,-2.6,-2.6314,-2.6449,-2.6652,-2.6876,-2.6735,-2.5741,-2.411,-2.211,-2.0702,-1.9662,0.0,0.0,0.0,0.0,-1.8635,-1.9284,-1.9507,-1.9633,-1.9623,-1.9032,0.0,0.0,0.0,0.0,0.0,0.0,0.0,0.0,0.0,0.0,-2.039,-2.0677,-2.0752,-2.0752,-2.0752,-1.9397,-1.7876,0.0,-1.6128,-1.5142,-1.3695,0.0,0.0,0.0,0.0,-1.6395,-1.8514,-1.9183,-1.9673,-2.0251,-2.0314,-2.0189,-1.9823,-1.9309,-1.8895,-1.8657,-1.7626,-1.6635,-1.5831,-1.4739,-1.337,0.0,0.0,0.0,0.0,0.0,0.0,0.0,0.0,0.0,0.0,0.0,0.0,0.0,0.0,0.0,0.0,0.0,0.0,0.0,0.0,0.0,0.0,0.0,0.0,0.0,0.0,0.0,0.0,-1.4042,-1.5041,-1.5286,-1.5927,-1.607,0.0,0.0,0.0,0.0,0.0,0.0,-1.9196,-2.015,-2.1179,-2.2309,-2.3414,-2.4424,-2.5448,-2.5975,-2.6666,-2.7494,-2.7632,-2.7921,-2.8323,-2.8387,-2.8449,-2.8412,-2.8375,-2.7965,-2.7161,-2.4838,-2.3135,-2.1947,-2.1109,-2.0742,-2.0658,-2.0656,-2.1045,-2.1619,-2.2097,-2.223,-2.2058,-2.1685,-2.0865,-1.9898,-1.9108,0.0,0.0,0.0,0.0,-2.0099,-2.1257,-2.1546,-2.1685,-2.2209,-2.2334,-2.2334,-2.2334,-2.1794,-2.0815,0.0,-1.838,-1.7536,-1.6015,0.0,0.0,0.0,0.0,-1.7623,-1.9774,-2.015,-2.0401,-2.0855,-2.0779,-2.0515,-2.0062,-1.9509,-1.9146,-1.9008,-1.8129,-1.7338,-1.676,-1.5827,-1.4576,-1.3069,0.0,0.0,0.0,0.0,0.0,0.0,0.0,0.0,0.0,0.0,0.0,0.0,0.0,0.0,0.0,0.0,0.0,0.0,0.0,0.0,0.0,0.0,0.0,0.0,0.0,0.0,0.0,0.0,0.0,-1.6475,-1.74,0.0,0.0,0.0,0.0,-1.8795,-1.9849,-2.0968,-2.2046,-2.2631,-2.3459,-2.4587,-2.5757,-2.66,-2.7155,-2.7708,-2.8009,-2.8072,-2.8562,-2.8825,-2.8863,-2.9185,-2.9332,-2.9332,-2.9123,-2.875,-2.8123,-2.6593,-2.5475,-2.4672,-2.3213,-2.2997,-2.3393,-2.2522,-2.2882,-2.3766,-2.3233,-2.3409,-2.3866,-2.3841,-2.3427,-2.2882,-2.2832,-2.2108,0.0,0.0,-2.2092,-2.241,-2.354,-2.3828,-2.3966,-2.4519,-2.4625,-2.4625,-2.4625,-2.376,-2.2493,0.0,-2.0101,-1.9334,-1.8229,0.0,-1.8016,-1.8078,-1.853,-1.9284,-2.049,-2.1106,-2.1446,-2.1443,-2.1006,-2.0679,-2.0654,-2.0087,-1.9547,-1.9033,-1.8456,-1.7915,-1.7385,-1.676,-1.5906,-1.4796,-1.3654,0.0,0.0,0.0,0.0,0.0,0.0,0.0,0.0,0.0,0.0,0.0,0.0,0.0,0.0,0.0,0.0,0.0,0.0,0.0,0.0,0.0,0.0,0.0,0.0,0.0,0.0,0.0,0.0,-1.8618,-1.9936,0.0,-1.9798,-2.0087,-2.0552,-2.1077,-2.2184,-2.3138,-2.386,-2.5121,-2.5988,-2.6389,-2.7469,-2.8147,-2.8335,-2.89,-2.9189,-2.9202,-2.939,-2.9478,-2.949,-2.9601,-2.965,-2.965,-2.9585,-2.9344,-2.898,-2.8285,-2.7201,-2.5847,-2.5192,-2.491,-2.4924,-2.4795,-2.5244,-2.5946,-2.5946,-2.6034,-2.5937,-2.487,-2.4362,-2.4061,-2.3321,-2.3095,-2.315,-2.3339,-2.3653,-2.3985,-2.4418,-2.4519,-2.4569,-2.4738,-2.4788,-2.4788,-2.4788,-2.4474,-2.401,-2.3452,-2.2008,-2.0652,-1.9937,-1.9811,-1.9811,-1.9811,-1.9987,-2.0476,-2.1581,-2.1895,-2.202,-2.202,-2.1845,-2.1443,-2.0754,-2.0503,-1.9974,-1.9058,-1.8505,-1.7953,-1.7423,-1.6823,-1.617,-1.5437,-1.4683,-1.3295,0.0,0.0,0.0,0.0,0.0,0.0,0.0,0.0,0.0,0.0,0.0,0.0,0.0,0.0,0.0,0.0,0.0,0.0,0.0,0.0,0.0,0.0,0.0,0.0,0.0,-1.8455,-1.9987,-2.0326,-2.202,-2.2862,-2.2121,-2.2548,-2.3113,-2.3665,-2.4582,-2.5347,-2.5866,-2.7143,-2.7833,-2.7833,-2.8737,-2.9176,-2.9176,-2.9603,-2.974,-2.9663,-2.9663,-2.9611,-2.9546,-2.9546,-2.9546,-2.9546,-2.9546,-2.9456,-2.9275,-2.9079,-2.8287,-2.7198,-2.6856,-2.6614,-2.6432,-2.6615,-2.6919,-2.7308,-2.7582,-2.7653,-2.7381,-2.6276,-2.5891,-2.5753,-2.5013,-2.5084,-2.5385,-2.5385,-2.5649,-2.5887,-2.5699,-2.5649,-2.5611,-2.5423,-2.5372,-2.5372,-2.5372,-2.5222,-2.5084,-2.5084,-2.359,-2.2159,-2.1594,-2.137,-2.1245,-2.1245,-2.1245,-2.1556,-2.2472,-2.2556,-2.2556,-2.2556,-2.2422,-2.1945,-2.1043,-2.0792,-2.0302,-1.9321,-1.8606,-1.8041,-1.7677,-1.6923,-1.6325,-1.5982,-1.5273,-1.3991,-1.214,0.0,0.0,0.0,0.0,0.0,0.0,0.0,0.0,0.0,0.0,0.0,0.0,0.0,0.0,0.0,0.0,0.0,0.0,0.0,0.0,0.0,0.0,0.0,-1.8304,-2.02,-2.1594,-2.1619,-2.3577,-2.4462,-2.3358,-2.4732,-2.59,-2.6499,-2.7052,-2.757,-2.8109,-2.8624,-2.8913,-2.8913,-2.9503,-2.9792,-2.9792,-2.9792,-2.9663,-2.9419,-2.9419,-2.9275,-2.9091,-2.9091,-2.9091,-2.9091,-2.9091,-2.9091,-2.9091,-2.8882,-2.8791,-2.8743,-2.8232,-2.8025,-2.8003,-2.7891,-2.7817,-2.7854,-2.805,-2.816,-2.8147,-2.8134,-2.8134,-2.8134,-2.8109,-2.8109,-2.8109,-2.8109,-2.8109,-2.7984,-2.7444,-2.7306,-2.7203,-2.665,-2.6512,-2.6512,-2.6499,-2.6047,-2.5624,-2.5624,-2.477,-2.3866,-2.3258,-2.2706,-2.2359,-2.2359,-2.2347,0.0,-2.3032,-2.3108,-2.3108,-2.3108,-2.2631,-2.2121,-2.1556,-2.1031,-2.0453,-1.9823,-1.8781,-1.8191,-1.8154,-1.7077,-1.65,-1.65,-1.5449,-1.4356,-1.3223,0.0,0.0,0.0,0.0,0.0,0.0,0.0,0.0,0.0,0.0,0.0,0.0,0.0,0.0,0.0,0.0,0.0,0.0,0.0,0.0,0.0,-1.8808,-2.0099,-2.0353,-2.241,-2.4042,-2.4418,-2.6088,-2.708,-2.6766,-2.7143,-2.7482,-2.7645,-2.816,-2.8499,-2.8662,-2.9239,-2.9464,-2.9285,-2.9614,-2.9702,-2.9509,-2.9702,-2.9663,-2.9419,-2.9419,-2.9275,-2.9091,-2.9091,-2.9091,-2.9091,-2.9091,-2.9091,-2.9091,-2.8882,-2.8791,-2.8779,-2.85,-2.8361,-2.8349,-2.8321,-2.8378,-2.856,-2.8895,-2.9048,-2.8986,-2.875,-2.8662,-2.8624,-2.8235,-2.8109,-2.8109,-2.8109,-2.8109,-2.8072,-2.7921,-2.7883,-2.7745,-2.7216,-2.709,-2.6977,-2.6575,-2.6373,-2.626,-2.626,-2.5649,-2.4983,-2.4424,-2.3904,-2.354,-2.354,-2.3145,0.0,-2.3083,-2.3108,-2.3108,-2.3108,-2.297,-2.2656,-2.2133,-2.1581,-2.0677,-1.9309,-1.8593,-1.784,-1.6989,-1.6663,-1.65,-1.65,-1.5449,-1.4544,0.0,0.0,0.0,0.0,0.0,0.0,0.0,0.0,0.0,0.0,0.0,0.0,0.0,0.0,0.0,0.0,0.0,0.0,0.0,0.0,0.0,0.0,-2.1001,-2.2614,-2.3225,-2.4341,-2.5523,-2.6527,-2.772,-2.8448,-2.8448,-2.8662,-2.8812,-2.8812,-2.9114,-2.9239,-2.9112,-2.9565,-2.9702,-2.9419,-2.965,-2.965,-2.9419,-2.9888,-2.9922,-2.949,-2.9816,-2.9807,-2.9525,-2.9306,-2.9196,-2.9184,-2.8952,-2.8855,-2.8828,-2.8736,-2.8657,0.0,0.0,0.0,0.0,0.0,-2.8764,-2.8961,-2.9197,-2.9275,-2.9264,-2.9135,-2.9112,-2.9049,-2.8863,-2.8812,-2.8812,-2.8812,-2.8812,-2.875,-2.8511,-2.8448,-2.831,-2.7758,-2.7632,-2.7544,-2.7253,-2.7002,-2.6839,-2.6839,-2.6386,0.0,-2.5561,-2.4858,-2.4343,-2.4343,-2.4023,-2.3735,-2.3496,-2.3471,-2.3371,-2.3133,-2.3108,-2.2882,-2.2359,-2.1807,0.0,0.0,0.0,-1.8053,-1.6923,-1.6626,0.0,0.0,0.0,0.0,0.0,0.0,0.0,0.0,-1.3328,-1.2918,0.0,0.0,0.0,0.0,0.0,0.0,0.0,0.0,0.0,0.0,0.0,0.0,0.0,0.0,0.0,0.0,-2.33,-2.5203,-2.6263,-2.6152,-2.6493,-2.8021,-2.8687,-2.8988,-2.8988,-2.949,-2.9792,-2.9753,-2.974,-2.965,-2.9419,-2.9611,0.0,0.0,0.0,-2.9688,-2.944,-3.0186,-3.026,-2.9691,-3.0408,-3.0516,-3.0074,-2.9605,-2.9388,-2.9364,-2.8895,-2.8655,-2.8595,-2.8595,-2.8558,-2.851,-2.851,-2.851,-2.851,-2.8685,-2.8882,-2.9052,-2.9052,0.0,0.0,-2.9314,-2.938,-2.9431,-2.9663,-2.9714,-2.9714,-2.9714,-2.9714,-2.9589,-2.9075,-2.8912,-2.8813,-2.8262,-2.8124,-2.8111,-2.8049,-2.7648,-2.7285,-2.7258,-2.6857,-2.6493,-2.643,-2.5565,-2.4876,-2.4876,-2.4825,-2.4612,-2.4155,-2.4092,-2.3866,-2.3258,0.0,0.0,-2.2447,-2.1895,-2.1343,-2.0817,-1.9673,-1.8569,-1.7591,-1.6989,-1.6688,-1.6688,-1.7212,-1.7476,-1.7476,-1.7942,-1.818,-1.8092,-1.4644,-1.3848,0.0,0.0,0.0,0.0,0.0,0.0,0.0,0.0,0.0,0.0,0.0,0.0,0.0,0.0,0.0,-2.2948,-2.4263,-2.5637,-2.7619,-2.7978,-2.8201,-2.8687,-2.9277,-2.9628,-2.9628,-2.9729,-2.9702,-2.9509,-2.947,-2.9457,-2.9419,-2.947,-2.9392,-2.917,-2.9585,-2.9706,-2.9557,-3.0029,-3.0272,-3.0233,0.0,0.0,-3.0086,-2.9977,-2.9941,-2.9929,-2.9833,-2.9544,-2.9148,-2.9148,-2.8895,-2.851,-2.851,-2.851,-2.851,-2.855,-2.859,-2.863,-2.8803,-2.8882,-2.8882,-2.9079,-2.917,-2.917,-2.9209,-2.926,0.0,-2.926,-2.926,-2.9223,-2.9073,-2.9049,-2.8913,-2.8371,-2.8248,-2.8124,-2.773,-2.7545,-2.7348,-2.6903,-2.6731,-2.6521,-2.6089,-2.5697,-2.5448,-2.5448,-2.5096,-2.475,-2.4669,-2.4637,-2.4412,-2.3891,-2.3841,-2.3602,-2.2995,-2.2443,-2.192,-2.1395,-1.9874,-1.8858,-1.8536,-1.8108,-1.7877,-1.7877,-1.7872,-1.7875,-1.7875,-1.7987,-1.8037,-1.8024,-1.738,-1.725,0.0,0.0,0.0,0.0,0.0,0.0,0.0,0.0,0.0,0.0,0.0,-1.8602,-2.0463,0.0,-2.2805,-2.483,-2.5992,-2.7041,-2.8134,-2.863,-2.8983,-2.9327,-2.9488,-2.965,-2.9792,-2.9585,-2.9495,-2.9611,-2.947,-2.9341,-2.9275,-2.9341,-2.9386,-2.9352,-2.9668,-2.9887,-3.0007,-3.0564,-3.0793,-3.0664,-3.1016,-3.1106,-3.091,-3.0603,-3.0482,-3.0513,-3.0206,-2.9941,-2.9689,-2.9689,-2.9532,-2.9268,-2.9015,-2.8751,-2.851,-2.851,-2.851,-2.851,-2.8618,-2.8657,-2.8685,-2.8882,-2.8961,-2.8961,-2.9052,-2.9091,-2.9091,-2.9091,-2.9091,-2.9091,-2.9091,-2.9091,-2.903,-2.8748,-2.8686,-2.8613,-2.8343,-2.8073,-2.7802,-2.7532,-2.7262,-2.6943,-2.6402,-2.621,-2.6077,-2.5791,-2.553,-2.5236,-2.4963,-2.4971,-2.476,-2.4297,-2.4234,-2.401,-2.3449,-2.265,-2.1939,-2.1294,-2.0291,-1.9629,-1.9523,-1.9044,-1.8796,-1.8796,-1.9045,-1.9181,-1.9117,-1.9428,-1.9565,-1.9486,-1.9577,-1.9108,0.0,0.0,0.0,0.0,0.0,0.0,0.0,-1.631,-1.7217,-1.8922,-1.9709,-2.0766,-2.2962,-2.4058,-2.5064,-2.6445,-2.7567,-2.8318,-2.839,-2.8821,-2.926,-2.9624,-2.9482,-2.9443,-2.9624,-2.9378,-2.9287,-2.9585,-2.9443,-2.9275,-2.9052,-2.9295,-2.9502,-2.9622,-2.9919,-3.0196,-3.0495,-3.1131,-3.1302,-3.1079,-3.1644,-3.1849,-3.1693,-3.1259,-3.1067,-3.1043,-3.047,-3.0242,-3.023,-3.0122,-3.0086,-3.005,-2.9617,-2.9184,-2.8799,-2.8595,-2.851,-2.851,-2.851,-2.851,-2.855,-2.8685,-2.8724,-2.8764,-2.8934,-2.8973,-2.8973,-2.8973,-2.8973,-2.8973,-2.8973,-2.8973,-2.8973,-2.8973,-2.8973,-2.8973,-2.8973,-2.8631,-2.8301,-2.8191,-2.7824,-2.736,-2.6822,-2.6724,-2.6552,-2.5974,-2.591,-2.575,-2.5308,-2.5259,-2.5084,-2.4661,-2.4632,-2.4377,-2.3832,-2.291,-2.2137,-2.1505,-2.0967,-2.0609,-2.0511,-1.9996,-1.9713,-1.9713,-2.0212,-2.0434,-2.0336,-2.0878,-2.1087,-2.0945,-2.0974,-2.0205,-2.03,-1.92,-1.7898,-1.7235,-1.7071,-1.761,0.0,-1.9764,-1.9875,-2.1612,-2.266,-2.3493,-2.4206,-2.5343,-2.6469,-2.7394,-2.7978,-2.8415,-2.8685,-2.8964,-2.9131,-2.917,-2.9131,-2.9131,-2.9182,-2.9275,-2.9223,-2.8922,-2.9052,-2.9052,-2.8843,-2.9333,-2.9573,-2.9594,-3.0274,-3.0704,-3.0826,-3.1113,-3.138,-3.1621,-3.1681,-3.1705,-3.1705,-3.1645,-3.1621,-3.1585,-3.1055,-3.0826,-3.0747,-3.029,-3.0086,-3.0074,-3.0025,-2.9965,-2.9797,-2.8859,-2.851,-2.851,-2.851,-2.851,-2.851,-2.855,-2.855,-2.855,-2.855,-2.859,-2.859,-2.859,-2.859,-2.859,-2.859,-2.859,-2.859,-2.859,-2.859,-2.859,-2.859,-2.8502,-2.8321,-2.7852,-2.7707,-2.7503,-2.6973,-2.6876,-2.665,-2.6,-2.591,-2.5886,-2.5824,-2.5824,-2.5615,-2.5108,-2.5047,-2.4779,-2.4181,-2.3636,-2.3311,-2.3218,-2.2235,-2.1628,-2.1628,-2.1113,-2.083,-2.083,-2.0779,-2.0759,-2.073,-2.0819,-2.0844,-2.0827,-2.0958,-2.0952,-2.1769,-2.0526,-1.9346,-1.9251,-1.9458,-1.9992,-2.115,-2.167,-2.2226,-2.3365,-2.442,-2.5384,-2.6226,-2.6792,-2.7372,-2.8053,-2.8292,-2.8494,-2.8633,-2.8697,-2.8736,-2.8736,-2.8736,-2.8895,-2.9236,-2.904,-2.8961,-2.9145,-2.9,-2.9016,-2.9241,-2.9472,-2.9844,-3.035,-3.0676,-3.101,-3.1368,-3.1424,-3.1544,-3.1705,-3.1705,-3.1705,-3.1705,-3.1705,-3.1705,-3.1693,-3.1476,-3.138,-3.1356,-3.1139,-3.1043,-3.1019,-3.0706,-3.0585,-3.0422,-2.9364,-2.8967,-2.8931,-2.8619,-2.851,-2.851,-2.851,-2.851,-2.851,-2.851,-2.851,-2.851,-2.851,-2.851,-2.851,-2.851,-2.851,-2.851,-2.851,-2.851,-2.851,-2.851,-2.851,-2.845,-2.8222,-2.8186,-2.8017,-2.745,-2.7354,-2.7177,-2.6566,-2.6214,-2.5923,-2.5572,-2.5535,-2.5521,-2.5406,-2.5113,-2.482,-2.4554,-2.4087,-2.3762,-2.3664,-2.2999,-2.2573,-2.2492,-2.1971,-2.1704,-2.1704,-2.1722,-2.1692,-2.1614,-2.1692,-2.1692,-2.1614,-2.1662,-2.1781,-2.2121,-2.1449,-2.1077,-2.1023,-2.1684,-2.2405,-2.2567,-2.3369,-2.427,-2.5068,-2.5901,-2.6673,-2.7356,-2.7698,-2.7965,-2.8234,-2.8493,-2.863,-2.851,-2.855,-2.8538,-2.851,-2.851,-2.8697,-2.9184,-2.8843,-2.8736,-2.9118,-2.891,-2.8995,-2.9488,-2.9658,-3.0084,-3.0886,-3.1055,-3.132,-3.1705,-3.1705,-3.1705,-3.1705,-3.1705,-3.1705,-3.1705,-3.1705,-3.1705,-3.1705,-3.1705,-3.1705,-3.1705,-3.1705,-3.1705,-3.1669,-3.1284,-3.1139,-3.1031,-3.0074,-2.9641,-2.946,-2.9076,-2.8847,-2.8727,-2.8727,-2.8631,-2.851,-2.851,-2.851,-2.851,-2.851,-2.851,-2.851,-2.851,-2.851,-2.851,-2.851,-2.851,-2.851,-2.851,-2.851,-2.851,-2.851,-2.851,-2.839,-2.8005,-2.7906,-2.7726,-2.7198,-2.6803,-2.6298,-2.5612,-2.5396,-2.5347,-2.55,-2.5184,-2.4919,-2.4919,-2.4435,-2.4132,-2.4077,-2.3648,-2.3345,-2.3293,-2.2867,-2.263,-2.263,-2.2744,-2.2744,-2.263,-2.2744,-2.2744,-2.263,-2.263,-2.2681,-2.1373,-2.23,-2.3425,-2.2708,-2.3779,-2.494,-2.4751,-2.519,-2.5909,-2.6919,-2.7311,-2.736,-2.6985,-2.7673,-2.814,-2.7779,-2.8487,-2.8934,-2.855,-2.8657,-2.8724,-2.851,-2.851,-2.8578,-2.8803,-2.8791,-2.8724,-2.855,-2.8685,-2.8955,-2.9309,-2.9785,-3.0356,-3.0898,-3.1416,-3.1693,-3.1705,-3.1705,-3.1705,-3.1705,-3.1705,-3.1705,-3.1705,-3.1705,-3.1705,-3.1705,-3.1705,-3.1705,-3.1705,-3.1705,-3.1705,-3.1705,-3.1693,-3.1681,-3.1621,-3.1067,-3.0506,-3.0062,-3.005,-2.9701,-2.928,-2.928,-2.8931,-2.851,-2.851,-2.851,-2.851,-2.851,-2.851,-2.851,-2.851,-2.851,-2.851,-2.851,-2.851,-2.851,-2.851,-2.851,-2.851,-2.851,-2.851,-2.8498,-2.8486,-2.8486,-2.8306,-2.7777,-2.7642,-2.7284,-2.6214,-2.5624,-2.5312,-2.5312,-2.53,-2.5276,-2.5276,-2.4795,-2.4575,-2.4757,-2.4159,-2.3836,-2.3956,-2.3824,-2.3758,-2.3758,-2.3758,-2.3758,-2.3758,-2.3758,-2.3758,-2.3758,-2.3758,-2.3758,-2.3302,-2.3999,-2.4833,-2.6229,-2.7015,-2.745,-2.7545,-2.763,-2.7596,-2.7274,-2.6956,-2.6822,-2.7075,-2.7065,-2.7211,-2.7815,-2.8055,-2.8258,-2.8462,-2.8538,-2.8578,-2.851,-2.851,-2.855,-2.8578,-2.8618,-2.8618,-2.8685,-2.8984,-2.9338,-2.9797,-3.0326,-3.0898,-3.1428,-3.1621,-3.1705,-3.1705,-3.1705,-3.1705,-3.1705,-3.1705,-3.1705,-3.1705,-3.1705,-3.1705,-3.1705,-3.1705,-3.1705,-3.1705,-3.1705,-3.1705,-3.1705,-3.1705,-3.1705,-3.1681,-3.1512,-3.1332,-3.1079,-3.0338,-2.9965,-2.9821,-2.9821,-2.946,-2.9027,-2.9027,-2.8787,-2.851,-2.851,-2.851,-2.851,-2.851,-2.851,-2.851,-2.851,-2.851,-2.851,-2.851,-2.851,-2.851,-2.851,-2.851,-2.851,-2.851,-2.851,-2.833,-2.7762,-2.739,-2.6898,-2.619,-2.5937,-2.5697,-2.5348,-2.5312,-2.5312,-2.5312,-2.5143,-2.5047,-2.5117,-2.4589,-2.43,-2.4333,-2.3974,-2.3806,-2.3806,-2.3806,-2.3806,-2.3806,-2.3806,-2.3806,-2.3806,-2.3806,-2.3806,-2.5009,-2.5897,-2.6719,-2.8687,-2.9351,-2.9399,-2.8991,-2.9019,-2.874,-2.7323,-2.6754,-2.6487,-2.6418,-2.5822,-2.5822,-2.7198,-2.7241,-2.7464,-2.8378,-2.851,-2.851,-2.851,-2.851,-2.851,-2.851,-2.851,-2.855,-2.8685,-2.9072,-2.9532,-3.0062,-3.0591,-3.1163,-3.1693,-3.1705,-3.1705,-3.1705,-3.1705,-3.1705,-3.1705,-3.1705,-3.1705,-3.1705,-3.1705,-3.1705,-3.1705,-3.1705,-3.1705,-3.1705,-3.1705,-3.1705,-3.1705,-3.1705,-3.1705,-3.1705,-3.1705,-3.1705,-3.1609,-3.0922,-3.053,-3.0374,-3.0374,-3.0013,-2.9544,-2.9352,-2.9063,-2.8751,-2.8558,-2.851,-2.851,-2.851,-2.851,-2.851,-2.851,-2.851,-2.851,-2.851,-2.851,-2.851,-2.851,-2.851,-2.851,-2.851,-2.851,-2.839,-2.8053,-2.7678,-2.7198,-2.649,-2.6394,-2.619,-2.5648,-2.5588,-2.5516,-2.5324,-2.5312,-2.5312,-2.5312,-2.4987,-2.4807,-2.4807,-2.4494,-2.4348,-2.4348,-2.4348,-2.4348,-2.4348,-2.4348,-2.4348,-2.4348,-2.4348,-2.4348,-2.6428,-2.7853,-2.9088,-3.0112,-3.0848,-3.0894,-2.9284,-2.9451,-2.9401,-2.7187,-2.6599,-2.6181,-2.5091,-2.4103,-2.4075,-2.6018,-2.6203,-2.6695,-2.8282,-2.851,-2.851,-2.851,-2.851,-2.851,-2.851,-2.851,-2.8522,-2.8546,-2.9039,-2.9569,-3.0098,-3.0627,-3.1187,-3.1693,-3.1705,-3.1705,-3.1705,-3.1705,-3.1705,-3.1705,-3.1705,-3.1705,-3.1705,-3.1705,-3.1705,-3.1705,-3.1705,-3.1705,-3.1705,-3.1705,-3.1705,-3.1705,-3.1705,-3.1705,-3.1705,-3.1705,-3.1705,-3.1705,-3.1705,-3.138,-3.0958,-3.0958,-3.0555,-3.0037,-2.9532,-2.9364,-2.9232,-2.8739,-2.857,-2.8546,-2.8546,-2.8534,-2.851,-2.851,-2.851,-2.851,-2.851,-2.851,-2.851,-2.851,-2.851,-2.851,-2.851,-2.851,-2.851,-2.851,-2.851,-2.8138,-2.7066,-2.6934,-2.6729,-2.6202,-2.6142,-2.5937,-2.5432,-2.536,-2.5348,-2.5348,-2.5324,-2.5312,-2.5312,-2.5312,-2.5312,-2.5312,-2.5312,-2.5312,-2.5312,-2.5312,-2.5312,-2.5312,-2.5312,-2.5312,-2.8376,-2.9827,-3.1087,-3.236,-3.2785,-3.2639,-3.1619,-3.075,-2.957,-2.7512,-2.5366,-2.3767,-2.3412,-2.3069,-2.3376,-2.5086,-2.6094,-2.714,-2.8342,-2.851,-2.851,-2.851,-2.851,-2.851,-2.851,-2.851,-2.8679,-2.9076,-2.9593,-3.0122,-3.0694,-3.1211,-3.1573,-3.1705,-3.1705,-3.1705,-3.1705,-3.1705,-3.1705,-3.1705,-3.1705,-3.1705,-3.1705,-3.1705,-3.1705,-3.1705,-3.1705,-3.1705,-3.1705,-3.1705,-3.1705,-3.1705,-3.1705,-3.1705,-3.1705,-3.1705,-3.1705,-3.1705,-3.1705,-3.1621,-3.1512,-3.1512,-3.1151,-3.0694,-3.0506,-3.0194,-2.9857,-2.9725,-2.94,-2.91,-2.91,-2.8799,-2.851,-2.851,-2.851,-2.851,-2.851,-2.851,-2.851,-2.851,-2.851,-2.851,-2.851,-2.851,-2.851,-2.851,-2.851,-2.827,-2.757,-2.7486,-2.7282,-2.6741,-2.6681,-2.6633,-2.6489,-2.6142,-2.5901,-2.5901,-2.5528,-2.5312,-2.5312,-2.5312,-2.5312,-2.5312,-2.5312,-2.5312,-2.5312,-2.5312,-2.5312,-2.5312,-2.5312,-2.5312,-3.0016,-3.1395,-3.2614,-3.363,-3.3707,-3.3075,-3.15,-3.0506,-2.9055,-2.5945,-2.3922,-2.2537,-2.1924,-2.1656,-2.2224,-2.4312,-2.5524,-2.6755,-2.8294,-2.851,-2.851,-2.851,-2.8715,-2.8859,-2.8859,-2.9063,-2.9424,-2.9953,-3.005,-3.0314,-3.0886,-3.1428,-3.1705,-3.1705,-3.1705,-3.1705,-3.1705,-3.1705,-3.1705,-3.1705,-3.1705,-3.1705,-3.1705,-3.1705,-3.1705,-3.1705,0.0,-3.1705,-3.1705,-3.1705,-3.1705,-3.1705,-3.1705,-3.1705,-3.1705,-3.1705,-3.1705,-3.1705,-3.1705,-3.1705,-3.1705,-3.1705,-3.1512,-3.1223,-3.0995,-3.0675,-3.0386,-3.0158,-2.9869,-2.9641,-2.9641,-2.9256,-2.8859,-2.8859,-2.8679,-2.851,-2.851,-2.851,-2.851,-2.851,-2.851,-2.851,-2.851,-2.851,-2.851,-2.851,-2.851,-2.8402,-2.8114,-2.8065,-2.7861,-2.7294,-2.7246,-2.715,-2.6922,-2.6609,-2.6466,-2.6466,-2.619,-2.5985,-2.5985,-2.5781,-2.5661,-2.5661,-2.5432,-2.5312,-2.5312,-2.5312,-2.5312,-2.5312,-2.5312,-2.5312,-3.1438,-3.2672,-3.3765,-3.4283,-3.3877,-3.2717,-3.0296,-2.9472,-2.8025,-2.3793,-2.2505,-2.1751,-2.0529,-2.0191,-2.0962,-2.3651,-2.4762,-2.6057,-2.821,-2.851,-2.851,-2.851,-2.8979,-2.9304,-2.9304,-2.9785,-3.0302,-3.0874,-3.0446,-3.0422,-3.0995,-3.1452,-3.1705,-3.1705,-3.1705,-3.1705,-3.1705,-3.1705,-3.1705,-3.1705,-3.1705,-3.1705,-3.1705,-3.1705,-3.1705,-3.1705,-3.1705,-3.1705,-3.1705,-3.1705,-3.1705,-3.1705,-3.1705,-3.1705,-3.1705,-3.1705,-3.1705,-3.1705,-3.1705,-3.1705,-3.1705,-3.1705,-3.1705,-3.1621,-3.1163,-3.1019,-3.0922,-3.0422,-3.0242,-3.0194,-3.0194,-2.9797,-2.94,-2.94,-2.9003,-2.8619,-2.8619,-2.8558,-2.851,-2.851,-2.851,-2.851,-2.851,-2.851,-2.851,-2.851,-2.851,-2.851,-2.851,-2.851,-2.833,-2.7873,-2.7825,-2.7606,-2.7138,-2.7042,-2.7006,-2.7006,-2.6934,-2.6898,-2.6898,-2.6466,-2.6214,-2.6214,-2.5757,-2.5528,-2.5528,-2.5528,-2.5528,-2.5528,-2.5528,-2.5528,-3.2774,-3.3674,-3.4283,-3.4385,-3.3543,-3.2278,-3.0765,-2.8798,-2.6517,-2.372,-2.1568,-1.9994,-1.9374,-1.9396,-2.0398,-2.3044,-2.4507,-2.6057,-2.821,-2.851,-2.851,-2.851,-2.8979,-2.9304,-2.9304,-2.9785,-3.0302,-3.0874,-3.0826,-3.1019,-3.1536,-3.1657,-3.1705,-3.1705,-3.1705,-3.1705,-3.1705,-3.1705,-3.1705,-3.1705,-3.1705,-3.1705,-3.1705,-3.1705,-3.1705,-3.1705,-3.1705,0.0,-3.1705,-3.1705,-3.1705,-3.1705,-3.1705,-3.1705,-3.1705,-3.1705,-3.1705,-3.1705,-3.1705,-3.1705,-3.1705,-3.1705,-3.1705,-3.1693,-3.1597,-3.1573,-3.1548,-3.1464,-3.1115,-3.0735,-3.0735,-3.035,-2.9953,-2.9953,-2.9544,-2.916,-2.916,-2.8823,-2.851,-2.851,-2.851,-2.851,-2.851,-2.851,-2.851,-2.851,-2.851,-2.851,-2.851,-2.851,-2.8474,-2.8378,-2.8378,-2.833,-2.8246,-2.7798,-2.7546,-2.7546,-2.7138,-2.6898,-2.6898,-2.6801,-2.6753,-2.6753,-2.6669,-2.6621,-2.6621,-2.6621,-2.6621,-2.6621,-2.6621,-2.6621,-3.2803,-3.3674,-3.4327,-3.4008,-3.2948,-3.1409,-2.9145,-2.7142,-2.4964,-2.2167,-2.0312,-1.9049,-1.8481,-1.8934,-1.9981,-2.1743,-2.3224,-2.4939,-2.7344,-2.744,-2.7572,-2.8414,-2.922,-2.9713,-2.9713,-3.0434,-3.1055,-3.1308,-3.1332,-3.144,-3.1693,-3.1705,-3.1705,-3.1705,-3.1705,-3.1705,-3.1705,-3.1705,-3.1705,-3.1705,-3.1705,-3.1705,-3.1705,-3.1705,-3.1705,-3.1705,-3.1705,-3.1705,-3.1705,-3.1705,-3.1705,-3.1705,-3.1705,-3.1705,-3.1705,-3.1705,-3.1705,-3.1705,-3.1705,-3.1705,-3.1705,-3.1705,-3.1705,-3.1705,-3.1705,-3.1705,-3.1705,-3.1705,-3.1524,-3.1332,-3.1332,-3.0934,-3.0494,-3.0494,-2.9881,-2.9304,-2.9304,-2.8883,-2.851,-2.851,-2.851,-2.851,-2.851,-2.851,-2.851,-2.851,-2.851,-2.851,-2.851,-2.851,-2.851,-2.851,-2.851,-2.851,-2.851,-2.8282,-2.8138,-2.8138,-2.7858,-2.7714,-2.7714,-2.745,-2.7306,-2.7306,-2.7042,-2.6898,-2.6898,-2.6898,-2.6898,-2.6898,-2.6898,-2.6898,-3.2643,-3.3543,-3.4269,-3.3663,-3.2382,-3.0524,-2.7476,-2.556,-2.3554,-2.0561,-1.9209,-1.8425,-1.7921,-1.8408,-1.9345,-2.0697,-2.1892,-2.3604,-2.6333,-2.6478,-2.6839,-2.833,-2.9448,-3.0086,-3.0086,-3.1091,-3.1705,-3.1705,-3.1705,-3.1705,-3.1705,-3.1705,-3.1705,-3.1705,-3.1705,-3.1705,-3.1705,-3.1705,-3.1705,-3.1705,-3.1705,-3.1705,-3.1705,-3.1705,-3.1705,-3.1705,-3.1705,-3.1705,-3.1705,-3.1705,-3.1705,-3.1705,-3.1705,-3.1705,-3.1705,-3.1705,-3.1705,-3.1705,-3.1705,-3.1705,-3.1705,-3.1705,-3.1705,-3.1705,-3.1705,-3.1705,-3.1705,-3.1705,-3.1705,-3.1705,-3.1705,-3.1404,-3.1055,-3.0946,-3.0242,-2.9581,-2.9352,-2.8979,-2.8643,-2.8534,-2.851,-2.851,-2.851,-2.851,-2.851,-2.851,-2.851,-2.851,-2.851,-2.851,-2.851,-2.851,-2.851,-2.851,-2.851,-2.851,-2.851,-2.851,-2.851,-2.851,-2.851,-2.8114,-2.7885,-2.7885,-2.745,-2.7234,-2.7234,-2.7234,-2.7234,-2.7234,-2.7234,-2.7234,-3.3097,-3.3877,-3.4269,-3.3663,-3.208,-3.0002,-2.7401,-2.4853,-2.2393,-1.9962,-1.8617,-1.7908,-1.7965,-1.7551,-1.8056,-2.0585,-2.1304,-2.263,-2.5733,-2.6562,-2.7234,-2.8378,-2.9448,-3.0086,-3.0086,-3.1091,-3.1705,-3.1705,-3.1705,-3.1705,-3.1705,-3.1705,-3.1705,-3.1705,-3.1705,-3.1705,-3.1705,-3.1705,-3.1705,-3.1705,-3.1705,-3.1705,-3.1705,-3.1705,-3.1705,-3.1705,-3.1705,-3.1705,0.0,-3.1705,-3.1705,-3.1705,-3.1705,-3.1705,-3.1705,-3.1705,-3.1705,-3.1705,-3.1705,-3.1705,-3.1705,-3.1705,-3.1705,-3.1705,-3.1705,-3.1705,-3.1705,-3.1705,-3.1705,-3.1705,-3.1705,-3.1669,-3.1512,-3.1031,-3.0807,-3.0513,-2.9508,-2.9256,-2.9088,-2.8607,-2.851,-2.851,-2.851,-2.851,-2.851,-2.851,-2.851,-2.851,-2.851,-2.851,-2.851,-2.851,-2.851,-2.851,-2.851,-2.851,-2.851,-2.851,-2.851,-2.851,-2.851,-2.8462,-2.8438,-2.8438,-2.839,-2.8366,-2.8366,-2.8366,-2.8366,-2.8366,-2.8366,-2.8366,-3.1946,-3.2774,-3.3209,-3.2962,-3.1148,-2.8796,-2.6253,-2.3949,-2.1686,-1.9341,-1.8293,-1.7726,-1.7452,-1.7191,-1.7517,-1.9179,-1.9443,-2.0478,-2.3352,-2.4206,-2.518,-2.6863,-2.857,-2.9737,-3.0062,-3.1091,-3.1705,-3.1705,-3.1705,-3.1705,-3.1705,-3.1705,-3.1705,-3.1705,-3.1705,-3.1705,-3.1705,-3.1705,-3.1705,-3.1705,-3.1705,-3.1705,-3.1705,-3.1705,-3.1705,-3.1705,-3.1705,-3.1705,0.0,-3.1705,-3.1705,-3.1705,-3.1705,-3.1705,-3.1705,-3.1705,-3.1705,-3.1705,-3.1705,-3.1705,-3.1705,-3.1705,-3.1705,-3.1705,-3.1705,-3.1705,-3.1705,-3.1705,-3.1705,-3.1705,-3.1705,-3.1705,-3.1657,-3.144,-3.1151,-3.0802,-3.0338,-2.9749,-2.9232,-2.9027,-2.8727,-2.851,-2.851,-2.851,-2.851,-2.851,-2.851,-2.851,-2.851,-2.851,-2.851,-2.851,-2.851,-2.851,-2.851,-2.851,-2.851,-2.851,-2.851,-2.851,-2.851,-2.851,-2.851,-2.851,-2.851,-2.851,-2.851,-2.851,-2.851,-2.851,-2.851,-2.851,-3.0581,-3.1683,-3.2425,-3.2034,-3.0306,-2.7927,-2.5048,-2.3146,-2.129,-1.8815,-1.8028,-1.7646,-1.7097,-1.6867,-1.7027,0.0,-1.8076,-1.9131,-2.1813,-2.2654,-2.3761,-2.5841,-2.7572,-2.8871,-2.9556,-3.0898,-3.1705,-3.1705,-3.1705,-3.1705,-3.1705,-3.1705,-3.1705,-3.1705,-3.1705,-3.1705,-3.1705,-3.1705,-3.1705,-3.1705,-3.1705,-3.1705,-3.1705,-3.1705,-3.1705,-3.1705,-3.1705,-3.1705,0.0,-3.1705,-3.1705,-3.1705,-3.1705,-3.1705,-3.1705,-3.1705,-3.1705,-3.1705,-3.1705,-3.1705,-3.1705,-3.1705,-3.1705,-3.1705,-3.1705,-3.1705,-3.1705,-3.1705,-3.1705,-3.1705,-3.1705,-3.1705,-3.1705,-3.1705,-3.1428,-3.1103,-3.0946,-3.029,-2.9677,-2.9364,-2.8991,-2.8691,-2.8534,-2.851,-2.851,-2.851,-2.851,-2.851,-2.851,-2.851,-2.851,-2.851,-2.851,-2.851,-2.851,-2.851,-2.851,-2.851,-2.851,-2.851,-2.851,-2.851,-2.851,-2.851,-2.851,-2.851,-2.851,-2.851,-2.851,-2.851,-2.851,-2.851,-2.9262,-3.1016,-3.2208,-3.0916,-2.9653,-2.7742,-2.406,-2.2581,-2.1205,-1.8392,-1.7787,-1.7646,-1.7097,-1.6565,-1.6328,-1.6741,-1.7581,-1.9131,-2.1813,-2.2654,-2.3761,-2.5841,-2.661,-2.733,-2.8426,-3.0477,-3.1705,-3.1705,-3.1705,-3.1705,-3.1705,-3.1705,-3.1705,-3.1705,-3.1705,-3.1705,-3.1705,-3.1705,-3.1705,-3.1705,-3.1705,-3.1705,-3.1705,-3.1705,-3.1705,-3.1705,-3.1705,-3.1705,0.0,-3.1705,-3.1705,-3.1705,-3.1705,-3.1705,-3.1705,-3.1705,-3.1705,-3.1705,-3.1705,-3.1705,-3.1705,-3.1705,-3.1705,-3.1705,-3.1705,-3.1705,-3.1705,-3.1705,-3.1705,-3.1705,-3.1705,-3.1705,-3.1705,-3.1705,-3.1705,-3.156,-3.1031,-3.091,-3.0555,-2.9508,-2.9292,-2.9124,-2.8595,-2.851,-2.851,-2.851,-2.851,-2.851,-2.851,-2.851,-2.851,-2.851,-2.851,-2.851,-2.851,-2.851,-2.851,-2.851,-2.851,-2.851,-2.851,-2.851,-2.851,-2.851,-2.851,-2.851,-2.851,-2.851,-2.851,-2.851,-2.851,-2.851,-2.6155,-2.7142,-2.781,-2.743,-2.637,-2.4882,-2.2832,-2.1831,-2.0645,-1.8296,-1.7787,-1.7523,-1.6616,-1.6318,-1.6661,-1.8077,-1.8544,-1.942,-2.138,-2.3027,-2.4278,-2.4939,-2.7428,-2.9364,-3.0062,-3.1103,-3.1705,-3.1705,-3.1705,-3.1705,-3.1705,-3.1705,-3.1705,-3.1705,-3.1705,-3.1705,-3.1705,-3.1705,-3.1705,-3.1705,-3.1705,-3.1705,-3.1705,-3.1705,-3.1705,-3.1705,-3.1705,-3.1705,-3.1705,-3.1705,-3.1705,-3.1705,-3.1705,-3.1705,-3.1705,-3.1705,-3.1705,-3.1705,-3.1705,-3.1705,-3.1705,-3.1705,-3.1705,-3.1705,-3.1705,-3.1705,-3.1661,-3.1484,-3.1572,-3.1661,-3.1484,-3.1572,-3.1825,-3.2457,-3.2575,-3.2698,-3.3136,-3.296,-3.2384,-3.1477,-3.0993,-3.0367,-2.9258,-2.9051,-2.8931,-2.857,-2.851,-2.851,-2.851,-2.851,-2.851,-2.851,-2.851,-2.851,-2.851,-2.851,-2.851,-2.851,-2.851,-2.851,-2.851,-2.851,-2.851,-2.851,-2.851,-2.851,-2.851,-2.851,-2.851,-2.851,-2.851,-2.851,-2.3847,-2.4776,-2.5371,-2.5139,-2.4297,-2.3149,-2.1722,-2.0854,-1.9814,-1.7895,-1.7462,-1.7152,-1.6284,-1.6122,-1.6495,-1.7605,-1.8133,-1.9023,-2.0839,-2.2558,-2.4013,-2.4999,-2.7705,-2.9701,-3.023,-3.1163,-3.1705,-3.1705,-3.1705,-3.1705,-3.1705,-3.1705,-3.1705,-3.1705,-3.1705,-3.1705,-3.1705,-3.1705,-3.1705,-3.1705,-3.1705,-3.1705,-3.1705,-3.1705,-3.1705,-3.1705,-3.1705,-3.1705,0.0,-3.1705,-3.1705,-3.1705,-3.1705,-3.1617,-3.1528,-3.1528,-3.1484,-3.1451,-3.1451,-3.1496,-3.1528,-3.1528,-3.1528,-3.1528,-3.1451,-3.1496,-3.1528,-3.135,-3.1572,-3.1737,-3.1395,-3.1869,-3.2525,-3.2717,-3.3122,-3.3606,-3.3998,-3.3809,-3.3403,-3.2813,-3.219,-3.1471,-3.0514,-3.0174,-2.9887,-2.9581,-2.9202,-2.8949,-2.8949,-2.8697,-2.851,-2.851,-2.851,-2.851,-2.851,-2.851,-2.851,-2.851,-2.851,-2.851,-2.851,-2.851,-2.851,-2.851,-2.851,-2.851,-2.851,-2.851,-2.851,-2.851,-2.851,-2.851,0.0,-2.3525,-2.4317,-2.3702,-2.3113,-2.2278,-2.0635,-1.9761,0.0,-1.7319,-1.6888,-1.6659,-1.6147,-1.6025,-1.6017,-1.6089,-1.6919,-1.8326,-2.047,-2.1771,-2.3412,-2.5961,-2.7669,-2.8823,-2.9304,-3.0802,-3.1705,-3.1705,-3.1705,-3.1705,-3.1705,-3.1705,-3.1705,-3.1705,-3.1705,-3.1705,-3.1705,-3.1705,-3.1705,-3.1705,-3.1705,-3.1705,-3.1705,-3.1705,-3.1705,0.0,-3.1705,-3.1705,-3.1705,-3.1705,-3.1705,-3.1661,-3.1661,-3.1528,-3.1261,-3.1261,-3.1139,-3.0984,-3.0984,-3.1107,-3.1261,-3.1261,-3.1306,-3.1306,-3.1151,-3.1196,-3.1261,-3.1261,-3.1605,-3.1901,-3.1427,-3.2469,-3.3471,-3.2723,-3.3433,-3.4236,-3.3911,-3.3839,-3.3798,-3.3586,-3.2959,-3.2364,-3.2162,-3.1664,-3.1265,-3.1227,-3.043,-2.9805,-2.9805,-2.9131,-2.8657,-2.8657,-2.8657,-2.8657,-2.859,-2.855,-2.851,-2.851,-2.851,-2.851,-2.851,-2.851,-2.851,-2.851,-2.851,-2.851,-2.851,-2.851,-2.851,-2.851,-2.851,-2.851,-1.9885,0.0,-2.1061,-2.0393,-2.0494,-2.0431,0.0,-1.917,-1.8927,-1.734,-1.6972,-1.688,-1.6659,-1.6268,-1.6623,-1.8556,-1.9059,-2.0001,-2.2144,-2.4013,-2.5865,-2.7729,-2.8991,-2.9761,-2.9893,-3.1019,-3.1705,-3.1705,-3.1705,-3.1705,-3.1705,-3.1705,-3.1705,-3.1705,-3.1705,-3.1705,-3.1705,-3.1705,-3.1705,-3.1705,-3.1705,-3.1705,-3.1705,-3.1705,-3.1705,-3.1705,-3.1705,-3.1705,-3.1705,-3.1705,-3.1572,-3.1395,-3.1395,-3.1273,-3.1062,-3.1062,-3.1017,-3.0984,-3.0984,-3.1017,-3.1062,-3.1062,-3.1395,-3.1813,-3.1781,-3.1439,-3.1017,-3.0802,-3.1371,-3.1945,-3.1593,-3.2326,-3.3288,-3.381,-3.4176,-3.4538,-3.5087,-3.5209,-3.5006,-3.4326,-3.4022,-3.3563,-3.2418,-3.2133,-3.1905,-3.1488,-3.1105,-3.0841,-3.0841,-3.0535,-3.0342,-3.0342,-3.0342,-3.0075,-2.9484,-2.8843,-2.851,-2.851,-2.851,-2.851,-2.851,-2.851,-2.851,-2.851,-2.851,-2.851,-2.851,-2.851,-2.851,-2.851,-2.851,-2.851,-1.9101,-1.9595,-2.0016,-1.9653,-1.9676,-1.9621,-1.9007,-1.8528,-1.7946,-1.7057,-1.6646,-1.6424,-1.6355,-1.6312,-1.6808,-1.8422,-1.9338,-2.0808,-2.364,-2.5661,-2.726,-2.8378,-2.9232,-2.9725,-2.9725,-3.0718,-3.1344,-3.1344,-3.1573,-3.1705,-3.1705,-3.1705,-3.1705,-3.1705,-3.1705,-3.1705,-3.1705,-3.1705,-3.1705,-3.1705,-3.1705,-3.1705,-3.1705,-3.1705,-3.1705,-3.1705,-3.1705,-3.1705,-3.1705,-3.1572,-3.1439,-3.1306,-3.1184,-3.1005,-3.0826,-3.0826,-3.0736,-3.0646,-3.0646,-3.0904,-3.1261,-3.1261,-3.1737,-3.2307,-3.2152,-3.1901,-3.1605,-3.156,-3.2077,-3.2556,-3.222,-3.3031,-3.3966,-3.405,-3.4551,-3.5059,-3.5358,-3.544,-3.5358,-3.5059,-3.4688,-3.4223,-3.3674,-3.3307,-3.3036,-3.2726,-3.2211,-3.1785,-3.1513,-3.1048,-3.0676,-3.0368,-3.0532,-3.0456,-3.0012,-2.9742,-2.9289,-2.855,-2.851,-2.851,-2.851,-2.851,-2.851,-2.851,-2.851,-2.851,-2.851,-2.851,-2.851,-2.851,-2.851,-2.851,-1.9333,-1.9793,-2.015,-1.9908,-1.9669,-1.9381,-1.9024,-1.7891,-1.6858,-1.6625,-1.6185,-1.5862,-1.6018,-1.6487,-1.7075,-1.776,-1.9372,-2.168,-2.5083,-2.6803,-2.7921,-2.845,-2.8979,-2.9304,-2.9304,-3.0182,-3.0802,-3.0802,-3.1211,-3.1464,-3.1464,-3.1536,-3.1585,-3.1585,-3.1669,-3.1705,-3.1705,-3.1705,-3.1705,-3.1705,-3.1705,-3.1705,-3.1705,-3.1705,-3.1705,-3.1705,0.0,0.0,-3.1617,-3.1395,-3.1261,-3.1172,-3.1005,-3.0781,-3.0532,-3.0532,-3.0397,-3.0216,-3.0306,-3.088,-3.1581,-3.1669,-3.2208,-3.2754,-3.2544,-3.2531,-3.2661,-3.2914,-3.3185,-3.3313,-3.2927,-3.3894,-3.4784,-3.4021,-3.4675,-3.5399,-3.5072,-3.499,-3.5072,-3.5426,-3.4895,-3.4522,-3.4908,-3.4524,-3.4139,-3.4139,-3.3449,-3.2712,-3.2201,-3.1525,-3.0864,-3.0266,-3.0522,-3.0648,-3.052,-3.0796,-3.0367,-2.8961,-2.8736,-2.8618,-2.851,-2.8471,-2.8471,-2.851,-2.851,-2.851,-2.851,-2.851,-2.851,-2.851,-2.851,-2.851,-2.0422,-2.0688,-2.0393,-1.908,-1.9287,-1.9389,-1.7729,-1.737,-1.7152,-1.6293,-1.6032,-1.6201,-1.7003,-1.7579,-1.8434,-1.9861,-2.2154,-2.4436,-2.6369,-2.7246,-2.7921,-2.845,-2.8979,-2.9304,-2.9304,-2.9845,-3.0206,-3.0206,-3.029,-3.0338,-3.0338,-3.0802,-3.1043,-3.1043,-3.1476,-3.1705,-3.1705,-3.1705,-3.1705,-3.1705,-3.1705,-3.1705,-3.1705,-3.1705,-3.1705,-3.1705,0.0,-3.1572,-3.135,-3.1306,-3.1083,-3.0713,-3.0668,-3.0487,-3.0261,-3.0261,-3.0261,-3.0306,-3.0892,-3.1217,-3.1427,-3.2008,-3.2673,-3.327,-3.3258,-3.3641,-3.4092,-3.4147,-3.3768,-3.3398,-3.3313,-3.3894,-3.4481,-3.4314,-3.4439,-3.4564,-3.4522,-3.4522,-3.4522,-3.4605,-3.4481,-3.4439,-3.4481,-3.4402,-3.435,-3.435,-3.4096,-3.3847,-3.3754,-3.3552,-3.3171,-3.2554,-3.2538,-3.2249,-3.1408,-3.1355,-3.1169,-3.0557,-2.9884,-2.9223,-2.855,-2.8339,-2.8351,-2.851,-2.851,-2.851,-2.851,-2.851,-2.851,-2.851,-2.851,-2.851,-1.9783,-1.9959,-1.9731,-1.8645,-1.9454,-2.023,-1.9268,-1.85,-1.7926,-1.7661,-1.7152,-1.7074,-1.8073,-1.8698,-1.9865,-2.2299,-2.4436,-2.6153,-2.7174,-2.7774,-2.8234,-2.8474,-2.8727,-2.8871,-2.8871,-2.9352,-2.9665,-2.9665,-2.9929,-3.0086,-3.0086,-3.0314,-3.0446,-3.0446,-3.073,-3.0862,-3.0862,-3.1139,-3.1428,-3.1705,-3.1705,-3.1705,-3.1705,-3.1705,-3.1617,-3.1484,0.0,-3.1362,-3.1139,-3.0994,-3.0802,-3.0578,-3.0442,-3.0306,-3.0216,-3.0216,-3.0216,-3.0306,-3.1038,-3.156,-3.1977,-3.2673,-3.3373,-3.3937,-3.3937,-3.4147,-3.4397,-3.4397,-3.4189,-3.3937,-3.3937,-3.4189,-3.4397,-3.4397,-3.4397,-3.4397,-3.4397,-3.4397,-3.4397,-3.4397,-3.4397,-3.4397,-3.4397,-3.4397,-3.4397,-3.4397,-3.4327,-3.4174,-3.3884,-3.3781,-3.3502,-3.289,-3.3016,-3.2852,-3.2062,-3.2381,-3.2159,-3.0983,-3.0342,-2.9742,-2.9184,-2.8843,-2.8578,-2.8339,-2.8431,-2.8431,-2.8339,-2.8431,-2.851,-2.851,-2.851,-2.851,-1.9208,-1.919,-1.903,-1.8802,-1.9552,-2.0375,-2.0425,-1.9441,-1.8688,-1.9245,-1.8716,-1.841,-1.9215,-2.0133,-2.1711,-2.4568,-2.6189,-2.727,-2.7798,-2.8258,-2.851,-2.851,-2.851,-2.851,-2.851,-2.8871,-2.9112,-2.9112,-2.9484,-2.9725,-2.9725,-2.9833,-2.9905,-2.9905,-3.0025,-3.0086,-3.0086,-3.0494,-3.0995,-3.1524,-3.1645,-3.1705,-3.1705,-3.1617,-3.1484,-3.1306,-3.1261,-3.1095,-3.0871,-3.0679,-3.0578,-3.0487,-3.0261,-3.0216,-3.0216,-3.0216,-3.0306,-3.0578,-3.1282,-3.1977,-3.2673,-3.3386,-3.3979,-3.4397,-3.4397,-3.4397,-3.4397,-3.4397,-3.4397,-3.4397,-3.4397,-3.4397,-3.4397,-3.4397,-3.4397,-3.4397,-3.4397,-3.4397,-3.4397,-3.4397,-3.4397,-3.4397,-3.4397,-3.4397,-3.4397,-3.4397,-3.4397,-3.4241,-3.3835,-3.3783,-3.3548,-3.296,-3.3186,-3.3091,-3.2463,-3.3037,-3.2839,-3.1418,-3.0908,-3.0431,-2.9858,-2.96,-2.9184,-2.8554,-2.8685,-2.8618,-2.8259,-2.8431,-2.851,-2.851,-2.851,-2.851,-1.9845,-1.9318,-1.8735,-1.9796,-1.927,-1.8629,-1.9194,-1.9081,-1.9182,-2.0257,-2.0418,-2.0377,-2.0461,-2.2125,-2.4239,-2.6369,-2.7234,-2.7849,-2.8378,-2.8486,-2.851,-2.851,-2.851,-2.851,-2.851,-2.8546,-2.857,-2.857,-2.8607,-2.8619,-2.8619,-2.9088,-2.9352,-2.9352,-2.9833,-3.0086,-3.0086,-3.0122,-3.041,-3.0983,-3.1476,-3.1705,-3.1705,-3.1439,-3.1306,-3.1306,-3.1107,-3.0871,-3.0623,-3.0623,-3.0442,-3.0216,-3.0216,-3.0216,-3.0216,-3.0216,-3.0623,-3.1339,-3.2008,-3.2717,-3.3428,-3.4105,-3.4356,-3.4397,-3.4397,-3.4397,-3.4397,-3.4397,-3.4397,-3.4397,-3.4397,-3.4397,-3.4397,-3.4397,-3.4397,-3.4397,-3.4397,-3.4397,-3.4397,-3.4397,-3.4397,-3.4397,-3.4397,-3.4397,-3.4397,-3.4397,-3.4397,-3.4384,-3.4345,-3.4345,-3.4136,-3.3587,-3.3575,-3.3264,-3.2452,-3.2799,-3.2913,-3.2588,-3.2028,-3.1281,-3.0279,-3.0418,-3.019,-2.9588,-2.9626,-2.925,-2.8471,-2.851,-2.851,-2.851,-2.851,-2.851,-1.8808,-1.8901,-1.8901,-1.8898,-1.9089,-1.9515,-2.036,-2.077,-2.1366,-2.2776,-2.2821,-2.2666,-2.2979,-2.423,-2.56,-2.6717,-2.7618,-2.8282,-2.8474,-2.851,-2.851,-2.851,-2.851,-2.851,-2.851,-2.851,-2.851,-2.851,-2.851,-2.851,-2.851,-2.8703,-2.8811,-2.8811,-2.9003,-2.9112,-2.9112,-2.9436,-2.9647,-2.9726,-3.0264,-3.0527,-3.0539,-3.0589,-3.0499,-3.039,-3.0629,-3.0589,-3.0352,-3.0352,-3.0306,-3.0216,-3.0216,-3.0216,-3.0216,-3.0216,-3.0668,-3.1383,-3.2052,-3.276,-3.3526,-3.4189,-3.4397,-3.4397,-3.4397,-3.4397,-3.4397,-3.4397,-3.4397,-3.4397,-3.4397,-3.4397,-3.4397,-3.4397,-3.4397,-3.4397,-3.4397,-3.4397,-3.4397,-3.4397,-3.4397,-3.4397,-3.4397,-3.4397,-3.4397,-3.4397,-3.4397,-3.4397,-3.4397,-3.4397,-3.4319,-3.411,-3.3796,-3.3553,-3.3475,-3.331,-3.2995,-3.254,-3.2171,-3.1809,-3.1429,-3.1244,-3.0632,-2.9537,-2.9653,-2.925,-2.8299,-2.8431,-2.851,-2.851,-2.851,-2.851,-1.7714,-1.7979,-1.8373,-1.8136,-1.8859,-2.002,-2.1559,-2.2201,-2.2942,-2.4723,-2.4633,-2.441,-2.4927,-2.5612,-2.6286,-2.6801,-2.7786,-2.851,-2.851,-2.851,-2.851,-2.851,-2.851,-2.851,-2.851,-2.851,-2.851,-2.851,-2.851,-2.851,-2.851,-2.851,-2.851,-2.851,-2.851,-2.851,-2.851,-2.879,-2.8877,-2.8755,-2.897,-2.9272,-2.9687,-2.9816,-2.9753,-2.9613,-3.008,-3.0166,-2.9998,-3.0147,-3.0216,-3.0216,-3.0216,-3.0216,-3.0216,-3.0442,-3.1015,-3.1725,-3.2413,-3.3116,-3.3768,-3.4272,-3.4397,-3.4397,-3.4397,-3.4397,-3.4397,-3.4397,-3.4397,-3.4397,-3.4397,-3.4397,-3.4397,-3.4397,-3.4397,-3.4397,-3.4397,-3.4397,-3.4397,-3.4397,-3.4397,-3.4397,-3.4397,-3.4397,-3.4397,-3.4397,-3.4397,-3.4397,-3.4397,-3.4397,-3.4397,-3.4397,-3.4071,-3.3893,-3.3925,-3.3608,-3.3211,-3.2716,-3.2654,-3.2508,-3.2114,-3.2064,-3.1392,-2.9897,-2.9986,-2.9471,-2.8299,-2.8419,-2.8595,-2.8763,-2.8763,-2.8847,-1.6829,-1.6619,-1.695,-1.7879,-1.8571,-1.9748,-2.2421,-2.3035,-2.3592,-2.5685,-2.5709,-2.5492,-2.6021,-2.6117,-2.6298,-2.6813,-2.7786,-2.851,-2.851,-2.851,-2.851,-2.851,-2.851,-2.851,-2.851,-2.851,-2.851,-2.851,-2.851,-2.851,-2.851,-2.851,-2.851,-2.851,-2.851,-2.851,-2.851,-2.8299,-2.8219,-2.8179,-2.7725,-2.818,-2.9385,-2.9196,-2.9079,-2.9102,-2.9362,-2.9493,-2.9527,-3.0009,-3.0204,-3.0204,-3.0216,-3.0216,-3.0306,-3.1038,-3.1725,-3.2401,-3.3129,-3.3852,-3.4397,-3.4397,-3.4397,-3.4397,-3.4397,-3.4397,-3.4397,-3.4397,-3.4397,-3.4397,-3.4397,-3.4397,-3.4397,-3.4397,-3.4397,-3.4397,-3.4397,-3.4397,-3.4397,-3.4397,-3.4397,-3.4397,-3.4397,-3.4397,-3.4397,-3.4397,-3.4397,-3.4397,-3.4397,-3.4397,-3.4397,-3.4397,-3.4397,-3.4175,-3.3639,-3.36,-3.3513,-3.3316,-3.3702,-3.3376,-3.2159,-3.2888,-3.2574,-3.0945,-3.0945,-3.0126,-2.8522,-2.8522,-2.8799,-2.9304,-2.9304,-2.9593,-1.6287,-1.7208,-1.8441,-1.8669,-2.032,-2.2263,-2.3727,-2.435,-2.5216,-2.7356,-2.738,-2.7055,-2.7212,-2.7248,-2.7296,-2.7426,-2.8065,-2.851,-2.851,-2.851,-2.851,-2.851,-2.851,-2.851,-2.851,-2.851,-2.851,-2.851,-2.851,-2.851,-2.851,-2.851,-2.851,-2.851,-2.8339,-2.8299,-2.8299,-2.807,-2.7909,-2.7725,-2.7563,-2.7714,-2.8069,-2.8245,-2.8334,-2.8368,-2.8766,-2.8941,-2.8976,-2.9493,-2.9711,-2.9745,-3.0089,-3.0216,-3.0306,-3.1038,-3.1725,-3.2401,-3.3129,-3.3852,-3.4397,-3.4397,-3.4397,-3.4397,-3.4397,-3.4397,-3.4397,-3.4397,-3.4397,-3.4397,-3.4397,-3.4397,-3.4397,-3.4397,-3.4397,-3.4397,-3.4397,-3.4397,-3.4397,-3.4397,-3.4397,-3.4397,-3.4397,-3.4397,-3.4397,-3.4397,-3.4397,-3.4397,-3.4397,-3.4397,-3.4397,-3.4397,-3.4397,-3.4332,-3.4175,-3.4162,-3.3968,-3.3526,-3.3847,-3.3958,-3.3806,-3.4348,-3.415,-3.3084,-3.3084,-3.2227,-3.0549,-3.0549,-3.0323,-2.9845,-2.9845,-2.9941,-1.6231,-1.739,-1.8895,-1.9713,-2.151,-2.355,-2.5358,-2.6033,-2.6695,-2.8198,-2.805,-2.7678,-2.7678,-2.7678,-2.7678,-2.7678,-2.8162,-2.851,-2.851,-2.851,-2.851,-2.851,-2.851,-2.851,-2.851,-2.851,-2.851,-2.851,-2.8431,-2.8379,-2.8379,-2.8323,-2.8283,-2.8283,-2.8151,-2.807,-2.807,-2.7869,-2.7655,-2.7522,-2.74,-2.7371,-2.7383,-2.7582,-2.7679,-2.7713,-2.8207,-2.8517,-2.8723,-2.9045,-2.9183,-2.9228,-2.9734,-3.0097,-3.0409,-3.1376,-3.2152,-3.2846,-3.3556,-3.4063,-3.4397,-3.4397,-3.4397,-3.4397,-3.4397,-3.4397,-3.4397,-3.4397,-3.4397,-3.4397,-3.4397,-3.4397,-3.4397,-3.4397,-3.4397,-3.4397,-3.4397,-3.4397,-3.4397,-3.4397,-3.4397,-3.4397,-3.4397,-3.4397,-3.4397,-3.4397,-3.4397,-3.4397,-3.4397,-3.4397,-3.4397,-3.4397,-3.4397,-3.4397,-3.4397,-3.4397,-3.4254,-3.3927,-3.4296,-3.458,-3.4743,-3.4841,-3.4527,-3.3752,-3.3892,-3.3338,-3.1943,-3.158,-3.1215,-3.0922,-3.0556,-3.0506,-1.6485,-1.7287,-1.8635,-2.0822,-2.2366,-2.4097,-2.6958,-2.7678,-2.7933,-2.8414,-2.8086,-2.775,-2.775,-2.775,-2.775,-2.775,-2.8198,-2.851,-2.851,-2.851,-2.851,-2.851,-2.851,-2.851,-2.851,-2.851,-2.8471,-2.8471,-2.8299,-2.8179,-2.8179,-2.8002,-2.7893,-2.7893,-2.7881,-2.7841,-2.7841,-2.7615,-2.7482,-2.7482,-2.7301,-2.719,-2.719,-2.719,-2.719,-2.7213,-2.7713,-2.8161,-2.8574,-2.8609,-2.8632,-2.8689,-2.9305,-2.9907,-3.0663,-3.1883,-3.2766,-3.3484,-3.4189,-3.4397,-3.4397,-3.4397,-3.4397,-3.4397,-3.4397,-3.4397,-3.4397,-3.4397,-3.4397,-3.4397,-3.4397,-3.4397,-3.4397,-3.4397,-3.4397,-3.4397,-3.4397,-3.4397,-3.4397,-3.4397,-3.4397,-3.4397,-3.4397,-3.4397,-3.4397,-3.4397,-3.4397,-3.4397,-3.4397,-3.4397,-3.4397,-3.4397,-3.4397,-3.4397,-3.4397,-3.4397,-3.4397,-3.4397,-3.4784,-3.5031,-3.5031,-3.4796,-3.4326,-3.3617,-3.403,-3.3862,-3.3067,-3.2217,-3.1956,-3.224,-3.1473,-3.1334,-1.6355,-1.7363,-1.8794,-2.1377,-2.4044,-2.6225,-2.691,-2.7702,-2.8378,-2.8486,-2.8426,-2.8342,-2.8342,-2.8342,-2.8342,-2.8342,-2.8438,-2.851,-2.851,-2.851,-2.851,-2.851,-2.851,-2.851,-2.851,-2.851,-2.8419,-2.8259,-2.8219,-2.8139,-2.7962,-2.7921,-2.7893,-2.7893,-2.7708,-2.7574,-2.7574,-2.7371,-2.726,-2.726,-2.7231,-2.719,-2.719,-2.719,-2.719,-2.7201,-2.7305,-2.7408,-2.7575,-2.7977,-2.8138,-2.8226,-2.9246,-3.0012,-3.0659,-3.1978,-3.2866,-3.3484,-3.4189,-3.4397,-3.4397,-3.4397,-3.4397,-3.4397,-3.4397,-3.4397,-3.4397,-3.4397,-3.4397,-3.4397,-3.4397,-3.4397,-3.4397,-3.4397,-3.4397,-3.4397,-3.4397,-3.4397,-3.4397,-3.4397,-3.4397,-3.4397,-3.4397,-3.4397,-3.4397,-3.4397,-3.4397,-3.4397,-3.4397,-3.4397,-3.4397,-3.4397,-3.4397,-3.4397,-3.4397,-3.4397,-3.4397,-3.4397,-3.4481,-3.4564,-3.4564,-3.5479,-3.5926,-3.5754,-3.6119,-3.5935,-3.5076,-3.4862,-3.4101,-3.2805,-3.2646,-3.2259,-1.6247,-1.758,-1.9336,-2.251,-2.4927,-2.6633,-2.7162,-2.7702,-2.821,-2.8462,-2.851,-2.851,-2.851,-2.851,-2.851,-2.851,-2.851,-2.851,-2.851,-2.851,-2.851,-2.851,-2.851,-2.851,-2.851,-2.851,-2.8431,-2.8219,-2.8111,-2.795,-2.7708,-2.7638,-2.7557,-2.7557,-2.7423,-2.7371,-2.7371,-2.726,-2.719,-2.719,-2.719,-2.719,-2.719,-2.719,-2.719,-2.719,-2.719,-2.719,-2.7213,-2.7518,-2.7621,-2.7709,-2.8863,-2.972,-3.0427,-3.1947,-3.2935,-3.3588,-3.4181,-3.4397,-3.4397,-3.4397,-3.4397,-3.4397,-3.4397,-3.4397,-3.4397,-3.4397,-3.4397,-3.4397,-3.4397,-3.4397,-3.4397,-3.4397,-3.4397,-3.4397,-3.4397,-3.4397,-3.4397,-3.4397,-3.4397,-3.4397,-3.4397,-3.4397,-3.4397,-3.4397,-3.4397,-3.4397,-3.4397,-3.4397,-3.4397,-3.4397,-3.4397,-3.4397,-3.4397,-3.4397,-3.4397,-3.4397,-3.4397,-3.4397,-3.4397,-3.5277,-3.5858,-3.6058,-3.6679,-3.6783,-3.6322,-3.591,-3.521,-3.4277,-3.3407,-3.2778,-1.6077,-1.7832,-2.0069,-2.3424,-2.5119,-2.6226,-2.7212,-2.7546,-2.7849,-2.8282,-2.845,-2.851,-2.851,-2.851,-2.851,-2.851,-2.851,-2.851,-2.851,-2.851,-2.851,-2.851,-2.851,-2.851,-2.851,-2.8471,-2.8339,-2.8179,-2.795,-2.7708,-2.7441,-2.7301,-2.719,-2.719,-2.719,-2.719,-2.719,-2.719,-2.719,-2.719,-2.719,-2.719,-2.719,-2.719,-2.719,-2.719,-2.719,-2.719,-2.719,-2.719,-2.7272,-2.747,-2.8549,-2.9415,-3.035,-3.182,-3.289,-3.3652,-3.411,-3.4319,-3.4397,-3.4397,-3.4397,-3.4397,-3.4397,-3.4397,-3.4397,-3.4397,-3.4397,-3.4397,-3.4397,-3.4397,-3.4397,-3.4397,-3.4397,-3.4397,-3.4397,-3.4397,-3.4397,-3.4397,-3.4397,-3.4397,-3.4397,-3.4397,-3.4397,-3.4397,-3.4397,-3.4397,-3.4397,-3.4397,-3.4397,-3.4397,-3.4397,-3.4397,-3.4397,-3.4397,-3.4397,-3.4397,-3.4397,-3.4397,-3.4397,-3.4867,-3.5277,-3.5669,-3.6468,-3.6915,-3.6978,-3.6282,-3.587,-3.5655,-3.4152,-3.3322,-1.561,-1.8096,-2.0851,-2.2714,-2.4302,-2.5576,-2.6178,-2.7043,-2.7702,-2.7774,-2.8198,-2.851,-2.851,-2.851,-2.851,-2.851,-2.851,-2.851,-2.851,-2.851,-2.851,-2.851,-2.851,-2.851,-2.851,-2.8339,-2.8139,-2.7962,-2.7696,-2.7452,-2.726,-2.7231,-2.719,-2.719,-2.719,-2.719,-2.719,-2.719,-2.719,-2.719,-2.719,-2.719,-2.719,-2.719,-2.719,-2.719,-2.719,-2.719,-2.719,-2.719,-2.7545,-2.8139,-2.8812,-2.9764,-3.0887,-3.1603,-3.2632,-3.36,-3.3679,-3.4005,-3.4397,-3.4397,-3.4397,-3.4397,-3.4397,-3.4397,-3.4397,-3.4397,-3.4397,-3.4397,-3.4397,-3.4397,-3.4397,-3.4397,-3.4397,-3.4397,-3.4397,-3.4397,-3.4397,-3.4397,-3.4397,-3.4397,-3.4397,-3.4397,-3.4397,-3.4397,-3.4397,-3.4397,-3.4397,-3.4397,-3.4397,-3.4397,-3.4397,-3.4397,-3.4397,-3.4397,-3.4397,-3.4397,-3.4397,-3.4397,-3.4397,-3.4867,-3.5277,-3.5669,-3.6218,-3.6654,-3.6978,-3.6861,-3.6455,-3.5709,-3.5454,-3.4498,-1.6546,-1.8843,-2.0983,-2.2614,-2.3929,-2.5011,-2.554,-2.625,-2.6899,-2.7174,-2.7426,-2.7774,-2.8402,-2.851,-2.851,-2.851,-2.851,-2.851,-2.851,-2.851,-2.851,-2.851,-2.851,-2.851,-2.851,-2.8299,-2.8099,-2.7921,-2.7655,-2.7412,-2.7231,-2.719,-2.719,-2.719,-2.719,-2.719,-2.719,-2.719,-2.719,-2.719,-2.719,-2.719,-2.719,-2.719,-2.719,-2.719,-2.719,-2.719,-2.719,-2.719,-2.7586,-2.8259,-2.8858,-2.9633,-3.052,-3.1435,-3.2332,-3.313,-3.347,-3.3953,-3.4397,-3.4397,-3.4397,-3.4397,-3.4397,-3.4397,-3.4397,-3.4397,-3.4397,-3.4397,-3.4397,-3.4397,-3.4397,-3.4397,-3.4397,-3.4397,-3.4397,-3.4397,-3.4397,-3.4397,-3.4397,-3.4397,-3.4397,-3.4397,-3.4397,-3.4397,-3.4397,-3.4397,-3.4397,-3.4397,-3.4397,-3.4397,-3.4397,-3.4397,-3.4397,-3.4397,-3.4397,-3.4397,-3.4397,-3.4397,-3.4397,-3.4605,-3.5018,-3.5669,-3.6138,-3.6589,-3.6978,-3.6978,-3.6822,-3.6415,-3.591,-3.4992,-1.681,-1.847,-1.9868,-2.1891,-2.3051,-2.3965,-2.4903,-2.5516,-2.6057,-2.661,-2.6801,-2.7138,-2.7969,-2.8222,-2.8354,-2.8486,-2.851,-2.851,-2.851,-2.851,-2.851,-2.851,-2.8471,-2.8431,-2.8431,-2.8179,-2.7978,-2.7788,-2.7574,-2.7371,-2.7231,-2.719,-2.719,-2.719,-2.719,-2.719,-2.719,-2.719,-2.719,-2.719,-2.719,-2.719,-2.719,-2.719,-2.719,-2.719,-2.719,-2.719,-2.719,-2.719,-2.7696,-2.8474,-2.8937,-2.9561,-3.0369,-3.1266,-3.2071,-3.2751,-3.3208,-3.3809,-3.4397,-3.4397,-3.4397,-3.4397,-3.4397,-3.4397,-3.4397,-3.4397,-3.4397,-3.4397,-3.4397,-3.4397,-3.4397,-3.4397,-3.4397,-3.4397,-3.4397,-3.4397,-3.4397,-3.4397,-3.4397,-3.4397,-3.4397,-3.4397,-3.4397,-3.4397,-3.4397,-3.4397,-3.4397,-3.4397,-3.4397,-3.4397,-3.4397,-3.4397,-3.4397,-3.4397,-3.4397,-3.4397,-3.4397,-3.4397,-3.4397,-3.4522,-3.4936,-3.5669,-3.6138,-3.6589,-3.6978,-3.6978,-3.6978,-3.6978,-3.6322,-3.5534,-1.5346,-1.5994,-1.6799,-1.9953,-2.1169,-2.2089,-2.4097,-2.4975,-2.5492,-2.6033,-2.6562,-2.691,-2.697,-2.739,-2.7933,-2.8426,-2.851,-2.851,-2.851,-2.851,-2.851,-2.851,-2.8339,-2.8219,-2.8219,-2.7805,-2.7522,-2.7522,-2.733,-2.7231,-2.719,-2.719,-2.719,-2.719,-2.719,-2.719,-2.719,-2.719,-2.719,-2.719,-2.719,-2.719,-2.719,-2.719,-2.719,-2.719,-2.719,-2.719,-2.719,-2.719,-2.7926,-2.9042,-2.9081,-2.9871,-3.0949,-3.1026,-3.1744,-3.2685,-3.2725,-3.347,-3.4397,-3.4397,-3.4397,-3.4397,-3.4397,-3.4397,-3.4397,-3.4397,-3.4397,-3.4397,-3.4397,-3.4397,-3.4397,-3.4397,-3.4397,-3.4397,-3.4397,-3.4397,-3.4397,-3.4397,-3.4397,-3.4397,-3.4397,-3.4397,-3.4397,-3.4397,-3.4397,-3.4397,-3.4397,-3.4397,-3.4397,-3.4397,-3.4397,-3.4397,-3.4397,-3.4397,-3.4397,-3.4397,-3.4397,-3.4397,-3.4397,-3.4825,-3.5277,-3.5669,-3.6138,-3.6589,-3.6978,-3.6978,-3.6978,-3.6978,-3.694,-3.6441,-1.501,-1.6032,-1.7183,-1.8686,-2.0237,-2.1596,-2.2354,-2.3701,-2.482,-2.5047,-2.5516,-2.5997,-2.6334,-2.6813,-2.7246,-2.7426,-2.766,-2.7797,-2.7797,-2.7977,-2.8122,-2.8122,-2.8042,-2.8002,-2.8002,-2.7696,-2.7522,-2.7522,-2.7301,-2.719,-2.719,-2.719,-2.719,-2.719,-2.719,-2.719,-2.719,-2.719,-2.719,-2.719,-2.719,-2.719,-2.719,-2.719,-2.719,-2.719,-2.719,-2.719,-2.719,-2.719,-2.7966,-2.9081,-2.9081,-2.9883,-3.0986,-3.0986,-3.1483,-3.2163,-3.2568,-3.3208,-3.394,-3.428,-3.4397,-3.4397,-3.4397,-3.4397,-3.4397,-3.4397,-3.4397,-3.4397,-3.4397,-3.4397,-3.4397,-3.4397,-3.4397,-3.4397,-3.4397,-3.4397,-3.4397,-3.4397,-3.4397,-3.4397,-3.4397,-3.4397,-3.4397,-3.4397,-3.4397,-3.4397,-3.4397,-3.4397,-3.4397,-3.4397,-3.4397,-3.4397,-3.4397,-3.4397,-3.4397,-3.4397,-3.4397,-3.4397,-3.4397,-3.4867,-3.5277,-3.5669,-3.6138,-3.6589,-3.6978,-3.6978,-3.6978,-3.6978,-3.6978,-3.6533,-1.4418,-1.5416,-1.6654,-1.7893,-1.9011,-2.0129,-2.138,-2.2606,-2.3628,-2.4157,-2.4687,-2.5204,-2.5733,-2.6129,-2.6465,-2.6837,-2.7033,-2.7133,-2.7133,-2.74,-2.7611,-2.7611,-2.7723,-2.7748,-2.7748,-2.7534,-2.7412,-2.7412,-2.726,0.0,-2.719,-2.719,-2.719,-2.719,-2.719,-2.719,-2.719,-2.719,-2.719,-2.719,-2.719,-2.719,-2.719,-2.719,-2.719,-2.719,-2.719,-2.719,-2.7231,-2.7423,-2.8167,-2.9121,-2.9316,-3.0075,-3.0986,-3.0986,-3.1352,-3.1889,-3.2489,-3.3091,-3.3679,-3.4228,-3.4397,-3.4397,-3.4397,-3.4397,-3.4397,-3.4397,-3.4397,-3.4397,-3.4397,-3.4397,-3.4397,-3.4397,-3.4397,-3.4397,-3.4397,-3.4397,-3.4397,-3.4397,-3.4397,-3.4397,-3.4397,-3.4397,-3.4397,-3.4397,-3.4397,-3.4397,-3.4397,-3.4397,-3.4397,-3.4397,-3.4397,-3.4397,-3.4397,-3.4397,-3.4481,-3.4618,-3.4605,-3.4688,-3.4853,-3.5277,-3.5656,-3.5924,-3.6377,-3.6733,-3.6978,-3.6978,-3.6978,-3.6978,-3.6978,-3.6691,0.0,0.0,0.0,-1.7448,-1.7364,-1.7567,-2.1211,-2.168,-2.1801,-2.3408,-2.4097,-2.4614,-2.5155,-2.5276,-2.5636,-2.6657,-2.6699,-2.6598,-2.6598,-2.6845,-2.7085,-2.7085,-2.7305,-2.7458,-2.7458,-2.733,-2.719,-2.719,-2.719,-2.719,-2.719,-2.719,-2.719,-2.719,-2.719,-2.719,-2.719,-2.719,-2.719,-2.719,-2.719,-2.719,-2.719,-2.719,-2.719,-2.719,-2.7231,-2.7231,-2.7272,-2.7938,-2.8554,-2.9199,-2.9755,-3.0394,-3.0986,-3.0986,-3.1339,-3.1863,-3.2489,-3.3077,-3.3652,-3.4214,-3.4397,-3.4397,-3.4397,-3.4397,-3.4397,-3.4397,-3.4397,-3.4397,-3.4397,-3.4397,-3.4397,-3.4397,-3.4397,-3.4397,-3.4397,-3.4397,-3.4397,-3.4397,-3.4397,-3.4397,-3.4397,-3.4397,-3.4397,-3.4397,-3.4397,-3.4397,-3.4397,-3.4397,-3.4397,-3.4397,-3.4397,-3.4397,-3.4397,-3.4397,-3.4605,-3.5086,-3.5086,-3.5277,-3.5669,-3.6138,-3.6405,-3.6405,-3.6811,-3.6978,-3.6978,-3.6978,-3.6978,-3.6978,-3.6978,-3.6978,-1.4091,0.0,0.0,0.0,0.0,0.0,-1.7988,-1.9239,-2.0574,-2.1813,-2.2474,-2.3111,-2.4025,-2.4494,-2.4831,-2.5108,-2.566,-2.6014,-2.6014,-2.6162,-2.631,-2.631,-2.6595,-2.6788,-2.6788,-2.7042,-2.719,0.0,-2.719,-2.719,-2.719,-2.719,-2.719,-2.719,-2.719,-2.719,-2.719,-2.719,-2.719,-2.719,-2.719,-2.719,-2.719,-2.719,-2.719,-2.7231,-2.7696,-2.7938,-2.7938,-2.8139,-2.8791,-2.9755,-2.9922,-3.0394,-3.0986,-3.0986,-3.1091,-3.1365,-3.2346,-3.2803,-3.3104,-3.4084,-3.4397,-3.4397,-3.4397,-3.4397,-3.4397,-3.4397,-3.4397,-3.4397,-3.4397,-3.4397,-3.4397,-3.4397,-3.4397,-3.4397,-3.4397,-3.4397,-3.4397,-3.4397,-3.4397,-3.4397,-3.4397,-3.4397,-3.4397,-3.4397,-3.4397,-3.4397,-3.4397,-3.4397,-3.4397,-3.4397,-3.4397,-3.4397,-3.4397,-3.4397,-3.4605,-3.5086,-3.5086,-3.5277,-3.5669,-3.6138,-3.6405,-3.6405,-3.6811,-3.6978,-3.6978,-3.6978,-3.6978,-3.6978,-3.6978,-3.6978,-1.441,-1.4862,-1.542,-1.5283,0.0,0.0,-1.7436,-1.8229,-1.9227,-2.0754,-2.132,-2.1921,-2.324,-2.3676,-2.392,-2.4068,-2.4706,-2.5218,-2.5347,-2.5485,-2.5535,-2.5535,-2.5919,-2.6152,-2.6152,-2.6416,-2.6548,-2.6548,-2.6795,-2.7001,-2.7179,-2.719,-2.719,-2.719,-2.719,-2.719,-2.719,-2.719,-2.719,-2.719,-2.719,-2.719,-2.719,-2.719,-2.7342,-2.7626,-2.8018,-2.8486,-2.8949,-2.8949,-2.938,-3.0037,-3.0317,-3.0672,-3.0986,-3.0986,-3.0986,-3.1143,-3.2293,-3.2685,-3.2881,-3.4031,-3.4397,-3.4397,-3.4397,-3.4397,-3.4397,-3.4397,-3.4397,-3.4397,-3.4397,-3.4397,-3.4397,-3.4397,-3.4397,-3.4439,-3.466,-3.4688,-3.4605,-3.4439,-3.4397,-3.4397,-3.4397,-3.4397,-3.4397,-3.4397,-3.4397,-3.4397,-3.4397,-3.4564,-3.4688,-3.4688,-3.4853,-3.4936,-3.4936,-3.4936,-3.5141,-3.5616,-3.5656,-3.5804,-3.623,-3.6482,-3.6654,-3.6654,-3.6875,-3.6978,-3.6978,-3.6978,-3.6978,-3.6978,-3.6978,-3.6978,-1.4871,-1.4947,-1.5468,-1.6307,-1.5924,0.0,-1.8073,-1.7928,-1.7928,-1.9837,-2.0205,-2.0672,-2.2226,-2.2599,-2.2783,-2.3016,-2.3603,-2.4234,-2.4661,-2.479,-2.488,-2.488,-2.5302,-2.5624,-2.5624,-2.5681,-2.5716,-2.5716,-2.6129,-2.6577,-2.6995,-2.7075,-2.711,-2.711,-2.7156,-2.719,-2.719,-2.719,-2.719,-2.719,-2.719,-2.719,-2.719,-2.719,-2.7586,-2.8219,-2.8247,-2.8949,-2.9999,-3.0075,-3.0114,-3.0152,-3.0748,-3.0986,-3.0986,-3.0986,-3.0986,-3.1143,-3.2228,-3.2633,-3.2868,-3.3953,-3.4345,-3.4397,-3.4397,-3.4397,-3.4397,-3.4397,-3.4397,-3.4397,-3.4397,-3.4397,-3.4397,-3.4481,-3.4481,-3.4605,-3.5072,-3.5154,-3.5031,-3.4605,-3.4522,-3.4522,-3.4481,-3.4522,-3.4522,-3.4522,-3.4522,-3.4522,-3.4522,-3.4908,-3.5154,-3.5154,-3.548,-3.571,-3.571,-3.571,-3.5884,-3.6365,-3.6405,-3.6589,-3.6978,-3.6978,-3.6978,-3.6978,-3.6978,-3.6978,-3.6978,-3.6978,-3.6978,-3.6978,-3.6978,-3.6978,-1.6738,-1.6847,-1.6775,-1.6126,-1.6775,0.0,-1.6044,-1.6549,-1.7361,-1.7778,-1.7821,-1.8126,-1.925,-2.0179,-2.0641,-2.0263,-2.1561,-2.2985,-2.4002,-2.4411,-2.4593,-2.4593,-2.4849,-2.5073,-2.5073,-2.5463,-2.5716,-2.5716,-2.5807,-2.5911,-2.6003,-2.6393,-2.6651,-2.6651,-2.7013,-2.719,-2.719,-2.719,-2.719,-2.719,-2.719,-2.719,-2.719,-2.719,-2.7586,-2.8219,-2.87,-2.9328,-3.0037,-3.0583,-3.0785,-3.0823,-3.0949,-3.0986,-3.0986,-3.0986,-3.0986,-3.1078,-3.1771,-3.2306,-3.2816,-3.3522,-3.4045,-3.4397,-3.4397,-3.4397,-3.4397,-3.4397,-3.4397,-3.4397,-3.4397,-3.4397,-3.4481,-3.4867,-3.4949,-3.5072,-3.5467,-3.5602,-3.5562,-3.5467,-3.5467,-3.5345,-3.5031,-3.5236,-3.5467,-3.5467,-3.5467,-3.5467,-3.5467,-3.5521,-3.5602,-3.5602,-3.5642,-3.571,-3.571,-3.571,-3.5884,-3.6365,-3.6405,-3.6589,-3.6978,-3.6978,-3.6978,-3.6978,-3.6978,-3.6978,-3.6978,-3.6978,-3.6978,-3.6978,-3.6978,-3.6978,-1.7063,-1.6991,-1.6991,-1.6991,0.0,0.0,0.0,-1.6478,-1.6598,-1.7442,-1.7118,-1.708,-1.8378,-1.8838,-1.9097,-1.9272,-2.0292,-2.1237,-2.178,-2.2842,-2.3583,-2.3583,-2.372,-2.3902,-2.4118,-2.4393,-2.4748,-2.5279,-2.5314,-2.5429,-2.5704,-2.5957,-2.6198,-2.6501,-2.6714,-2.6967,-2.719,-2.719,-2.719,-2.719,-2.719,-2.719,-2.719,-2.719,-2.7736,-2.8673,-2.8976,-2.9639,-3.0508,-3.0861,-3.0986,-3.0986,-3.0986,-3.0986,-3.0986,-3.0986,-3.0986,-3.1065,-3.1602,-3.2215,-3.279,-3.3391,-3.3953,-3.4397,-3.4397,-3.4397,-3.4397,-3.4397,-3.4397,-3.4397,-3.4397,-3.4564,-3.4825,-3.5031,-3.5236,-3.5521,-3.5978,-3.6058,-3.6058,-3.6058,-3.6204,-3.6151,-3.5521,-3.5562,-3.571,-3.571,-3.571,-3.571,-3.571,-3.5884,-3.6058,-3.6058,-3.6244,-3.635,-3.635,-3.635,-3.6443,-3.6693,-3.6693,-3.6811,-3.6978,-3.6978,-3.6978,-3.6978,-3.6978,-3.6978,-3.6978,-3.6978,-3.6978,-3.6978,-3.6978,-3.6978,-1.7603,-1.7447,-1.7627,-1.806,0.0,-1.7265,0.0,0.0,0.0,-1.7248,-1.6727,-1.6455,-1.7686,-1.77,-1.7721,-1.8301,-1.8995,-1.9339,-1.9143,-2.0664,-2.1916,-2.2214,-2.2409,-2.2696,-2.3075,-2.3029,-2.3419,-2.4545,-2.4441,-2.4659,-2.5383,-2.5509,-2.575,-2.6191,-2.6398,-2.6668,-2.7082,-2.7133,-2.719,-2.719,-2.719,-2.719,-2.719,-2.7342,-2.8007,-2.9121,-2.9238,-2.9922,-3.0986,-3.0986,-3.0986,-3.0986,-3.0986,-3.0986,-3.0986,-3.0986,-3.0986,-3.1052,-3.1522,-3.2045,-3.2633,-3.3221,-3.3862,-3.4397,-3.4397,-3.4397,-3.4397,-3.4397,-3.4397,-3.4397,-3.4397,-3.4743,-3.5127,-3.5195,-3.5521,-3.5965,-3.6431,-3.651,-3.651,-3.651,-3.6772,-3.6744,-3.5965,-3.5924,-3.5951,-3.5951,-3.5951,-3.5951,-3.5951,-3.6298,-3.651,-3.651,-3.6811,-3.6978,-3.6978,-3.6978,-3.6978,-3.6978,-3.6978,-3.6978,-3.6978,-3.6978,-3.6978,-3.6978,-3.6978,-3.6978,-3.6978,-3.6978,-3.6978,-3.6978,-3.6978,-3.6978,0.0,0.0,0.0,0.0,-1.9006,0.0,0.0,0.0,-1.6523,-1.5765,0.0,-1.5291,-1.5464,0.0,0.0,-1.5625,-1.6765,-1.7511,-1.7011,-1.7917,-1.9132,-2.0504,-2.1468,-2.2009,-2.2066,-2.1686,-2.203,-2.3465,-2.2742,-2.2846,-2.4292,-2.4774,-2.5027,-2.5084,-2.598,-2.6536,-2.6593,-2.7001,-2.719,-2.719,-2.719,-2.719,-2.7231,-2.7829,-2.8474,-2.9121,-2.9678,-3.0317,-3.0986,-3.0986,-3.0986,-3.0986,-3.0986,-3.0986,-3.0986,-3.0986,-3.0986,-3.0999,-3.1065,-3.1457,-3.1993,-3.2607,-3.3522,-3.4397,-3.4397,-3.4397,-3.4397,-3.4397,-3.4397,-3.4397,-3.4397,-3.4743,-3.5195,-3.5562,-3.5978,-3.6431,-3.6836,-3.6915,-3.6915,-3.6915,-3.6993,-3.6875,-3.6391,-3.6615,-3.6861,-3.6861,-3.6861,-3.6861,-3.6861,-3.6915,-3.6915,-3.6915,-3.6978,-3.6978,-3.6978,-3.6978,-3.6978,-3.6978,-3.6978,-3.6978,-3.6978,-3.6978,-3.6978,-3.6978,-3.6978,-3.6978,-3.6978,-3.6978,-3.6978,-3.6978,-3.6978,-3.6978,0.0,0.0,0.0,0.0,0.0,0.0,-1.6869,0.0,-1.5834,0.0,0.0,0.0,0.0,0.0,0.0,0.0,-1.6107,-1.6451,-1.6244,-1.6793,-1.7687,-1.8914,0.0,0.0,-2.0931,-2.1112,-2.1581,-2.2456,-2.1893,-2.2019,-2.3247,-2.3787,-2.429,-2.49,-2.5635,-2.6175,-2.6501,-2.6978,-2.719,-2.719,-2.7574,-2.7788,-2.7777,-2.8435,-2.9055,-2.9639,-2.9883,-3.0394,-3.0986,-3.0986,-3.0986,-3.0986,-3.0986,-3.0986,-3.0986,-3.0986,-3.0986,-3.0986,-3.0986,-3.1365,-3.1954,-3.2921,-3.3757,-3.4397,-3.4397,-3.4397,-3.4397,-3.4397,-3.4397,-3.4397,-3.4397,-3.4743,-3.5195,-3.5602,-3.6058,-3.651,-3.6915,-3.6978,-3.6978,-3.6978,-3.6978,-3.6954,-3.6772,-3.6875,-3.6978,-3.6978,-3.6978,-3.6978,-3.6978,-3.6978,-3.6978,-3.6978,-3.6978,-3.6978,-3.6978,-3.6978,-3.6978,-3.6978,-3.6978,-3.6978,-3.6978,-3.6978,-3.6978,-3.6978,-3.6978,-3.6978,-3.6978,-3.6978,-3.6978,-3.6978,-3.6978,-3.6978,-2.0423,0.0,0.0,0.0,0.0,0.0,0.0,0.0,0.0,0.0,0.0,0.0,0.0,0.0,0.0,0.0,0.0,-1.5854,-1.5705,-1.5968,-1.6507,-1.7389,0.0,0.0,0.0,-1.9861,-2.0308,-2.1238,-2.071,-2.0963,-2.2398,-2.296,-2.3591,-2.4439,-2.5115,-2.5739,-2.6295,-2.676,-2.7093,-2.7231,-2.7857,-2.8219,-2.8219,-2.9015,-2.96,-2.9999,-3.019,-3.0545,-3.0986,-3.0986,-3.0986,-3.0986,-3.0986,-3.0986,-3.0986,-3.0986,-3.0986,-3.0986,-3.0986,-3.147,-3.2176,-3.3077,-3.3822,-3.4397,-3.4397,-3.4397,-3.4397,-3.4397,-3.4397,-3.4439,-3.4564,-3.4949,-3.5358,-3.5804,-3.6258,-3.6654,-3.6954,-3.6978,-3.6978,-3.6978,-3.6978,-3.6978,-3.6978,-3.6978,-3.6978,-3.6978,-3.6978,-3.6978,-3.6978,-3.6978,-3.6978,-3.6978,-3.6978,-3.6978,-3.6978,-3.6978,-3.6978,-3.6978,-3.6978,-3.6978,-3.6978,-3.6978,-3.6978,-3.6978,-3.6978,-3.6978,-3.6978,-3.6978,-3.6978,-3.6978,-3.6978,-3.6978,0.0,0.0,0.0,-1.9247,0.0,0.0,0.0,0.0,-1.7062,0.0,0.0,0.0,0.0,0.0,0.0,0.0,0.0,0.0,0.0,-1.5142,-1.536,-1.5888,-1.6818,-1.7611,0.0,-1.732,-1.7573,0.0,-1.8788,-1.9292,-2.178,-2.2432,-2.2949,-2.3442,-2.4393,-2.5199,-2.5727,-2.6283,-2.6737,-2.7231,-2.7857,-2.8219,-2.8259,-2.9419,-2.9999,-3.0037,-3.071,-3.0986,-3.0986,-3.0986,-3.0986,-3.0986,-3.0986,-3.0986,-3.0986,-3.0986,-3.0986,-3.0986,-3.0986,-3.1718,-3.2672,-3.2712,-3.3483,-3.4397,-3.4397,-3.4397,-3.4397,-3.4397,-3.4397,-3.4481,-3.4949,-3.5399,-3.5804,-3.6272,-3.6693,-3.6978,-3.6978,-3.6978,-3.6978,-3.6978,-3.6978,-3.6978,-3.6978,-3.6978,-3.6978,-3.6978,-3.6978,-3.6978,-3.6978,-3.6978,-3.6978,-3.6978,-3.6978,-3.6978,-3.6978,-3.6978,-3.6978,-3.6978,-3.6978,-3.6978,-3.6978,-3.6978,-3.6978,-3.6978,-3.6978,-3.6978,-3.6978,-3.6978,-3.6978,-3.6978,-3.6978,-3.6978,0.0,0.0,-2.4178,-2.1198,0.0,0.0,0.0,0.0,0.0,0.0,0.0,0.0,0.0,0.0,0.0,0.0,0.0,0.0,0.0,-1.4327,-1.4419,-1.528,-1.6267,-1.6919,-1.7091,0.0,-1.7171,-1.8536,-1.8318,-1.8925,-2.0825,-2.2042,-2.2914,-2.3396,-2.4359,-2.5164,-2.5704,-2.6249,-2.6726,-2.7231,-2.8275,-2.8779,-2.8819,-3.0075,-3.0672,-3.0672,-3.0911,-3.0986,-3.0986,-3.0986,-3.0986,-3.0986,-3.0986,-3.0986,-3.0986,-3.0986,-3.0986,-3.0986,-3.0986,-3.1483,-3.215,-3.2568,-3.3221,-3.3927,-3.4293,-3.4397,-3.4397,-3.4397,-3.4397,-3.4439,-3.4605,-3.499,-3.5399,-3.5844,-3.6298,-3.6693,-3.6954,-3.6978,-3.6978,-3.6978,-3.6978,-3.6978,-3.6978,-3.6978,-3.6978,-3.6978,-3.6978,-3.6978,-3.6978,-3.6978,-3.6978,-3.6978,-3.6978,-3.6978,-3.6978,-3.6978,-3.6978,-3.6978,-3.6978,-3.6978,-3.6978,-3.7372,-3.7597,-3.7597,-3.8018,-3.8058,-3.7597,-3.7597,-3.7386,-3.6978,-3.6978,-3.6978,-2.4542,-2.4916,0.0,-2.2515,-2.1661,0.0,-1.8039,0.0,-1.8407,0.0,0.0,0.0,0.0,0.0,0.0,0.0,0.0,0.0,0.0,-1.435,-1.4373,-1.5028,-1.5509,-1.5969,-1.6313,-1.6038,-1.63,-1.7492,-1.7412,-1.8054,0.0,-2.1339,-2.2455,-2.3121,-2.4143,-2.4992,-2.5704,-2.6037,-2.6662,-2.7586,-2.8621,-2.9199,-2.9445,-3.0508,-3.0986,-3.0986,-3.0986,-3.0986,-3.0986,-3.0986,-3.0986,-3.0986,-3.0986,-3.0986,-3.0986,-3.0986,-3.0986,-3.0986,-3.0986,-3.1496,-3.2163,-3.2568,-3.3234,-3.394,-3.4293,-3.4397,-3.4397,-3.4397,-3.4522,-3.466,-3.466,-3.5113,-3.5616,-3.5898,-3.6298,-3.6693,-3.6954,-3.6978,-3.6978,-3.6978,-3.6978,-3.6978,-3.6978,-3.6978,-3.6978,-3.6978,-3.6978,-3.6978,-3.6978,-3.6978,-3.6978,-3.6978,-3.6978,-3.6978,-3.6978,-3.6978,-3.6978,-3.6978,-3.7189,-3.7316,-3.7316,-3.7906,-3.8243,-3.8243,-3.8691,-3.8705,-3.8243,-3.8243,-3.8046,-3.7692,-3.7414,-3.7316]},{"header":{"parameterUnit":"m.s-1","parameterCategory":1,"la1":30.6,"la2":29.2853,"lo1":-89.7004,"lo2":-87.6739,"dy":0.0162,"dx":0.0183,"nx":112,"ny":82,"refTime":"2026-03-12T00:00:00:Z","depth":0,"parameterNumber":3,"parameterNumberName":"V-component_of_WINDS"},"data":[0.0,0.0,0.0,0.0,0.0,0.0,0.0,0.0,0.0,0.0,0.0,0.0,0.0,0.0,0.0,0.0,0.0,0.0,0.0,0.0,0.0,0.0,0.0,0.0,0.0,0.0,0.0,0.0,0.0,0.0,0.0,0.0,0.0,0.0,0.0,0.0,0.0,0.0,0.0,0.0,0.0,0.0,0.0,0.0,0.0,0.0,0.0,0.0,0.0,0.0,0.0,0.0,0.0,0.0,0.0,0.0,0.0,0.0,0.0,0.0,0.0,0.0,0.0,0.0,0.0,0.0,0.0,0.0,0.0,0.0,0.0,0.0,0.0,0.0,0.0,0.0,0.0,0.0,0.0,0.0,0.0,0.0,0.0,0.0,0.0,0.0,0.0,0.0,0.0,0.0,1.3418,1.4344,1.569,1.6654,1.6965,1.6803,1.6261,1.5129,0.0,0.0,0.0,0.0,0.0,0.0,0.0,0.0,0.0,0.0,0.0,0.0,0.0,0.0,0.0,0.0,0.0,0.0,0.0,0.0,0.0,0.0,0.0,0.0,0.0,0.0,0.0,0.0,0.0,0.0,0.0,0.0,0.0,0.0,0.0,0.0,0.0,0.0,0.0,0.0,0.0,0.0,0.0,0.0,0.0,0.0,0.0,0.0,0.0,0.0,0.0,0.0,0.0,0.0,0.0,0.0,0.0,0.0,0.0,0.0,0.0,0.0,0.0,0.0,0.0,0.0,0.0,0.0,0.0,0.0,0.0,0.0,0.0,0.0,0.0,0.0,0.0,0.0,0.0,0.0,0.0,0.0,0.0,0.0,0.0,0.0,0.0,0.0,0.0,0.0,0.0,0.0,0.0,0.0,0.0,0.0,0.0,0.0,0.0,0.0,0.0,0.0,0.0,0.0,1.3568,1.6559,1.6982,1.7289,1.777,1.8031,1.7379,1.5459,0.0,0.0,0.0,0.0,0.0,0.0,0.0,0.0,0.0,0.0,0.0,0.0,0.0,0.0,0.0,0.0,0.0,0.0,0.0,0.0,0.0,0.0,0.0,0.0,0.0,0.0,0.0,0.0,0.0,0.0,0.0,0.0,0.0,0.0,0.0,0.0,0.0,0.0,0.0,0.0,0.0,0.0,0.0,0.0,0.0,0.0,0.0,0.0,0.0,0.0,0.0,0.0,0.0,0.0,0.0,0.0,0.0,0.0,0.0,0.0,0.0,0.0,0.0,0.0,0.0,0.0,0.0,0.0,0.0,0.0,0.0,0.0,0.0,0.0,0.0,0.0,0.0,0.0,0.0,0.0,0.0,0.0,0.0,0.0,0.0,0.0,0.0,0.0,0.0,0.0,0.0,0.0,0.0,0.0,0.0,0.0,0.0,0.0,0.0,0.0,0.0,0.0,0.0,1.3223,1.4664,1.7146,1.7534,1.7847,1.8347,1.8208,1.7626,1.6451,1.4125,0.0,0.0,0.0,0.0,0.0,0.0,0.0,0.0,0.0,0.0,0.0,0.0,0.0,0.0,0.0,0.0,0.0,0.0,0.0,0.0,0.0,0.0,0.0,0.0,0.0,0.0,0.0,0.0,0.0,0.0,0.0,0.0,0.0,0.0,0.0,0.0,0.0,0.0,0.0,0.0,0.0,0.0,0.0,0.0,0.0,0.0,0.0,0.0,0.0,0.0,0.0,0.0,0.0,0.0,0.0,0.0,0.0,0.0,0.0,0.0,0.0,0.0,0.0,0.0,0.0,0.0,0.0,0.0,0.0,0.0,0.0,0.0,0.0,0.0,0.0,0.0,0.0,0.0,0.0,0.0,0.0,0.0,0.0,0.0,0.0,0.0,0.0,0.0,0.0,0.0,0.0,0.0,0.0,0.0,0.0,0.0,0.0,0.0,0.0,0.0,0.0,0.0,1.5085,1.609,1.7616,1.8146,1.8573,1.9047,1.8487,1.7847,1.7236,1.431,0.0,0.0,0.0,0.0,0.0,0.0,0.0,0.0,0.0,0.0,0.0,0.0,0.0,0.0,0.0,0.0,0.0,0.0,0.0,0.0,0.0,0.0,0.0,0.0,0.0,0.0,0.0,0.0,0.0,0.0,0.0,0.0,0.0,0.0,0.0,0.0,0.0,0.0,0.0,0.0,0.0,0.0,0.0,0.0,0.0,0.0,0.0,0.0,0.0,0.0,0.0,0.0,0.0,0.0,0.0,0.0,0.0,0.0,0.0,0.0,0.0,0.0,0.0,0.0,0.0,0.0,0.0,0.0,0.0,0.0,0.0,0.0,0.0,0.0,0.0,0.0,0.0,0.0,0.0,0.0,0.0,0.0,0.0,0.0,0.0,0.0,0.0,0.0,0.0,0.0,0.0,0.0,0.0,0.0,0.0,0.0,0.0,0.0,0.0,0.0,0.0,0.0,1.5605,1.7664,1.878,1.9262,1.9683,2.0145,1.9458,1.8476,1.727,1.4182,0.0,0.0,0.0,0.0,0.0,0.0,0.0,0.0,0.0,0.0,0.0,0.0,0.0,0.0,0.0,0.0,0.0,0.0,0.0,0.0,0.0,0.0,0.0,0.0,0.0,0.0,0.0,0.0,0.0,0.0,0.0,0.0,0.0,0.0,0.0,0.0,0.0,0.0,0.0,0.0,0.0,0.0,0.0,0.0,0.0,0.0,0.0,0.0,0.0,0.0,0.0,0.0,0.0,0.0,0.0,0.0,0.0,0.0,0.0,0.0,0.0,0.0,0.0,0.0,0.0,0.0,0.0,0.0,0.0,0.0,0.0,0.0,0.0,0.0,0.0,0.0,0.0,0.0,0.0,0.0,0.0,0.0,0.0,0.0,0.0,0.0,0.0,0.0,0.0,0.0,0.0,0.0,0.0,0.0,0.0,0.0,0.0,0.0,0.0,0.0,0.0,0.0,1.5322,1.7397,1.8852,1.9659,2.0147,2.0286,1.9938,1.8825,1.6721,0.0,0.0,0.0,0.0,0.0,0.0,0.0,0.0,0.0,0.0,0.0,0.0,0.0,0.0,0.0,0.0,0.0,0.0,0.0,0.0,0.0,0.0,0.0,0.0,0.0,0.0,0.0,0.0,0.0,0.0,0.0,0.0,0.0,0.0,0.0,0.0,0.0,0.0,0.0,0.0,0.0,0.0,0.0,0.0,0.0,0.0,0.0,0.0,0.0,0.0,0.0,0.0,0.0,0.0,0.0,0.0,0.0,0.0,0.0,0.0,0.0,0.0,0.0,0.0,0.0,0.0,0.0,0.0,0.0,0.0,0.0,0.0,0.0,0.0,0.0,0.0,0.0,0.0,0.0,0.0,0.0,0.0,0.0,0.0,0.0,0.0,0.0,0.0,0.0,0.0,0.0,0.0,0.0,0.0,0.0,0.0,0.0,0.0,0.0,0.0,0.0,0.0,1.3035,1.5447,1.7594,1.9078,2.0113,2.0667,2.0528,2.0269,1.8985,1.6372,0.0,0.0,0.0,0.0,0.0,0.0,0.0,0.0,0.0,0.0,0.0,0.0,0.0,0.0,0.0,0.0,0.0,0.0,0.0,0.0,0.0,0.0,0.0,0.0,0.0,0.0,0.0,0.0,0.0,0.0,0.0,0.0,0.0,0.0,0.0,0.0,0.0,0.0,0.0,0.0,0.0,0.0,0.0,0.0,0.0,0.0,0.0,0.0,0.0,0.0,0.0,0.0,0.0,0.0,0.0,0.0,0.0,0.0,0.0,0.0,0.0,0.0,0.0,0.0,0.0,0.0,0.0,0.0,0.0,0.0,0.0,0.0,0.0,0.0,0.0,0.0,0.0,0.0,0.0,0.0,0.0,0.0,0.0,0.0,0.0,0.0,0.0,0.0,0.0,0.0,0.0,0.0,0.0,0.0,0.0,0.0,0.0,0.0,0.0,0.0,0.0,0.0,1.3165,1.6137,1.8577,1.9605,2.0733,2.1278,2.1007,2.0451,1.8985,0.0,0.0,0.0,0.0,0.0,0.0,0.0,0.0,0.0,0.0,0.0,0.0,0.0,0.0,0.0,0.0,0.0,0.0,0.0,0.0,0.0,0.0,0.0,0.0,0.0,0.0,0.0,0.0,0.0,0.0,0.0,0.0,0.0,0.0,0.0,0.0,0.0,0.0,0.0,0.0,0.0,0.0,0.0,0.0,0.0,0.0,0.0,0.0,0.0,0.0,0.0,0.0,0.0,0.0,0.0,0.0,0.0,0.0,0.0,0.0,0.0,0.0,0.0,0.0,0.0,0.0,0.0,0.0,0.0,0.0,0.0,0.0,0.0,0.0,0.0,0.0,0.0,0.0,0.0,0.0,0.0,0.0,0.0,0.0,0.0,0.0,0.0,0.0,0.0,0.0,0.0,0.0,0.0,0.0,0.0,0.0,0.0,0.0,0.0,0.0,0.0,0.0,0.0,1.4758,1.6859,1.8882,2.0626,2.1166,2.1338,2.1168,2.0974,1.937,1.5855,0.0,0.0,0.0,0.0,0.0,0.0,0.0,0.0,0.0,0.0,0.0,0.0,0.0,0.0,0.0,0.0,0.0,0.0,0.0,0.0,0.0,0.0,0.0,0.0,0.0,0.0,0.0,0.0,0.0,0.0,0.0,0.0,0.0,0.0,0.0,0.0,0.0,0.0,0.0,0.0,0.0,0.0,0.0,0.0,0.0,0.0,0.0,0.0,0.0,0.0,0.0,0.0,0.0,0.0,0.0,0.0,0.0,0.0,0.0,0.0,0.0,0.0,0.0,0.0,0.0,0.0,0.0,0.0,0.0,0.0,0.0,0.0,0.0,0.0,0.0,0.0,0.0,0.0,0.0,0.0,0.0,0.0,0.0,0.0,0.0,0.0,0.0,0.0,0.0,0.0,0.0,0.0,0.0,0.0,0.0,0.0,0.0,0.0,0.0,0.0,0.0,0.0,1.5513,1.7579,1.9552,2.1278,2.1694,2.1696,2.1307,2.1287,1.9717,1.6065,0.0,0.0,0.0,0.0,0.0,0.0,0.0,0.0,0.0,0.0,0.0,0.0,0.0,0.0,0.0,0.0,0.0,0.0,0.0,0.0,0.0,0.0,0.0,0.0,0.0,0.0,0.0,0.0,0.0,0.0,0.0,0.0,0.0,0.0,0.0,0.0,0.0,0.0,0.0,0.0,0.0,0.0,0.0,0.0,0.0,0.0,0.0,0.0,0.0,0.0,0.0,0.0,0.0,0.0,0.0,0.0,0.0,0.0,0.0,0.0,0.0,0.0,0.0,0.0,0.0,0.0,0.0,0.0,0.0,0.0,0.0,0.0,0.0,0.0,0.0,0.0,0.0,0.0,0.0,0.0,0.0,0.0,0.0,0.0,0.0,0.0,0.0,0.0,0.0,0.0,0.0,0.0,0.0,0.0,0.0,0.0,0.0,0.0,0.0,0.0,0.0,0.0,1.587,1.8317,2.0404,2.1707,2.2237,2.2219,2.1559,2.1453,2.0066,1.688,0.0,0.0,0.0,0.0,0.0,0.0,0.0,0.0,0.0,0.0,0.0,0.0,0.0,0.0,0.0,0.0,0.0,0.0,0.0,0.0,0.0,0.0,0.0,0.0,0.0,0.0,0.0,0.0,0.0,0.0,0.0,0.0,0.0,0.0,0.0,0.0,0.0,0.0,0.0,0.0,0.0,0.0,0.0,0.0,0.0,0.0,0.0,0.0,0.0,0.0,0.0,0.0,0.0,0.0,0.0,0.0,0.0,0.0,0.0,0.0,1.6787,0.0,0.0,0.0,0.0,0.0,0.0,0.0,0.0,0.0,0.0,0.0,0.0,0.0,0.0,0.0,0.0,0.0,0.0,0.0,0.0,0.0,0.0,0.0,0.0,0.0,0.0,0.0,0.0,0.0,0.0,0.0,0.0,0.0,0.0,0.0,0.0,0.0,0.0,0.0,0.0,0.0,1.7777,1.9182,2.0681,2.2747,2.269,2.2437,2.2268,2.1776,2.0531,1.8282,1.6471,0.0,0.0,0.0,0.0,0.0,0.0,0.0,0.0,0.0,0.0,0.0,0.0,0.0,0.0,0.0,0.0,0.0,0.0,0.0,0.0,0.0,0.0,0.0,0.0,0.0,0.0,0.0,0.0,0.0,0.0,0.0,0.0,0.0,0.0,0.0,0.0,0.0,0.0,0.0,0.0,0.0,0.0,0.0,0.0,0.0,0.0,0.0,0.0,0.0,0.0,0.0,0.0,0.0,0.0,0.0,0.0,0.0,0.0,0.0,0.0,1.8412,0.0,0.0,0.0,0.0,0.0,0.0,0.0,0.0,0.0,0.0,0.0,0.0,0.0,0.0,0.0,0.0,0.0,0.0,0.0,0.0,0.0,0.0,0.0,0.0,0.0,0.0,0.0,0.0,0.0,0.0,0.0,0.0,0.0,0.0,0.0,0.0,0.0,0.0,0.0,0.0,1.8998,2.0217,2.1452,2.3244,2.3201,2.2893,2.2608,2.1988,2.0884,1.9218,1.7576,0.0,0.0,0.0,0.0,0.0,0.0,0.0,0.0,0.0,0.0,0.0,0.0,0.0,0.0,0.0,0.0,0.0,0.0,0.0,0.0,0.0,0.0,0.0,0.0,0.0,0.0,0.0,0.0,0.0,0.0,0.0,0.0,0.0,0.0,0.0,0.0,0.0,0.0,0.0,0.0,0.0,0.0,0.0,0.0,0.0,0.0,0.0,0.0,0.0,0.0,0.0,0.0,0.0,2.4358,2.5061,2.6138,2.6267,2.6411,2.6366,2.3794,2.2506,2.2099,2.0881,0.0,0.0,0.0,0.0,0.0,0.0,0.0,0.0,0.0,0.0,0.0,0.0,0.0,0.0,0.0,0.0,0.0,0.0,0.0,0.0,0.0,0.0,0.0,0.0,2.0797,2.0468,1.7746,0.0,0.0,0.0,0.0,0.0,0.0,0.0,0.0,0.0,0.0,0.0,1.9802,2.1169,2.2308,2.3475,2.3595,2.3385,2.2897,2.2233,2.1335,2.0127,1.8792,1.722,0.0,0.0,0.0,0.0,0.0,0.0,0.0,0.0,0.0,0.0,0.0,0.0,0.0,0.0,0.0,0.0,0.0,0.0,0.0,0.0,0.0,0.0,0.0,0.0,0.0,0.0,0.0,0.0,0.0,0.0,0.0,0.0,1.4556,1.5319,0.0,0.0,0.0,0.0,0.0,0.0,0.0,0.0,0.0,0.0,0.0,0.0,0.0,2.2697,2.4081,2.5241,2.5944,2.6213,2.738,2.8038,2.8233,2.8944,2.9554,3.0108,2.992,0.0,2.4111,2.2838,0.0,0.0,0.0,0.0,0.0,0.0,0.0,0.0,0.0,0.0,0.0,0.0,0.0,0.0,0.0,0.0,0.0,0.0,0.0,0.0,0.0,0.0,2.2981,2.3056,2.3146,2.3101,0.0,1.9941,1.7518,1.7339,1.6293,0.0,0.0,0.0,0.0,0.0,0.0,0.0,2.0254,2.1709,2.2838,2.3535,2.3595,2.3565,2.349,2.2927,2.2239,2.147,2.0187,1.8792,1.7385,1.6173,0.0,0.0,0.0,0.0,0.0,0.0,0.0,0.0,0.0,0.0,0.0,0.0,0.0,0.0,0.0,0.0,0.0,0.0,0.0,0.0,0.0,0.0,0.0,0.0,0.0,0.0,0.0,0.0,0.0,1.4679,1.6114,1.6787,1.6937,1.6847,0.0,0.0,0.0,0.0,0.0,0.0,0.0,0.0,0.0,2.3834,2.4919,2.6087,2.7395,2.8323,2.9175,2.9924,3.0522,3.0986,3.136,3.1731,3.2045,3.2315,3.2432,3.1227,2.9053,2.7182,2.5508,2.4012,0.0,0.0,0.0,0.0,2.2556,2.2981,2.3507,2.3606,2.3334,2.2682,0.0,0.0,0.0,0.0,0.0,0.0,0.0,0.0,0.0,0.0,2.4246,2.4642,2.4732,2.4732,2.4732,2.3065,2.1256,0.0,1.9178,1.7966,1.6249,0.0,0.0,0.0,0.0,1.9028,2.1918,2.2811,2.3445,2.4081,2.4156,2.4007,2.3625,2.3062,2.2568,2.2283,2.1006,1.9824,1.8867,1.7565,1.5934,0.0,0.0,0.0,0.0,0.0,0.0,0.0,0.0,0.0,0.0,0.0,0.0,0.0,0.0,0.0,0.0,0.0,0.0,0.0,0.0,0.0,0.0,0.0,0.0,0.0,0.0,0.0,0.0,1.6697,1.7847,1.8177,1.8939,1.9151,0.0,0.0,0.0,0.0,0.0,0.0,2.2877,2.4014,2.5241,2.6587,2.7904,2.9172,3.0328,3.0956,3.1779,3.2766,3.2931,3.3275,3.3754,3.398,3.4055,3.4086,3.4117,3.3849,3.3169,3.0879,2.889,2.7163,2.6184,2.55,2.5115,2.5394,2.553,2.5764,2.6687,2.6729,2.6288,2.5785,2.4866,2.3766,2.2772,0.0,0.0,0.0,0.0,2.4006,2.5277,2.5621,2.5785,2.6467,2.6617,2.6617,2.6617,2.5974,2.4807,0.0,2.1904,2.0853,1.9044,0.0,0.0,0.0,0.0,2.0497,2.3462,2.4014,2.4313,2.4799,2.4709,2.4395,2.3909,2.3302,2.2868,2.2703,2.1605,2.0662,1.9974,1.882,1.7371,1.5575,0.0,0.0,0.0,0.0,0.0,0.0,0.0,0.0,0.0,0.0,0.0,0.0,0.0,0.0,0.0,0.0,0.0,0.0,0.0,0.0,0.0,0.0,0.0,0.0,0.0,0.0,0.0,0.0,0.0,1.9678,2.0737,0.0,0.0,0.0,0.0,2.2448,2.3655,2.4933,2.6273,2.7031,2.8019,2.9367,3.0629,3.163,3.2362,3.3021,3.338,3.3455,3.4114,3.4429,3.4474,3.5247,3.5582,3.5582,3.5804,3.5503,3.4729,3.2549,3.1319,3.0536,2.8475,2.8022,2.8378,2.702,2.733,2.8323,2.775,2.7959,2.8442,2.8412,2.7919,2.733,2.727,2.6348,0.0,0.0,2.6387,2.6707,2.8053,2.8397,2.8562,2.922,2.9412,2.9412,2.9412,2.8378,2.6866,0.0,2.3902,2.3041,2.1724,0.0,2.147,2.1545,2.2084,2.2981,2.4365,2.5098,2.5501,2.5555,2.4978,2.459,2.456,2.3939,2.3295,2.2733,2.2044,2.135,2.0673,1.9974,1.8957,1.7594,1.6308,0.0,0.0,0.0,0.0,0.0,0.0,0.0,0.0,0.0,0.0,0.0,0.0,0.0,0.0,0.0,0.0,0.0,0.0,0.0,0.0,0.0,0.0,0.0,0.0,0.0,0.0,0.0,0.0,2.2188,2.3759,0.0,2.3595,2.3939,2.4492,2.5174,2.6437,2.7575,2.8498,2.9939,3.0971,3.145,3.2736,3.3544,3.3769,3.4442,3.4786,3.4801,3.5026,3.513,3.5145,3.5434,3.5572,3.5572,3.5651,3.5597,3.5391,3.4773,3.3665,3.2348,3.1671,3.1247,3.0985,3.0963,3.1104,3.1336,3.1615,3.1441,3.0911,2.9639,2.9097,2.8738,2.7854,2.7585,2.759,2.7814,2.8188,2.8648,2.9101,2.922,2.928,2.9547,2.9606,2.9606,2.9606,2.9232,2.8678,2.7949,2.6228,2.4612,2.3708,2.3558,2.3558,2.3558,2.3767,2.4403,2.5719,2.6093,2.6243,2.6243,2.6033,2.5555,2.4679,2.438,2.3804,2.2763,2.2054,2.1395,2.0718,2.0049,1.9271,1.8356,1.7459,1.5845,0.0,0.0,0.0,0.0,0.0,0.0,0.0,0.0,0.0,0.0,0.0,0.0,0.0,0.0,0.0,0.0,0.0,0.0,0.0,0.0,0.0,0.0,0.0,0.0,0.0,2.1994,2.3819,2.4223,2.6243,2.7245,2.6363,2.6871,2.7545,2.8203,2.9295,3.0208,3.0894,3.2347,3.317,3.317,3.4247,3.4848,3.4848,3.528,3.5522,3.5587,3.5587,3.5604,3.5683,3.5683,3.5683,3.5683,3.5683,3.5733,3.5831,3.599,3.5324,3.4193,3.4066,3.3684,3.323,3.3459,3.3391,3.3201,3.3683,3.3397,3.2632,3.1315,3.0924,3.076,2.9876,2.9894,3.0253,3.0253,3.0567,3.0851,3.0627,3.0567,3.0522,3.0298,3.0238,3.0238,3.0238,3.0058,2.9894,2.9894,2.8113,2.6408,2.5734,2.5412,2.5262,2.5262,2.5262,2.5689,2.6782,2.6941,2.6941,2.6941,2.6722,2.6153,2.5023,2.4724,2.4141,2.3077,2.2173,2.15,2.1066,2.0168,1.9498,1.9046,1.8162,1.6637,1.4468,0.0,0.0,0.0,0.0,0.0,0.0,0.0,0.0,0.0,0.0,0.0,0.0,0.0,0.0,0.0,0.0,0.0,0.0,0.0,0.0,0.0,0.0,0.0,2.1814,2.4073,2.5734,2.5764,2.8098,2.9217,2.7899,2.9475,3.0866,3.1511,3.2168,3.2856,3.3499,3.4189,3.4533,3.4533,3.516,3.5504,3.5504,3.5504,3.5587,3.5688,3.5688,3.5831,3.6005,3.6005,3.6005,3.6005,3.6005,3.6005,3.6005,3.6148,3.6196,3.6134,3.5492,3.5233,3.5126,3.4213,3.3895,3.3864,3.3651,3.3559,3.3544,3.3529,3.3529,3.3529,3.3499,3.3499,3.3499,3.3499,3.3499,3.335,3.2706,3.2542,3.2348,3.169,3.1525,3.1525,3.1511,3.0972,3.0537,3.0537,2.952,2.8442,2.7779,2.7121,2.6647,2.6647,2.6632,0.0,2.751,2.76,2.76,2.76,2.7031,2.6363,2.5689,2.5008,2.4321,2.3625,2.2383,2.168,2.1635,2.0397,1.9708,1.9708,1.8371,1.7071,1.5829,0.0,0.0,0.0,0.0,0.0,0.0,0.0,0.0,0.0,0.0,0.0,0.0,0.0,0.0,0.0,0.0,0.0,0.0,0.0,0.0,0.0,2.2615,2.4006,2.4581,2.6885,2.8652,2.9101,3.1091,3.2273,3.1898,3.2347,3.2751,3.2946,3.3559,3.4039,3.4234,3.4846,3.5269,3.5368,3.5449,3.5554,3.5638,3.5554,3.5587,3.5688,3.5688,3.5831,3.6005,3.6005,3.6005,3.6005,3.6005,3.6005,3.6005,3.6148,3.6196,3.618,3.6152,3.6137,3.6122,3.5845,3.5676,3.5505,3.5208,3.5082,3.5007,3.4415,3.4234,3.4113,3.3649,3.3499,3.3499,3.3499,3.3499,3.3455,3.3275,3.323,3.3066,3.2363,3.2213,3.2079,3.16,3.1361,3.1227,3.1227,3.0567,2.9774,2.9172,2.8487,2.8053,2.8053,2.7645,0.0,2.757,2.76,2.76,2.76,2.7435,2.7061,2.6378,2.5719,2.4642,2.3062,2.2158,2.1261,2.0292,1.9902,1.9708,1.9708,1.8371,1.7295,0.0,0.0,0.0,0.0,0.0,0.0,0.0,0.0,0.0,0.0,0.0,0.0,0.0,0.0,0.0,0.0,0.0,0.0,0.0,0.0,0.0,0.0,2.5364,2.707,2.8112,2.9267,3.0417,3.1614,3.3036,3.3903,3.3903,3.4158,3.4337,3.4337,3.4696,3.4923,3.5003,3.5312,3.5554,3.5688,3.5572,3.5572,3.5688,3.5857,3.6057,3.6336,3.6574,3.6808,3.7035,3.676,3.6622,3.6607,3.6317,3.6195,3.6241,3.6289,3.6352,0.0,0.0,0.0,0.0,0.0,3.6242,3.6085,3.5894,3.5831,3.5738,3.5187,3.5003,3.4928,3.4474,3.4337,3.4337,3.4337,3.4337,3.4262,3.3978,3.3903,3.3739,3.308,3.2931,3.2826,3.2407,3.2108,3.1914,3.1914,3.1376,0.0,3.0462,2.9624,2.9011,2.9011,2.8693,2.8349,2.8064,2.8034,2.7914,2.763,2.76,2.733,2.6647,2.5989,0.0,0.0,0.0,2.1515,2.0168,1.9857,0.0,0.0,0.0,0.0,0.0,0.0,0.0,0.0,1.5919,1.5396,0.0,0.0,0.0,0.0,0.0,0.0,0.0,0.0,0.0,0.0,0.0,0.0,0.0,0.0,0.0,0.0,2.8328,3.0303,3.186,3.1444,3.1643,3.3395,3.4188,3.4623,3.4623,3.5145,3.5504,3.5537,3.5522,3.5572,3.5688,3.5604,0.0,0.0,0.0,3.5617,3.5872,3.6295,3.6791,3.7327,3.7803,3.8193,3.8492,3.7892,3.7615,3.7584,3.6984,3.6676,3.6599,3.6599,3.6553,3.6492,3.6492,3.6492,3.6492,3.6305,3.6148,3.6037,3.6037,0.0,0.0,3.5799,3.572,3.5703,3.5587,3.5569,3.5569,3.5569,3.5569,3.5419,3.4805,3.4686,3.449,3.383,3.3666,3.3651,3.3576,3.3096,3.2661,3.2557,3.2077,3.1643,3.1568,3.0535,2.9711,2.9711,2.9651,2.9397,2.8786,2.8712,2.8442,2.7779,0.0,0.0,2.6752,2.6093,2.5435,2.4754,2.3445,2.2179,2.1011,2.0292,1.9932,1.9932,2.0513,2.0827,2.0827,2.143,2.1714,2.161,1.7491,1.6503,0.0,0.0,0.0,0.0,0.0,0.0,0.0,0.0,0.0,0.0,0.0,0.0,0.0,0.0,0.0,2.8914,3.0164,3.1589,3.4031,3.4091,3.3983,3.4264,3.4891,3.531,3.531,3.5429,3.5554,3.5638,3.5671,3.5655,3.5688,3.5671,3.5735,3.5941,3.5651,3.5957,3.6909,3.6753,3.7134,3.8093,0.0,0.0,3.8508,3.8369,3.8323,3.8308,3.8185,3.7815,3.7307,3.7307,3.6984,3.6492,3.6492,3.6492,3.6492,3.646,3.6429,3.6398,3.6211,3.6148,3.6148,3.599,3.5941,3.5941,3.591,3.5893,0.0,3.5893,3.5893,3.5847,3.5743,3.5713,3.5546,3.4879,3.4728,3.4576,3.4016,3.3789,3.3546,3.3001,3.279,3.2532,3.2002,3.1035,3.0328,3.0328,2.9909,2.9562,2.94,2.9427,2.9157,2.8472,2.8412,2.8128,2.7465,2.6806,2.6123,2.5442,2.3684,2.2624,2.2486,2.1724,2.1306,2.1306,2.1488,2.1588,2.1588,2.1723,2.1783,2.1768,2.0805,2.0557,0.0,0.0,0.0,0.0,0.0,0.0,0.0,0.0,0.0,0.0,0.0,2.3386,2.5725,0.0,2.8478,3.1286,3.2457,3.3468,3.482,3.5198,3.5237,3.5028,3.5377,3.5572,3.5504,3.5651,3.5701,3.5604,3.5671,3.5752,3.5831,3.5752,3.5967,3.6572,3.6392,3.6743,3.7724,3.7828,3.8196,3.8898,3.9168,3.937,3.9474,3.917,3.9016,3.8967,3.8662,3.8323,3.8,3.8,3.78,3.7461,3.7138,3.6799,3.6492,3.6492,3.6492,3.6492,3.6383,3.6352,3.6305,3.6148,3.6085,3.6085,3.6037,3.6005,3.6005,3.6005,3.6005,3.6005,3.6005,3.6005,3.5929,3.558,3.5504,3.5413,3.5078,3.4744,3.441,3.4076,3.3741,3.3271,3.2604,3.208,3.1634,3.1287,3.097,3.0681,3.035,3.0292,3.0036,2.9278,2.9203,2.8933,2.8256,2.7295,2.6438,2.5831,2.4506,2.3812,2.3949,2.3256,2.2853,2.2853,2.3154,2.332,2.3398,2.3673,2.3839,2.3903,2.3855,2.3077,0.0,0.0,0.0,0.0,0.0,0.0,0.0,2.0368,2.1693,2.3682,2.4777,2.6282,2.9127,3.0177,3.1299,3.332,3.4424,3.5048,3.5216,3.5671,3.5893,3.5619,3.5686,3.5718,3.5619,3.5797,3.5846,3.5651,3.5718,3.5831,3.6037,3.6016,3.6351,3.7157,3.7195,3.7623,3.8509,3.8876,3.9264,3.969,4.014,4.0401,4.0474,3.992,3.9674,3.9644,3.9,3.8708,3.8692,3.8554,3.8508,3.8462,3.7908,3.7353,3.6861,3.6599,3.6492,3.6492,3.6492,3.6492,3.646,3.6305,3.6274,3.6242,3.6132,3.61,3.61,3.61,3.61,3.61,3.61,3.61,3.61,3.61,3.61,3.61,3.61,3.5674,3.5262,3.5125,3.4668,3.4089,3.3419,3.3297,3.3009,3.2146,3.1996,3.1799,3.1253,3.1192,3.0907,3.0117,3.0014,2.9769,2.9104,2.7916,2.7034,2.6616,2.572,2.5281,2.5386,2.4748,2.4398,2.4398,2.4849,2.5122,2.5226,2.5667,2.5925,2.6039,2.6016,2.4729,1.8319,1.8101,1.8174,1.9566,2.0121,2.1173,0.0,2.4958,2.5268,2.7231,2.8744,3.0002,3.0982,3.2075,3.3351,3.4984,3.5095,3.5246,3.5981,3.6008,3.5973,3.5941,3.5973,3.5973,3.5957,3.5831,3.5847,3.6116,3.6037,3.6037,3.6179,3.6712,3.7096,3.7204,3.7636,3.8342,3.9367,3.929,3.9627,4.0382,4.0459,4.0489,4.0489,4.0413,4.0382,4.0336,3.9659,3.9367,3.9354,3.8769,3.8508,3.8492,3.8431,3.8354,3.8138,3.6938,3.6492,3.6492,3.6492,3.6492,3.6492,3.646,3.646,3.646,3.646,3.6429,3.6429,3.6429,3.6429,3.6429,3.6429,3.6429,3.6429,3.6429,3.6429,3.6429,3.6429,3.6399,3.6168,3.5569,3.5384,3.5123,3.4446,3.4323,3.3805,3.2251,3.1996,3.1966,3.189,3.189,3.1632,3.0937,3.0861,3.06,2.9928,2.9188,2.8723,2.8672,2.7458,2.6768,2.6768,2.613,2.5781,2.5781,2.5948,2.6039,2.6061,2.6115,2.6146,2.6184,2.6054,2.5758,2.03,2.0215,2.0387,2.1616,2.2782,2.4145,2.6176,2.7061,2.7941,2.9705,3.1186,3.249,3.3567,3.4215,3.4877,3.5907,3.5968,3.5983,3.6321,3.632,3.6289,3.6289,3.6289,3.6163,3.5863,3.6022,3.6085,3.5911,3.6053,3.6316,3.6761,3.7052,3.7604,3.8499,3.8739,3.9247,4.0059,4.004,4.0194,4.0489,4.0489,4.0489,4.0489,4.0489,4.0489,4.0474,4.0197,4.0074,4.0043,3.9767,3.9644,3.9613,3.9213,3.9059,3.8939,3.7584,3.7076,3.703,3.663,3.6492,3.6492,3.6492,3.6492,3.6492,3.6492,3.6492,3.6492,3.6492,3.6492,3.6492,3.6492,3.6492,3.6492,3.6492,3.6492,3.6492,3.6492,3.6492,3.6415,3.6122,3.6076,3.5861,3.5213,3.509,3.4707,3.3623,3.3104,3.2662,3.2293,3.2247,3.2084,3.1726,3.136,3.0994,3.0731,3.0079,2.9739,2.9817,2.8849,2.8314,2.8403,2.7745,2.7408,2.7408,2.7369,2.7393,2.7479,2.7393,2.7393,2.7479,2.7416,2.7322,2.081,2.117,2.1921,2.3094,2.4835,2.6583,2.7868,2.9053,3.0308,3.1869,3.2929,3.3911,3.5014,3.5292,3.5554,3.6138,3.6306,3.6398,3.6492,3.646,3.6445,3.6492,3.6492,3.632,3.5879,3.6179,3.6289,3.5958,3.6101,3.6533,3.7238,3.7453,3.8161,3.9444,3.9659,3.9997,4.0489,4.0489,4.0489,4.0489,4.0489,4.0489,4.0489,4.0489,4.0489,4.0489,4.0489,4.0489,4.0489,4.0489,4.0489,4.0443,3.9951,3.9767,3.9628,3.8492,3.7938,3.7707,3.7215,3.6923,3.6769,3.6769,3.6645,3.6492,3.6492,3.6492,3.6492,3.6492,3.6492,3.6492,3.6492,3.6492,3.6492,3.6492,3.6492,3.6492,3.6492,3.6492,3.6492,3.6492,3.6492,3.6338,3.5845,3.5799,3.5568,3.489,3.4306,3.366,3.2782,3.2505,3.237,3.2274,3.1803,3.1539,3.1539,3.0926,3.0543,3.0611,2.993,2.9547,2.9613,2.9202,2.8965,2.8965,2.8851,2.8851,2.8965,2.8851,2.8851,2.8965,2.8965,2.8901,1.9287,2.03,2.2132,2.3982,2.5894,2.8004,3.0497,3.1598,3.2499,3.3842,3.4028,3.4089,3.4461,3.4789,3.5141,3.5476,3.5813,3.6132,3.646,3.6352,3.6274,3.6492,3.6492,3.6414,3.6211,3.6196,3.6274,3.646,3.6305,3.6565,3.7429,3.8123,3.8767,3.9459,4.012,4.0474,4.0489,4.0489,4.0489,4.0489,4.0489,4.0489,4.0489,4.0489,4.0489,4.0489,4.0489,4.0489,4.0489,4.0489,4.0489,4.0489,4.0474,4.0459,4.0382,3.9674,3.9046,3.8477,3.8462,3.8015,3.7477,3.7477,3.703,3.6492,3.6492,3.6492,3.6492,3.6492,3.6492,3.6492,3.6492,3.6492,3.6492,3.6492,3.6492,3.6492,3.6492,3.6492,3.6492,3.6492,3.6492,3.6476,3.6461,3.6461,3.623,3.5553,3.546,3.4922,3.3552,3.2798,3.2398,3.2398,3.2382,3.2351,3.2351,3.1736,3.1313,3.1194,3.0646,3.0304,3.0184,3.0288,3.034,3.034,3.034,3.034,3.034,3.034,3.034,3.034,3.034,3.034,2.1027,2.2233,2.3825,2.6058,2.7671,2.9309,3.1618,3.2422,3.2961,3.3983,3.3812,3.3644,3.4191,3.4025,3.4133,3.5125,3.5508,3.5845,3.643,3.6445,3.6414,3.6492,3.6492,3.646,3.6414,3.6383,3.6383,3.6305,3.6766,3.7382,3.8138,3.8816,3.9459,4.0136,4.0382,4.0489,4.0489,4.0489,4.0489,4.0489,4.0489,4.0489,4.0489,4.0489,4.0489,4.0489,4.0489,4.0489,4.0489,4.0489,4.0489,4.0489,4.0489,4.0489,4.0459,4.0243,4.0013,3.969,3.8831,3.8354,3.8169,3.8169,3.7707,3.7153,3.7153,3.6846,3.6492,3.6492,3.6492,3.6492,3.6492,3.6492,3.6492,3.6492,3.6492,3.6492,3.6492,3.6492,3.6492,3.6492,3.6492,3.6492,3.6492,3.6492,3.6261,3.5614,3.5136,3.4505,3.3521,3.3198,3.289,3.2444,3.2398,3.2398,3.2398,3.2182,3.2059,3.2004,3.1401,3.1032,3.1006,3.0617,3.0402,3.0402,3.0402,3.0402,3.0402,3.0402,3.0402,3.0402,3.0402,3.0402,2.2518,2.3834,2.53,2.7763,2.9096,3.0311,3.2268,3.2584,3.27,3.3591,3.2745,3.2131,3.2917,3.2318,3.2318,3.4193,3.4633,3.5153,3.6322,3.6492,3.6492,3.6492,3.6492,3.6492,3.6492,3.6492,3.646,3.6305,3.7044,3.78,3.8477,3.9154,3.9797,4.0474,4.0489,4.0489,4.0489,4.0489,4.0489,4.0489,4.0489,4.0489,4.0489,4.0489,4.0489,4.0489,4.0489,4.0489,4.0489,4.0489,4.0489,4.0489,4.0489,4.0489,4.0489,4.0489,4.0489,4.0366,3.949,3.9077,3.8877,3.8877,3.8415,3.7815,3.7569,3.72,3.6799,3.6553,3.6492,3.6492,3.6492,3.6492,3.6492,3.6492,3.6492,3.6492,3.6492,3.6492,3.6492,3.6492,3.6492,3.6492,3.6492,3.6492,3.6338,3.5907,3.5506,3.489,3.3906,3.3783,3.3521,3.2829,3.2752,3.2659,3.2413,3.2398,3.2398,3.2398,3.1982,3.1751,3.1751,3.1351,3.1094,3.1094,3.1094,3.1094,3.1094,3.1094,3.1094,3.1094,3.1094,3.1094,2.3744,2.5079,2.6538,2.9015,3.0051,3.0894,3.2452,3.2141,3.1736,3.2616,3.0938,2.9592,3.0573,2.9765,2.9863,3.2636,3.3312,3.4168,3.6199,3.6492,3.6492,3.6492,3.6492,3.6492,3.6492,3.6492,3.6507,3.6538,3.7169,3.7846,3.8523,3.92,3.9828,4.0474,4.0489,4.0489,4.0489,4.0489,4.0489,4.0489,4.0489,4.0489,4.0489,4.0489,4.0489,4.0489,4.0489,4.0489,4.0489,4.0489,4.0489,4.0489,4.0489,4.0489,4.0489,4.0489,4.0489,4.0489,4.0489,4.0074,3.9536,3.9536,3.9108,3.8446,3.78,3.7584,3.7415,3.6784,3.6569,3.6538,3.6538,3.6522,3.6492,3.6492,3.6492,3.6492,3.6492,3.6492,3.6492,3.6492,3.6492,3.6492,3.6492,3.6492,3.6492,3.6492,3.6492,3.6014,3.472,3.4551,3.4289,3.3537,3.346,3.3198,3.2552,3.2459,3.2444,3.2444,3.2413,3.2398,3.2398,3.2398,3.2398,3.2398,3.2398,3.2398,3.2398,3.2398,3.2398,3.2398,3.2398,3.2398,2.555,2.6857,2.8114,2.9588,3.0107,3.0437,3.1413,3.0817,3.009,3.0024,2.8357,2.6982,2.7291,2.7861,2.8997,3.1256,3.31,3.4737,3.6276,3.6492,3.6492,3.6492,3.6492,3.6492,3.6492,3.6492,3.6707,3.7215,3.7877,3.8554,3.9198,3.9859,4.032,4.0489,4.0489,4.0489,4.0489,4.0489,4.0489,4.0489,4.0489,4.0489,4.0489,4.0489,4.0489,4.0489,4.0489,4.0489,4.0489,4.0489,4.0489,4.0489,4.0489,4.0489,4.0489,4.0489,4.0489,4.0489,4.0489,4.0382,4.0243,4.0243,3.9782,3.9198,3.9046,3.8646,3.8215,3.8046,3.7631,3.7246,3.7246,3.6861,3.6492,3.6492,3.6492,3.6492,3.6492,3.6492,3.6492,3.6492,3.6492,3.6492,3.6492,3.6492,3.6492,3.6492,3.6492,3.6184,3.5367,3.526,3.4998,3.4305,3.4227,3.4166,3.3981,3.346,3.3152,3.3152,3.2675,3.2398,3.2398,3.2398,3.2398,3.2398,3.2398,3.2398,3.2398,3.2398,3.2398,3.2398,3.2398,3.2398,2.7027,2.8268,2.9366,3.0281,3.0283,3.0109,3.0023,2.914,2.8058,2.7103,2.5709,2.4648,2.4727,2.5809,2.7567,3.0224,3.2305,3.4245,3.6215,3.6492,3.6492,3.6492,3.6753,3.6938,3.6938,3.72,3.7661,3.8338,3.8462,3.88,3.9444,4.0136,4.0489,4.0489,4.0489,4.0489,4.0489,4.0489,4.0489,4.0489,4.0489,4.0489,4.0489,4.0489,4.0489,4.0489,0.0,4.0489,4.0489,4.0489,4.0489,4.0489,4.0489,4.0489,4.0489,4.0489,4.0489,4.0489,4.0489,4.0489,4.0489,4.0489,4.0243,3.9874,3.9582,3.9262,3.8893,3.86,3.8231,3.7938,3.7938,3.7446,3.6938,3.6938,3.6707,3.6492,3.6492,3.6492,3.6492,3.6492,3.6492,3.6492,3.6492,3.6492,3.6492,3.6492,3.6492,3.6353,3.5984,3.5922,3.566,3.5013,3.4951,3.4828,3.4536,3.4135,3.3875,3.3875,3.3521,3.3334,3.3334,3.2998,3.2844,3.2844,3.2552,3.2398,3.2398,3.2398,3.2398,3.2398,3.2398,3.2398,2.8307,2.9418,3.0335,3.0869,3.0503,2.9718,2.8624,2.7303,2.5906,2.4265,2.3203,2.2573,2.27,2.3903,2.6001,2.9403,3.134,3.3352,3.6107,3.6492,3.6492,3.6492,3.7092,3.7507,3.7507,3.8123,3.8785,3.9428,3.897,3.8939,3.9582,4.0166,4.0489,4.0489,4.0489,4.0489,4.0489,4.0489,4.0489,4.0489,4.0489,4.0489,4.0489,4.0489,4.0489,4.0489,4.0489,4.0489,4.0489,4.0489,4.0489,4.0489,4.0489,4.0489,4.0489,4.0489,4.0489,4.0489,4.0489,4.0489,4.0489,4.0489,4.0489,4.0382,3.9797,3.9613,3.949,3.8939,3.8708,3.8646,3.8646,3.8138,3.7631,3.7631,3.7123,3.663,3.663,3.6553,3.6492,3.6492,3.6492,3.6492,3.6492,3.6492,3.6492,3.6492,3.6492,3.6492,3.6492,3.6492,3.6261,3.5676,3.5614,3.5414,3.4813,3.469,3.4643,3.4643,3.4551,3.4505,3.4505,3.3875,3.3552,3.3552,3.2967,3.2675,3.2675,3.2675,3.2675,3.2675,3.2675,3.2675,2.951,3.032,3.0869,3.096,3.0202,2.9127,2.7945,2.6044,2.414,2.2757,2.1521,2.0795,2.1189,2.2861,2.5302,2.8712,3.1018,3.3352,3.6107,3.6492,3.6492,3.6492,3.7092,3.7507,3.7507,3.8123,3.8785,3.9428,3.9367,3.9613,4.0274,4.0428,4.0489,4.0489,4.0489,4.0489,4.0489,4.0489,4.0489,4.0489,4.0489,4.0489,4.0489,4.0489,4.0489,4.0489,4.0489,0.0,4.0489,4.0489,4.0489,4.0489,4.0489,4.0489,4.0489,4.0489,4.0489,4.0489,4.0489,4.0489,4.0489,4.0489,4.0489,4.0474,4.0351,4.032,4.029,4.0182,3.9736,3.9339,3.9339,3.8846,3.8338,3.8338,3.7815,3.7323,3.7323,3.6892,3.6492,3.6492,3.6492,3.6492,3.6492,3.6492,3.6492,3.6492,3.6492,3.6492,3.6492,3.6492,3.6445,3.6322,3.6322,3.6261,3.6153,3.566,3.5337,3.5337,3.4813,3.4505,3.4505,3.4382,3.432,3.432,3.4212,3.415,3.415,3.415,3.415,3.415,3.415,3.415,2.9536,3.032,3.0908,3.062,2.9666,2.8281,2.6184,2.4439,2.2626,2.0446,1.9874,1.9726,1.9646,2.2023,2.4785,2.7152,2.9393,3.1921,3.4999,3.5122,3.5291,3.6368,3.74,3.8031,3.8031,3.8954,3.9659,3.9982,4.0013,4.0151,4.0474,4.0489,4.0489,4.0489,4.0489,4.0489,4.0489,4.0489,4.0489,4.0489,4.0489,4.0489,4.0489,4.0489,4.0489,4.0489,4.0489,4.0489,4.0489,4.0489,4.0489,4.0489,4.0489,4.0489,4.0489,4.0489,4.0489,4.0489,4.0489,4.0489,4.0489,4.0489,4.0489,4.0489,4.0489,4.0489,4.0489,4.0489,4.0259,4.0013,4.0013,3.9505,3.9031,3.9031,3.8246,3.7507,3.7507,3.6969,3.6492,3.6492,3.6492,3.6492,3.6492,3.6492,3.6492,3.6492,3.6492,3.6492,3.6492,3.6492,3.6492,3.6492,3.6492,3.6492,3.6492,3.6199,3.6014,3.6014,3.5737,3.5552,3.5552,3.5213,3.5028,3.5028,3.469,3.4505,3.4505,3.4505,3.4505,3.4505,3.4505,3.4505,2.9392,3.0202,3.0856,3.0244,2.9157,2.7484,2.4739,2.3014,2.1302,1.8758,1.8712,1.9079,1.8885,2.1316,2.3943,2.5788,2.7708,3.0212,3.3781,3.3891,3.4352,3.6261,3.7692,3.8508,3.8508,3.9705,4.0489,4.0489,4.0489,4.0489,4.0489,4.0489,4.0489,4.0489,4.0489,4.0489,4.0489,4.0489,4.0489,4.0489,4.0489,4.0489,4.0489,4.0489,4.0489,4.0489,4.0489,4.0489,4.0489,4.0489,4.0489,4.0489,4.0489,4.0489,4.0489,4.0489,4.0489,4.0489,4.0489,4.0489,4.0489,4.0489,4.0489,4.0489,4.0489,4.0489,4.0489,4.0489,4.0489,4.0489,4.0489,4.0105,3.9659,3.9521,3.8708,3.7861,3.7569,3.7092,3.6661,3.6522,3.6492,3.6492,3.6492,3.6492,3.6492,3.6492,3.6492,3.6492,3.6492,3.6492,3.6492,3.6492,3.6492,3.6492,3.6492,3.6492,3.6492,3.6492,3.6492,3.6492,3.6492,3.5984,3.5691,3.5691,3.5213,3.4936,3.4936,3.4936,3.4936,3.4936,3.4936,3.4936,2.9735,3.0503,3.0856,3.0244,2.8821,2.6955,2.4618,2.2427,2.043,1.8943,1.8617,1.8871,1.9778,2.0686,2.2297,2.5477,2.6903,2.8965,3.2936,3.3998,3.4936,3.6322,3.7692,3.8508,3.8508,3.9705,4.0489,4.0489,4.0489,4.0489,4.0489,4.0489,4.0489,4.0489,4.0489,4.0489,4.0489,4.0489,4.0489,4.0489,4.0489,4.0489,4.0489,4.0489,4.0489,4.0489,4.0489,4.0489,0.0,4.0489,4.0489,4.0489,4.0489,4.0489,4.0489,4.0489,4.0489,4.0489,4.0489,4.0489,4.0489,4.0489,4.0489,4.0489,4.0489,4.0489,4.0489,4.0489,4.0489,4.0489,4.0489,4.0443,4.0243,3.9628,3.9431,3.8967,3.7769,3.7446,3.723,3.6615,3.6492,3.6492,3.6492,3.6492,3.6492,3.6492,3.6492,3.6492,3.6492,3.6492,3.6492,3.6492,3.6492,3.6492,3.6492,3.6492,3.6492,3.6492,3.6492,3.6492,3.6492,3.643,3.6399,3.6399,3.6338,3.6307,3.6307,3.6307,3.6307,3.6307,3.6307,3.6307,2.8765,2.951,2.9902,2.968,2.8046,2.5871,2.3587,2.1564,1.9785,1.8434,1.8333,1.872,1.9425,2.0352,2.1728,2.3951,2.4664,2.6211,2.9889,3.0982,3.2228,3.4383,3.6569,3.8061,3.8477,3.9705,4.0489,4.0489,4.0489,4.0489,4.0489,4.0489,4.0489,4.0489,4.0489,4.0489,4.0489,4.0489,4.0489,4.0489,4.0489,4.0489,4.0489,4.0489,4.0489,4.0489,4.0489,4.0489,0.0,4.0489,4.0489,4.0489,4.0489,4.0489,4.0489,4.0489,4.0489,4.0489,4.0489,4.0489,4.0489,4.0489,4.0489,4.0489,4.0489,4.0489,4.0489,4.0489,4.0489,4.0489,4.0489,4.0489,4.0428,4.0151,3.9782,3.9336,3.8831,3.8077,3.7415,3.7153,3.6769,3.6492,3.6492,3.6492,3.6492,3.6492,3.6492,3.6492,3.6492,3.6492,3.6492,3.6492,3.6492,3.6492,3.6492,3.6492,3.6492,3.6492,3.6492,3.6492,3.6492,3.6492,3.6492,3.6492,3.6492,3.6492,3.6492,3.6492,3.6492,3.6492,3.6492,3.6492,2.7596,2.859,2.9196,2.8843,2.7288,2.5201,2.2852,2.1025,1.9466,1.8249,1.8266,1.8635,1.9114,2.0012,2.112,0.0,2.2981,2.4487,2.7919,2.8996,3.0412,3.3075,3.5291,3.6953,3.7831,3.9459,4.0489,4.0489,4.0489,4.0489,4.0489,4.0489,4.0489,4.0489,4.0489,4.0489,4.0489,4.0489,4.0489,4.0489,4.0489,4.0489,4.0489,4.0489,4.0489,4.0489,4.0489,4.0489,0.0,4.0489,4.0489,4.0489,4.0489,4.0489,4.0489,4.0489,4.0489,4.0489,4.0489,4.0489,4.0489,4.0489,4.0489,4.0489,4.0489,4.0489,4.0489,4.0489,4.0489,4.0489,4.0489,4.0489,4.0489,4.0489,4.0136,3.9721,3.9521,3.8769,3.7984,3.7584,3.7107,3.6722,3.6522,3.6492,3.6492,3.6492,3.6492,3.6492,3.6492,3.6492,3.6492,3.6492,3.6492,3.6492,3.6492,3.6492,3.6492,3.6492,3.6492,3.6492,3.6492,3.6492,3.6492,3.6492,3.6492,3.6492,3.6492,3.6492,3.6492,3.6492,3.6492,3.6492,2.6405,2.7988,2.9,2.7837,2.6641,2.5144,2.2683,2.0919,1.9559,1.8675,1.85,1.8635,1.9114,1.9654,2.0254,2.0999,2.2352,2.4487,2.7919,2.8996,3.0412,3.3075,3.406,3.5059,3.6384,3.8921,4.0489,4.0489,4.0489,4.0489,4.0489,4.0489,4.0489,4.0489,4.0489,4.0489,4.0489,4.0489,4.0489,4.0489,4.0489,4.0489,4.0489,4.0489,4.0489,4.0489,4.0489,4.0489,0.0,4.0489,4.0489,4.0489,4.0489,4.0489,4.0489,4.0489,4.0489,4.0489,4.0489,4.0489,4.0489,4.0489,4.0489,4.0489,4.0489,4.0489,4.0489,4.0489,4.0489,4.0489,4.0489,4.0489,4.0489,4.0489,4.0489,4.0305,3.9628,3.9474,3.9108,3.7769,3.7492,3.7277,3.6599,3.6492,3.6492,3.6492,3.6492,3.6492,3.6492,3.6492,3.6492,3.6492,3.6492,3.6492,3.6492,3.6492,3.6492,3.6492,3.6492,3.6492,3.6492,3.6492,3.6492,3.6492,3.6492,3.6492,3.6492,3.6492,3.6492,3.6492,3.6492,3.6492,2.355,2.4439,2.504,2.4644,2.3691,2.2453,2.0876,1.983,1.9042,1.8577,1.85,1.875,1.9584,1.9884,2.0713,2.2931,2.3682,2.4856,2.7365,2.9473,3.1074,3.1921,3.5106,3.7584,3.8477,3.9721,4.0489,4.0489,4.0489,4.0489,4.0489,4.0489,4.0489,4.0489,4.0489,4.0489,4.0489,4.0489,4.0489,4.0489,4.0489,4.0489,4.0489,4.0489,4.0489,4.0489,4.0489,4.0489,4.0489,4.0489,4.0489,4.0489,4.0489,4.0489,4.0489,4.0489,4.0489,4.0489,4.0489,4.0489,4.0489,4.0489,4.0489,4.0489,4.0489,4.0489,4.0524,4.0662,4.0593,4.0524,4.0662,4.0593,4.037,3.9814,3.9692,3.9489,3.8712,3.8168,3.7916,3.8015,3.7681,3.7334,3.7196,3.7184,3.703,3.6569,3.6492,3.6492,3.6492,3.6492,3.6492,3.6492,3.6492,3.6492,3.6492,3.6492,3.6492,3.6492,3.6492,3.6492,3.6492,3.6492,3.6492,3.6492,3.6492,3.6492,3.6492,3.6492,3.6492,3.6492,3.6492,3.6492,2.1472,2.2309,2.2844,2.2635,2.1877,2.0935,1.9948,1.9277,1.8844,1.8775,1.8808,1.9091,1.9887,2.0043,2.0645,2.2482,2.3209,2.4348,2.6672,2.8873,3.0735,3.1997,3.546,3.8015,3.8692,3.9797,4.0489,4.0489,4.0489,4.0489,4.0489,4.0489,4.0489,4.0489,4.0489,4.0489,4.0489,4.0489,4.0489,4.0489,4.0489,4.0489,4.0489,4.0489,4.0489,4.0489,4.0489,4.0489,0.0,4.0489,4.0489,4.0489,4.0489,4.0558,4.0627,4.0627,4.0662,4.0712,4.0712,4.0677,4.0627,4.0627,4.0627,4.0627,4.0712,4.0677,4.0627,4.0765,4.0593,4.0439,4.073,4.0335,3.9809,3.96,3.9211,3.8745,3.8428,3.8047,3.7755,3.783,3.7773,3.7588,3.7265,3.7013,3.6743,3.6286,3.6142,3.607,3.607,3.632,3.6492,3.6492,3.6492,3.6492,3.6492,3.6492,3.6492,3.6492,3.6492,3.6492,3.6492,3.6492,3.6492,3.6492,3.6492,3.6492,3.6492,3.6492,3.6492,3.6492,3.6492,3.6492,0.0,2.1275,2.1943,2.1342,2.0857,2.0325,1.9624,1.9125,0.0,1.915,1.9299,1.9548,2.0074,2.0146,2.0227,2.0593,2.1704,2.3456,2.6142,2.7803,2.9966,3.3229,3.5414,3.6892,3.7507,3.9336,4.0489,4.0489,4.0489,4.0489,4.0489,4.0489,4.0489,4.0489,4.0489,4.0489,4.0489,4.0489,4.0489,4.0489,4.0489,4.0489,4.0489,4.0489,4.0489,0.0,4.0489,4.0489,4.0489,4.0489,4.0489,4.0524,4.0524,4.0627,4.0833,4.0833,4.095,4.1117,4.1117,4.1,4.0833,4.0833,4.0799,4.0799,4.0966,4.0932,4.0833,4.0833,4.0543,4.0285,4.0681,3.9829,3.9017,3.9696,3.8972,3.819,3.8583,3.8671,3.837,3.7383,3.7832,3.8061,3.6998,3.6345,3.5967,3.5922,3.5629,3.5442,3.5442,3.5973,3.6352,3.6352,3.6352,3.6352,3.6429,3.646,3.6492,3.6492,3.6492,3.6492,3.6492,3.6492,3.6492,3.6492,3.6492,3.6492,3.6492,3.6492,3.6492,3.6492,3.6492,3.6492,1.7904,0.0,1.8963,1.8362,1.8453,1.864,0.0,1.8472,1.8804,1.9132,1.9225,1.959,2.0664,2.0452,2.0992,2.3697,2.4394,2.5542,2.828,3.0735,3.3106,3.5491,3.7107,3.8092,3.8262,3.9613,4.0489,4.0489,4.0489,4.0489,4.0489,4.0489,4.0489,4.0489,4.0489,4.0489,4.0489,4.0489,4.0489,4.0489,4.0489,4.0489,4.0489,4.0489,4.0489,4.0489,4.0489,4.0489,4.0489,4.0489,4.0593,4.073,4.073,4.0848,4.1034,4.1034,4.1068,4.1117,4.1117,4.1068,4.1034,4.1034,4.073,4.0355,4.0405,4.0696,4.1068,4.1156,4.0699,4.025,4.0528,3.992,3.9147,3.8723,3.8375,3.8023,3.7544,3.7429,3.7539,3.7872,3.8119,3.8187,3.8041,3.7873,3.7605,3.7114,3.6259,3.5714,3.5714,3.5204,3.4828,3.4828,3.4828,3.5059,3.5608,3.6179,3.6492,3.6492,3.6492,3.6492,3.6492,3.6492,3.6492,3.6492,3.6492,3.6492,3.6492,3.6492,3.6492,3.6492,3.6492,3.6492,1.7199,1.7643,1.8022,1.7695,1.799,1.8337,1.8275,1.865,1.9077,1.928,1.9533,1.9924,2.0607,2.0691,2.1369,2.3579,2.4697,2.6573,3.0258,3.2844,3.4891,3.6322,3.7415,3.8046,3.8046,3.9228,4.0028,4.0028,4.032,4.0489,4.0489,4.0489,4.0489,4.0489,4.0489,4.0489,4.0489,4.0489,4.0489,4.0489,4.0489,4.0489,4.0489,4.0489,4.0489,4.0489,4.0489,4.0489,4.0489,4.0593,4.0696,4.0799,4.0916,4.1052,4.1187,4.1187,4.1254,4.1321,4.1321,4.1104,4.0833,4.0833,4.0439,3.9985,4.006,4.0285,4.0543,4.0578,4.0146,3.9758,4.0056,3.9364,3.856,3.8486,3.8037,3.7596,3.7341,3.7264,3.7341,3.7596,3.7938,3.8175,3.8062,3.7813,3.7505,3.7153,3.6488,3.5926,3.5619,3.5404,3.5133,3.4857,3.4662,3.4728,3.5139,3.5367,3.5769,3.646,3.6492,3.6492,3.6492,3.6492,3.6492,3.6492,3.6492,3.6492,3.6492,3.6492,3.6492,3.6492,3.6492,3.6492,1.7408,1.7861,1.8223,1.8083,1.8342,1.8675,1.8817,1.9102,1.935,1.9551,1.9942,2.0349,2.0549,2.115,2.1904,2.2782,2.4795,2.775,3.2105,3.4306,3.5737,3.6415,3.7092,3.7507,3.7507,3.8631,3.9336,3.9336,3.9859,4.0182,4.0182,4.0274,4.0336,4.0336,4.0443,4.0489,4.0489,4.0489,4.0489,4.0489,4.0489,4.0489,4.0489,4.0489,4.0489,4.0489,0.0,0.0,4.0558,4.073,4.0833,4.0901,4.1052,4.1221,4.1357,4.1357,4.1456,4.1588,4.1522,4.1073,4.0512,4.0443,4.0041,3.9646,3.9743,3.9728,3.9621,3.9487,3.9286,3.9177,3.9502,3.8649,3.7877,3.8538,3.7924,3.7303,3.761,3.7687,3.761,3.725,3.7749,3.8089,3.7763,3.7266,3.6931,3.6931,3.6583,3.6171,3.5607,3.5947,3.5978,3.5281,3.4957,3.4794,3.4725,3.4428,3.478,3.6085,3.6289,3.6383,3.6492,3.6523,3.6523,3.6492,3.6492,3.6492,3.6492,3.6492,3.6492,3.6492,3.6492,3.6492,1.8388,1.8792,1.8768,1.8028,1.8064,1.844,1.9012,1.8998,1.9091,1.9854,2.0065,2.0505,2.1763,2.2551,2.3594,2.5478,2.842,3.1347,3.3827,3.4951,3.5737,3.6415,3.7092,3.7507,3.7507,3.82,3.8662,3.8662,3.8769,3.8831,3.8831,3.9336,3.9644,3.9644,4.0197,4.0489,4.0489,4.0489,4.0489,4.0489,4.0489,4.0489,4.0489,4.0489,4.0489,4.0489,0.0,4.0593,4.0765,4.0799,4.0969,4.1223,4.1256,4.139,4.1555,4.1555,4.1555,4.1522,4.1088,4.0867,4.0681,4.015,3.9636,3.9213,3.9199,3.887,3.8449,3.8427,3.876,3.9104,3.9177,3.8649,3.8127,3.8277,3.8165,3.8052,3.8089,3.8089,3.8089,3.8014,3.8127,3.8165,3.8127,3.804,3.7982,3.7982,3.7209,3.6616,3.6515,3.5823,3.5109,3.4455,3.4363,3.4207,3.3977,3.3919,3.409,3.4614,3.5222,3.5847,3.646,3.66,3.6616,3.6492,3.6492,3.6492,3.6492,3.6492,3.6492,3.6492,3.6492,3.6492,1.793,1.849,1.893,1.8891,1.9243,1.9707,2.0084,2.0189,2.0441,2.1283,2.1371,2.1707,2.3132,2.3933,2.5426,2.8605,3.1347,3.355,3.4859,3.5629,3.6138,3.6445,3.6769,3.6953,3.6953,3.7569,3.7969,3.7969,3.8308,3.8508,3.8508,3.88,3.897,3.897,3.9244,3.9413,3.9413,3.9767,4.0136,4.0489,4.0489,4.0489,4.0489,4.0489,4.0558,4.0662,0.0,4.078,4.095,4.1037,4.1156,4.1323,4.1423,4.1522,4.1588,4.1588,4.1588,4.1522,4.1003,4.0578,4.02,3.9636,3.9075,3.8612,3.8612,3.8427,3.8202,3.8202,3.8389,3.8612,3.8612,3.8389,3.8202,3.8202,3.8202,3.8202,3.8202,3.8202,3.8202,3.8202,3.8202,3.8202,3.8202,3.8202,3.8202,3.8202,3.7792,3.7376,3.7059,3.6624,3.6084,3.5425,3.5174,3.4846,3.4382,3.3974,3.3889,3.4259,3.4828,3.5367,3.5879,3.6179,3.6414,3.66,3.6554,3.6554,3.66,3.6554,3.6492,3.6492,3.6492,3.6492,1.7834,1.8451,1.9197,1.9987,2.038,2.0779,2.1571,2.1734,2.2027,2.3242,2.3371,2.3563,2.4594,2.5711,2.7726,3.1516,3.3596,3.4982,3.566,3.6168,3.6492,3.6492,3.6492,3.6492,3.6492,3.6953,3.7261,3.7261,3.7738,3.8046,3.8046,3.8185,3.8277,3.8277,3.8431,3.8508,3.8508,3.9031,3.9582,4.0259,4.0413,4.0489,4.0489,4.0558,4.0662,4.0799,4.0833,4.0984,4.1153,4.1272,4.1323,4.139,4.1555,4.1588,4.1588,4.1588,4.1522,4.1323,4.0768,4.02,3.9636,3.909,3.8575,3.8202,3.8202,3.8202,3.8202,3.8202,3.8202,3.8202,3.8202,3.8202,3.8202,3.8202,3.8202,3.8202,3.8202,3.8202,3.8202,3.8202,3.8202,3.8202,3.8202,3.8202,3.8202,3.8202,3.8202,3.8028,3.7578,3.752,3.7259,3.6606,3.6295,3.5798,3.4889,3.4211,3.3858,3.3914,3.4327,3.4776,3.527,3.5512,3.5879,3.6383,3.6305,3.6383,3.6662,3.6554,3.6492,3.6492,3.6492,3.6492,1.9206,1.9572,1.9916,2.109,2.062,2.0599,2.3335,2.3251,2.3269,2.5639,2.6134,2.614,2.6248,2.8319,3.0955,3.3827,3.4936,3.5645,3.6322,3.6461,3.6492,3.6492,3.6492,3.6492,3.6492,3.6538,3.6569,3.6569,3.6615,3.663,3.663,3.723,3.7569,3.7569,3.8185,3.8508,3.8508,3.8554,3.8923,3.9567,4.0197,4.0489,4.0489,4.0696,4.0799,4.0799,4.1,4.1153,4.129,4.129,4.1423,4.1588,4.1588,4.1588,4.1588,4.1588,4.129,4.0749,4.015,3.96,3.9053,3.8464,3.824,3.8202,3.8202,3.8202,3.8202,3.8202,3.8202,3.8202,3.8202,3.8202,3.8202,3.8202,3.8202,3.8202,3.8202,3.8202,3.8202,3.8202,3.8202,3.8202,3.8202,3.8202,3.8202,3.8202,3.8202,3.8188,3.8144,3.8144,3.7912,3.7302,3.7208,3.6541,3.4953,3.4412,3.3786,3.2874,3.3311,3.3988,3.4909,3.4762,3.496,3.5497,3.5464,3.58,3.6523,3.6492,3.6492,3.6492,3.6492,3.6492,1.8563,1.9488,2.0536,2.1407,2.1863,2.245,2.3733,2.4589,2.5746,2.8,2.869,2.9012,2.9412,3.1012,3.2767,3.4274,3.5429,3.6199,3.6445,3.6492,3.6492,3.6492,3.6492,3.6492,3.6492,3.6492,3.6492,3.6492,3.6492,3.6492,3.6492,3.6738,3.6876,3.6876,3.7123,3.7261,3.7261,3.7677,3.8032,3.8392,3.9087,3.9426,3.9442,4.0044,4.0382,4.0513,4.1017,4.1339,4.1489,4.1489,4.1522,4.1588,4.1588,4.1588,4.1588,4.1588,4.1256,4.0715,4.0115,3.9565,3.8995,3.8389,3.8202,3.8202,3.8202,3.8202,3.8202,3.8202,3.8202,3.8202,3.8202,3.8202,3.8202,3.8202,3.8202,3.8202,3.8202,3.8202,3.8202,3.8202,3.8202,3.8202,3.8202,3.8202,3.8202,3.8202,3.8202,3.8202,3.8202,3.8202,3.8115,3.7883,3.7535,3.6939,3.6055,3.5487,3.4845,3.4066,3.3607,3.352,3.3851,3.4022,3.4547,3.5514,3.5417,3.58,3.6631,3.6554,3.6492,3.6492,3.6492,3.6492,1.8026,1.9154,2.054,2.1471,2.2725,2.4071,2.5354,2.6576,2.8142,3.0394,3.0968,3.1243,3.1905,3.2782,3.3644,3.4382,3.5645,3.6492,3.6492,3.6492,3.6492,3.6492,3.6492,3.6492,3.6492,3.6492,3.6492,3.6492,3.6492,3.6492,3.6492,3.6492,3.6492,3.6492,3.6492,3.6492,3.6492,3.7016,3.7295,3.7389,3.8012,3.8494,3.8865,3.9478,3.9844,4.002,4.0744,4.1141,4.1288,4.1494,4.1588,4.1588,4.1588,4.1588,4.1588,4.1423,4.0972,4.0424,3.9849,3.9292,3.876,3.8315,3.8202,3.8202,3.8202,3.8202,3.8202,3.8202,3.8202,3.8202,3.8202,3.8202,3.8202,3.8202,3.8202,3.8202,3.8202,3.8202,3.8202,3.8202,3.8202,3.8202,3.8202,3.8202,3.8202,3.8202,3.8202,3.8202,3.8202,3.8202,3.8202,3.8202,3.7839,3.7395,3.6942,3.6517,3.5927,3.5161,3.4335,3.3663,3.3255,3.3276,3.3885,3.516,3.5109,3.5593,3.6631,3.6538,3.6599,3.6815,3.6815,3.6923,1.7929,1.8702,1.989,2.1355,2.3036,2.5219,2.8633,2.9417,3.0197,3.2875,3.2906,3.2628,3.3306,3.3429,3.366,3.4397,3.5645,3.6492,3.6492,3.6492,3.6492,3.6492,3.6492,3.6492,3.6492,3.6492,3.6492,3.6492,3.6492,3.6492,3.6492,3.6492,3.6492,3.6492,3.6492,3.6492,3.6492,3.6631,3.6693,3.6723,3.7043,3.7824,3.8996,3.9187,3.9298,3.9329,4.0229,4.0593,4.064,4.1304,4.1573,4.1573,4.1588,4.1588,4.1522,4.1003,4.0424,3.9834,3.9307,3.8686,3.8202,3.8202,3.8202,3.8202,3.8202,3.8202,3.8202,3.8202,3.8202,3.8202,3.8202,3.8202,3.8202,3.8202,3.8202,3.8202,3.8202,3.8202,3.8202,3.8202,3.8202,3.8202,3.8202,3.8202,3.8202,3.8202,3.8202,3.8202,3.8202,3.8202,3.8202,3.8202,3.8202,3.7955,3.736,3.7317,3.6895,3.5883,3.5359,3.4562,3.3375,3.2602,3.286,3.4293,3.4293,3.5041,3.6507,3.6507,3.6861,3.7507,3.7507,3.7877,1.8449,1.9926,2.1929,2.3209,2.5038,2.7309,3.0165,3.1166,3.2275,3.5014,3.5045,3.4629,3.4829,3.4876,3.4937,3.5183,3.5922,3.6492,3.6492,3.6492,3.6492,3.6492,3.6492,3.6492,3.6492,3.6492,3.6492,3.6492,3.6492,3.6492,3.6492,3.6492,3.6492,3.6492,3.66,3.6631,3.6631,3.6831,3.6953,3.7043,3.7164,3.7368,3.7761,3.8433,3.8731,3.8778,3.9503,3.9835,3.9882,4.0593,4.0893,4.0941,4.1415,4.1588,4.1522,4.1003,4.0424,3.9834,3.9307,3.8686,3.8202,3.8202,3.8202,3.8202,3.8202,3.8202,3.8202,3.8202,3.8202,3.8202,3.8202,3.8202,3.8202,3.8202,3.8202,3.8202,3.8202,3.8202,3.8202,3.8202,3.8202,3.8202,3.8202,3.8202,3.8202,3.8202,3.8202,3.8202,3.8202,3.8202,3.8202,3.8202,3.8202,3.813,3.7955,3.7941,3.7643,3.691,3.6456,3.5628,3.4251,3.368,3.3853,3.4787,3.4787,3.5557,3.7059,3.7059,3.7446,3.82,3.82,3.8323,1.8963,2.0542,2.2619,2.4398,2.6563,2.9082,3.2312,3.3321,3.4168,3.6091,3.5984,3.5506,3.5506,3.5506,3.5506,3.5506,3.6045,3.6492,3.6492,3.6492,3.6492,3.6492,3.6492,3.6492,3.6492,3.6492,3.6492,3.6492,3.6554,3.6569,3.6569,3.6662,3.6693,3.6693,3.677,3.6831,3.6831,3.6984,3.7119,3.7194,3.7284,3.7329,3.7345,3.7877,3.8096,3.8144,3.8823,3.925,3.9534,3.9977,4.0166,4.023,4.0925,4.1047,4.0816,4.0523,4.006,3.9493,3.8943,3.8501,3.8202,3.8202,3.8202,3.8202,3.8202,3.8202,3.8202,3.8202,3.8202,3.8202,3.8202,3.8202,3.8202,3.8202,3.8202,3.8202,3.8202,3.8202,3.8202,3.8202,3.8202,3.8202,3.8202,3.8202,3.8202,3.8202,3.8202,3.8202,3.8202,3.8202,3.8202,3.8202,3.8202,3.8202,3.8202,3.8202,3.8043,3.768,3.7264,3.668,3.5821,3.4765,3.4527,3.5257,3.5096,3.5595,3.6827,3.7139,3.7699,3.8443,3.876,3.9046,1.9516,2.0832,2.2505,2.5259,2.793,3.0843,3.4582,3.5506,3.5753,3.6368,3.603,3.5598,3.5598,3.5598,3.5598,3.5598,3.6091,3.6492,3.6492,3.6492,3.6492,3.6492,3.6492,3.6492,3.6492,3.6492,3.6523,3.6523,3.6631,3.6723,3.6723,3.6908,3.7015,3.7015,3.6999,3.703,3.703,3.715,3.7224,3.7224,3.7405,3.751,3.751,3.751,3.751,3.7541,3.8144,3.876,3.9329,3.9376,3.9408,3.9487,4.015,4.0142,3.9691,3.9725,3.9484,3.9031,3.8389,3.8202,3.8202,3.8202,3.8202,3.8202,3.8202,3.8202,3.8202,3.8202,3.8202,3.8202,3.8202,3.8202,3.8202,3.8202,3.8202,3.8202,3.8202,3.8202,3.8202,3.8202,3.8202,3.8202,3.8202,3.8202,3.8202,3.8202,3.8202,3.8202,3.8202,3.8202,3.8202,3.8202,3.8202,3.8202,3.8202,3.8202,3.8202,3.8202,3.7877,3.7649,3.7649,3.5797,3.5083,3.5736,3.5316,3.545,3.6165,3.6899,3.7665,3.8422,3.9127,3.9837,2.0607,2.1926,2.3733,2.6995,3.0637,3.3642,3.452,3.5537,3.6322,3.6461,3.6384,3.6276,3.6276,3.6276,3.6276,3.6276,3.6399,3.6492,3.6492,3.6492,3.6492,3.6492,3.6492,3.6492,3.6492,3.6492,3.6538,3.6662,3.6693,3.6754,3.6938,3.6969,3.7015,3.7015,3.7105,3.718,3.718,3.7329,3.7435,3.7435,3.748,3.751,3.751,3.751,3.751,3.7526,3.7668,3.781,3.7954,3.8507,3.8728,3.8761,3.9076,3.9379,3.9596,3.8792,3.8737,3.9031,3.8389,3.8202,3.8202,3.8202,3.8202,3.8202,3.8202,3.8202,3.8202,3.8202,3.8202,3.8202,3.8202,3.8202,3.8202,3.8202,3.8202,3.8202,3.8202,3.8202,3.8202,3.8202,3.8202,3.8202,3.8202,3.8202,3.8202,3.8202,3.8202,3.8202,3.8202,3.8202,3.8202,3.8202,3.8202,3.8202,3.8202,3.8202,3.8202,3.8202,3.8127,3.8052,3.8052,3.674,3.6083,3.6225,3.5806,3.5935,3.6721,3.6897,3.7707,3.9095,3.9253,3.9748,2.0841,2.2501,2.4748,2.8812,3.1905,3.4166,3.4844,3.5537,3.6107,3.643,3.6492,3.6492,3.6492,3.6492,3.6492,3.6492,3.6492,3.6492,3.6492,3.6492,3.6492,3.6492,3.6492,3.6492,3.6492,3.6492,3.6554,3.6693,3.68,3.6923,3.7105,3.7181,3.7241,3.7241,3.7315,3.7329,3.7329,3.7435,3.751,3.751,3.751,3.751,3.751,3.751,3.751,3.751,3.751,3.751,3.7541,3.7875,3.8017,3.805,3.8216,3.8297,3.8338,3.8157,3.8138,3.8216,3.8213,3.8202,3.8202,3.8202,3.8202,3.8202,3.8202,3.8202,3.8202,3.8202,3.8202,3.8202,3.8202,3.8202,3.8202,3.8202,3.8202,3.8202,3.8202,3.8202,3.8202,3.8202,3.8202,3.8202,3.8202,3.8202,3.8202,3.8202,3.8202,3.8202,3.8202,3.8202,3.8202,3.8202,3.8202,3.8202,3.8202,3.8202,3.8202,3.8202,3.8202,3.8202,3.8202,3.7419,3.6889,3.6693,3.6045,3.5911,3.6322,3.6702,3.7347,3.8153,3.8942,3.9499,2.0577,2.2875,2.5687,2.9981,3.2151,3.3567,3.4829,3.5337,3.5645,3.6199,3.6415,3.6492,3.6492,3.6492,3.6492,3.6492,3.6492,3.6492,3.6492,3.6492,3.6492,3.6492,3.6492,3.6492,3.6492,3.6523,3.66,3.6723,3.6923,3.7105,3.7254,3.7405,3.751,3.751,3.751,3.751,3.751,3.751,3.751,3.751,3.751,3.751,3.751,3.751,3.751,3.751,3.751,3.751,3.751,3.751,3.745,3.7378,3.7375,3.7146,3.6818,3.7421,3.7504,3.7375,3.7883,3.8115,3.8202,3.8202,3.8202,3.8202,3.8202,3.8202,3.8202,3.8202,3.8202,3.8202,3.8202,3.8202,3.8202,3.8202,3.8202,3.8202,3.8202,3.8202,3.8202,3.8202,3.8202,3.8202,3.8202,3.8202,3.8202,3.8202,3.8202,3.8202,3.8202,3.8202,3.8202,3.8202,3.8202,3.8202,3.8202,3.8202,3.8202,3.8202,3.8202,3.8202,3.8202,3.7801,3.7419,3.7017,3.623,3.5804,3.571,3.6362,3.6741,3.6922,3.8264,3.9015,2.0025,2.3214,2.6688,2.9073,3.1105,3.2736,3.3506,3.4614,3.5537,3.5629,3.6091,3.6492,3.6492,3.6492,3.6492,3.6492,3.6492,3.6492,3.6492,3.6492,3.6492,3.6492,3.6492,3.6492,3.6492,3.66,3.6754,3.6938,3.7089,3.727,3.7435,3.748,3.751,3.751,3.751,3.751,3.751,3.751,3.751,3.751,3.751,3.751,3.751,3.751,3.751,3.751,3.751,3.751,3.751,3.751,3.7225,3.6754,3.6303,3.6187,3.6164,3.5878,3.6401,3.7317,3.7404,3.7767,3.8202,3.8202,3.8202,3.8202,3.8202,3.8202,3.8202,3.8202,3.8202,3.8202,3.8202,3.8202,3.8202,3.8202,3.8202,3.8202,3.8202,3.8202,3.8202,3.8202,3.8202,3.8202,3.8202,3.8202,3.8202,3.8202,3.8202,3.8202,3.8202,3.8202,3.8202,3.8202,3.8202,3.8202,3.8202,3.8202,3.8202,3.8202,3.8202,3.8202,3.8202,3.7801,3.7419,3.7017,3.6536,3.6098,3.571,3.5831,3.6217,3.6897,3.7116,3.7979,2.1178,2.4117,2.6857,2.8879,3.0628,3.2013,3.269,3.3598,3.4429,3.4859,3.5183,3.5629,3.6353,3.6492,3.6492,3.6492,3.6492,3.6492,3.6492,3.6492,3.6492,3.6492,3.6492,3.6492,3.6492,3.6631,3.6785,3.6969,3.7119,3.73,3.748,3.751,3.751,3.751,3.751,3.751,3.751,3.751,3.751,3.751,3.751,3.751,3.751,3.751,3.751,3.751,3.751,3.751,3.751,3.751,3.7195,3.6662,3.6117,3.5789,3.5577,3.5453,3.5988,3.6794,3.7172,3.7709,3.8202,3.8202,3.8202,3.8202,3.8202,3.8202,3.8202,3.8202,3.8202,3.8202,3.8202,3.8202,3.8202,3.8202,3.8202,3.8202,3.8202,3.8202,3.8202,3.8202,3.8202,3.8202,3.8202,3.8202,3.8202,3.8202,3.8202,3.8202,3.8202,3.8202,3.8202,3.8202,3.8202,3.8202,3.8202,3.8202,3.8202,3.8202,3.8202,3.8202,3.8202,3.8014,3.7634,3.7017,3.6615,3.6192,3.571,3.571,3.5871,3.6256,3.6702,3.7525,2.1516,2.364,2.5373,2.7957,2.9504,3.0674,3.1874,3.2659,3.3352,3.406,3.4382,3.4813,3.5799,3.6122,3.6292,3.6461,3.6492,3.6492,3.6492,3.6492,3.6492,3.6492,3.6523,3.6554,3.6554,3.6723,3.6877,3.7044,3.718,3.7329,3.748,3.751,3.751,3.751,3.751,3.751,3.751,3.751,3.751,3.751,3.751,3.751,3.751,3.751,3.751,3.751,3.751,3.751,3.751,3.751,3.7089,3.6445,3.6054,3.5544,3.5012,3.5107,3.5619,3.6373,3.6881,3.7549,3.8202,3.8202,3.8202,3.8202,3.8202,3.8202,3.8202,3.8202,3.8202,3.8202,3.8202,3.8202,3.8202,3.8202,3.8202,3.8202,3.8202,3.8202,3.8202,3.8202,3.8202,3.8202,3.8202,3.8202,3.8202,3.8202,3.8202,3.8202,3.8202,3.8202,3.8202,3.8202,3.8202,3.8202,3.8202,3.8202,3.8202,3.8202,3.8202,3.8202,3.8202,3.8089,3.7711,3.7017,3.6615,3.6192,3.571,3.571,3.571,3.571,3.6322,3.7039,1.9686,2.0518,2.155,2.5481,2.7034,2.8273,3.0843,3.1967,3.2628,3.3321,3.3998,3.452,3.4597,3.5136,3.5753,3.6384,3.6492,3.6492,3.6492,3.6492,3.6492,3.6492,3.66,3.6693,3.6693,3.6983,3.7194,3.7194,3.7359,3.748,3.751,3.751,3.751,3.751,3.751,3.751,3.751,3.751,3.751,3.751,3.751,3.751,3.751,3.751,3.751,3.751,3.751,3.751,3.751,3.751,3.6892,3.5944,3.5913,3.5285,3.4448,3.4457,3.5256,3.6301,3.6344,3.7172,3.8202,3.8202,3.8202,3.8202,3.8202,3.8202,3.8202,3.8202,3.8202,3.8202,3.8202,3.8202,3.8202,3.8202,3.8202,3.8202,3.8202,3.8202,3.8202,3.8202,3.8202,3.8202,3.8202,3.8202,3.8202,3.8202,3.8202,3.8202,3.8202,3.8202,3.8202,3.8202,3.8202,3.8202,3.8202,3.8202,3.8202,3.8202,3.8202,3.8202,3.8202,3.7839,3.7419,3.7017,3.6615,3.6192,3.571,3.571,3.571,3.571,3.575,3.6203,1.9255,2.0613,2.2043,2.3917,2.5903,2.7642,2.8611,3.0335,3.184,3.2059,3.2659,3.3275,3.3706,3.4397,3.4951,3.5183,3.5643,3.5982,3.5982,3.646,3.6816,3.6816,3.6877,3.6908,3.6908,3.7089,3.7194,3.7194,3.7405,3.751,3.751,3.751,3.751,3.751,3.751,3.751,3.751,3.751,3.751,3.751,3.751,3.751,3.751,3.751,3.751,3.751,3.751,3.751,3.751,3.751,3.6861,3.5913,3.5913,3.5299,3.4414,3.4414,3.4965,3.5799,3.617,3.6881,3.7694,3.8072,3.8202,3.8202,3.8202,3.8202,3.8202,3.8202,3.8202,3.8202,3.8202,3.8202,3.8202,3.8202,3.8202,3.8202,3.8202,3.8202,3.8202,3.8202,3.8202,3.8202,3.8202,3.8202,3.8202,3.8202,3.8202,3.8202,3.8202,3.8202,3.8202,3.8202,3.8202,3.8202,3.8202,3.8202,3.8202,3.8202,3.8202,3.8202,3.8202,3.7801,3.7419,3.7017,3.6615,3.6192,3.571,3.571,3.571,3.571,3.571,3.6137,1.8454,1.9731,2.1316,2.2902,2.4333,2.5764,2.7365,2.8935,3.0243,3.092,3.1597,3.2259,3.2936,3.3444,3.395,3.4428,3.4993,3.536,3.536,3.6114,3.664,3.664,3.6873,3.7075,3.7075,3.721,3.73,3.73,3.7435,0.0,3.751,3.751,3.751,3.751,3.751,3.751,3.751,3.751,3.751,3.751,3.751,3.751,3.751,3.751,3.751,3.751,3.751,3.751,3.748,3.7315,3.6708,3.5881,3.5721,3.5136,3.4414,3.4414,3.482,3.5494,3.6083,3.6751,3.7404,3.8014,3.8202,3.8202,3.8202,3.8202,3.8202,3.8202,3.8202,3.8202,3.8202,3.8202,3.8202,3.8202,3.8202,3.8202,3.8202,3.8202,3.8202,3.8202,3.8202,3.8202,3.8202,3.8202,3.8202,3.8202,3.8202,3.8202,3.8202,3.8202,3.8202,3.8202,3.8202,3.8202,3.8202,3.8202,3.8127,3.8028,3.8014,3.7938,3.7787,3.7419,3.7084,3.6797,3.6377,3.6018,3.571,3.571,3.571,3.571,3.571,3.5977,0.0,0.0,0.0,2.2332,2.2224,2.2536,2.7149,2.775,2.7904,2.9894,3.0843,3.1505,3.2198,3.2351,3.2813,3.4197,3.456,3.4663,3.4663,3.5383,3.5862,3.5862,3.665,3.7193,3.7193,3.7359,3.751,3.751,3.751,3.751,3.751,3.751,3.751,3.751,3.751,3.751,3.751,3.751,3.751,3.751,3.751,3.751,3.751,3.751,3.751,3.751,3.748,3.748,3.745,3.6907,3.6383,3.5817,3.5382,3.4887,3.4414,3.4414,3.4806,3.5465,3.6083,3.6736,3.7375,3.7999,3.8202,3.8202,3.8202,3.8202,3.8202,3.8202,3.8202,3.8202,3.8202,3.8202,3.8202,3.8202,3.8202,3.8202,3.8202,3.8202,3.8202,3.8202,3.8202,3.8202,3.8202,3.8202,3.8202,3.8202,3.8202,3.8202,3.8202,3.8202,3.8202,3.8202,3.8202,3.8202,3.8202,3.8202,3.8014,3.7625,3.7625,3.7419,3.7017,3.6615,3.6405,3.6405,3.5938,3.571,3.571,3.571,3.571,3.571,3.571,3.571,1.7915,0.0,0.0,0.0,0.0,0.0,2.3075,2.4625,2.6334,2.7919,2.8765,2.9581,3.0751,3.1351,3.1782,3.221,3.3215,3.3978,3.3978,3.4797,3.5394,3.5394,3.6106,3.6618,3.6618,3.7135,3.751,0.0,3.751,3.751,3.751,3.751,3.751,3.751,3.751,3.751,3.751,3.751,3.751,3.751,3.751,3.751,3.751,3.751,3.751,3.748,3.7089,3.6907,3.6907,3.6754,3.6196,3.5382,3.5267,3.4887,3.4414,3.4414,3.453,3.4835,3.5923,3.6431,3.6765,3.7854,3.8202,3.8202,3.8202,3.8202,3.8202,3.8202,3.8202,3.8202,3.8202,3.8202,3.8202,3.8202,3.8202,3.8202,3.8202,3.8202,3.8202,3.8202,3.8202,3.8202,3.8202,3.8202,3.8202,3.8202,3.8202,3.8202,3.8202,3.8202,3.8202,3.8202,3.8202,3.8202,3.8202,3.8202,3.8014,3.7625,3.7625,3.7419,3.7017,3.6615,3.6405,3.6405,3.5938,3.571,3.571,3.571,3.571,3.571,3.571,3.571,1.8361,1.9023,1.9826,1.9562,0.0,0.0,2.2317,2.3332,2.461,2.6565,2.7288,2.8057,2.9679,3.0304,3.0685,3.1014,3.2052,3.2939,3.3333,3.4206,3.4825,3.4825,3.5512,3.5995,3.5995,3.6358,3.6624,3.6624,3.688,3.7164,3.7494,3.751,3.751,3.751,3.751,3.751,3.751,3.751,3.751,3.751,3.751,3.751,3.751,3.751,3.7375,3.7165,3.6846,3.6461,3.607,3.607,3.572,3.5169,3.4953,3.4668,3.4414,3.4414,3.4414,3.4588,3.5865,3.6301,3.6519,3.7796,3.8202,3.8202,3.8202,3.8202,3.8202,3.8202,3.8202,3.8202,3.8202,3.8202,3.8202,3.8202,3.8202,3.8165,3.7991,3.7938,3.8014,3.8165,3.8202,3.8202,3.8202,3.8202,3.8202,3.8202,3.8202,3.8202,3.8202,3.8052,3.7938,3.7938,3.7787,3.7711,3.7711,3.7711,3.7519,3.7123,3.7084,3.6915,3.6468,3.6244,3.6098,3.6098,3.5844,3.571,3.571,3.571,3.571,3.571,3.571,3.571,1.8991,1.9131,1.9888,2.0919,2.0474,0.0,2.3132,2.2998,2.2998,2.5447,2.5978,2.6579,2.8513,2.899,2.9292,2.9927,3.083,3.1725,3.2652,3.3579,3.4166,3.4166,3.4826,3.5268,3.5268,3.5347,3.5394,3.5394,3.5963,3.6579,3.7241,3.7352,3.7399,3.7399,3.7462,3.751,3.751,3.751,3.751,3.751,3.751,3.751,3.751,3.751,3.7195,3.6693,3.6646,3.607,3.5201,3.5136,3.5103,3.507,3.4601,3.4414,3.4414,3.4414,3.4414,3.4588,3.5793,3.6243,3.6504,3.7709,3.8144,3.8202,3.8202,3.8202,3.8202,3.8202,3.8202,3.8202,3.8202,3.8202,3.8202,3.8127,3.8127,3.8014,3.761,3.7534,3.7649,3.8014,3.8089,3.8089,3.8127,3.8089,3.8089,3.8089,3.8089,3.8089,3.8089,3.7763,3.7534,3.7534,3.7226,3.6978,3.6978,3.6978,3.6836,3.6445,3.6405,3.6192,3.571,3.571,3.571,3.571,3.571,3.571,3.571,3.571,3.571,3.571,3.571,3.571,2.1424,2.1612,2.1519,2.0687,2.1519,0.0,2.0628,2.1373,2.2523,2.3065,2.3278,2.3783,2.5258,2.6417,2.7022,2.6647,2.8678,3.071,3.1852,3.2765,3.3311,3.3311,3.4045,3.451,3.451,3.5047,3.5394,3.5394,3.5521,3.5663,3.5789,3.6327,3.6598,3.6598,3.718,3.751,3.751,3.751,3.751,3.751,3.751,3.751,3.751,3.751,3.7195,3.6693,3.6243,3.5737,3.5169,3.4721,3.4568,3.4534,3.4448,3.4414,3.4414,3.4414,3.4414,3.4516,3.5285,3.588,3.6446,3.723,3.781,3.8202,3.8202,3.8202,3.8202,3.8202,3.8202,3.8202,3.8202,3.8202,3.8127,3.7801,3.7725,3.761,3.7211,3.7109,3.7148,3.7211,3.7211,3.7327,3.7649,3.7457,3.7211,3.7211,3.7211,3.7211,3.7211,3.7187,3.7109,3.7109,3.707,3.6978,3.6978,3.6978,3.6836,3.6445,3.6405,3.6192,3.571,3.571,3.571,3.571,3.571,3.571,3.571,3.571,3.571,3.571,3.571,3.571,2.1889,2.1797,2.1797,2.1797,0.0,0.0,0.0,2.1378,2.1729,2.2731,2.2512,2.2615,2.4278,2.4885,2.5228,2.5633,2.7237,2.87,2.9367,3.1011,3.2163,3.2163,3.2499,3.2898,3.3272,3.3651,3.4142,3.4794,3.4841,3.4999,3.5379,3.5726,3.6058,3.6393,3.6769,3.7117,3.751,3.751,3.751,3.751,3.751,3.751,3.751,3.751,3.7059,3.629,3.6023,3.5479,3.4787,3.4501,3.4414,3.4414,3.4414,3.4414,3.4414,3.4414,3.4414,3.4501,3.5174,3.5778,3.6417,3.7085,3.7709,3.8202,3.8202,3.8202,3.8202,3.8202,3.8202,3.8202,3.8202,3.8052,3.7839,3.7649,3.7457,3.7187,3.6772,3.6693,3.6693,3.6693,3.6522,3.6547,3.7187,3.7148,3.6978,3.6978,3.6978,3.6978,3.6978,3.6836,3.6693,3.6693,3.6482,3.635,3.635,3.635,3.6284,3.6058,3.6058,3.5938,3.571,3.571,3.571,3.571,3.571,3.571,3.571,3.571,3.571,3.571,3.571,3.571,2.2582,2.2382,2.2613,2.3167,0.0,2.2449,0.0,0.0,0.0,2.2683,2.2147,2.1936,2.3576,2.3542,2.3623,2.4677,2.567,2.6314,2.6288,2.8442,3.0164,3.0575,3.0844,3.1239,3.1833,3.177,3.2307,3.3783,3.364,3.3941,3.4936,3.511,3.5442,3.5966,3.625,3.6706,3.7275,3.7431,3.751,3.751,3.751,3.751,3.751,3.7375,3.6831,3.5881,3.5785,3.5267,3.4414,3.4414,3.4414,3.4414,3.4414,3.4414,3.4414,3.4414,3.4414,3.4486,3.5009,3.559,3.6243,3.6896,3.7607,3.8202,3.8202,3.8202,3.8202,3.8202,3.8202,3.8202,3.8202,3.7915,3.7586,3.7495,3.7187,3.6758,3.6351,3.6272,3.6272,3.6272,3.5978,3.5951,3.6758,3.6797,3.6744,3.6744,3.6744,3.6744,3.6744,3.6457,3.6272,3.6272,3.5938,3.571,3.571,3.571,3.571,3.571,3.571,3.571,3.571,3.571,3.571,3.571,3.571,3.571,3.571,3.571,3.571,3.571,3.571,3.571,0.0,0.0,0.0,0.0,2.4658,0.0,0.0,0.0,2.2178,2.1208,0.0,2.0951,2.1187,0.0,0.0,2.1457,2.297,2.4046,2.3467,2.4717,2.6393,2.8221,2.9548,3.0362,3.0441,2.9848,3.0322,3.237,3.1374,3.1516,3.3435,3.4099,3.4446,3.4525,3.5758,3.644,3.6519,3.7164,3.751,3.751,3.751,3.751,3.748,3.7014,3.6445,3.5881,3.5447,3.4953,3.4414,3.4414,3.4414,3.4414,3.4414,3.4414,3.4414,3.4414,3.4414,3.4428,3.4501,3.4936,3.561,3.6214,3.723,3.8202,3.8202,3.8202,3.8202,3.8202,3.8202,3.8202,3.8202,3.7915,3.7495,3.7148,3.6772,3.6351,3.5884,3.5804,3.5804,3.5804,3.5723,3.5844,3.6391,3.6138,3.5831,3.5831,3.5831,3.5831,3.5831,3.5804,3.5804,3.5804,3.571,3.571,3.571,3.571,3.571,3.571,3.571,3.571,3.571,3.571,3.571,3.571,3.571,3.571,3.571,3.571,3.571,3.571,3.571,3.571,0.0,0.0,0.0,0.0,0.0,0.0,2.2284,0.0,2.1546,0.0,0.0,0.0,0.0,0.0,0.0,0.0,2.2169,2.2643,2.2359,2.3167,2.44,2.6092,0.0,0.0,2.8876,2.9058,2.9635,3.0979,3.0133,3.0306,3.1997,3.274,3.3509,3.4273,3.5284,3.6026,3.6393,3.7133,3.751,3.751,3.718,3.7044,3.7029,3.6476,3.5959,3.5479,3.5299,3.4887,3.4414,3.4414,3.4414,3.4414,3.4414,3.4414,3.4414,3.4414,3.4414,3.4414,3.4414,3.4835,3.5566,3.6562,3.7491,3.8202,3.8202,3.8202,3.8202,3.8202,3.8202,3.8202,3.8202,3.7915,3.7495,3.7109,3.6693,3.6272,3.5804,3.571,3.571,3.571,3.571,3.5764,3.5978,3.5844,3.571,3.571,3.571,3.571,3.571,3.571,3.571,3.571,3.571,3.571,3.571,3.571,3.571,3.571,3.571,3.571,3.571,3.571,3.571,3.571,3.571,3.571,3.571,3.571,3.571,3.571,3.571,3.571,2.6918,0.0,0.0,0.0,0.0,0.0,0.0,0.0,0.0,0.0,0.0,0.0,0.0,0.0,0.0,0.0,0.0,2.1821,2.1616,2.2028,2.2772,2.3989,0.0,0.0,0.0,2.7336,2.7952,2.9232,2.8505,2.8853,3.0828,3.1602,3.2544,3.3715,3.4648,3.5426,3.6108,3.6832,3.7291,3.748,3.6968,3.6693,3.6693,3.5991,3.5512,3.5201,3.5037,3.4754,3.4414,3.4414,3.4414,3.4414,3.4414,3.4414,3.4414,3.4414,3.4414,3.4414,3.4414,3.4951,3.5813,3.6736,3.7564,3.8202,3.8202,3.8202,3.8202,3.8202,3.8202,3.8165,3.8052,3.7725,3.7341,3.6915,3.6496,3.6098,3.5764,3.571,3.571,3.571,3.571,3.571,3.571,3.571,3.571,3.571,3.571,3.571,3.571,3.571,3.571,3.571,3.571,3.571,3.571,3.571,3.571,3.571,3.571,3.571,3.571,3.571,3.571,3.571,3.571,3.571,3.571,3.571,3.571,3.571,3.571,3.571,0.0,0.0,0.0,2.5775,0.0,0.0,0.0,0.0,2.343,0.0,0.0,0.0,0.0,0.0,0.0,0.0,0.0,0.0,0.0,2.0842,2.1142,2.1918,2.3149,2.4239,0.0,2.3894,2.4242,0.0,2.5918,2.6614,3.0046,3.0875,3.1586,3.2339,3.3651,3.4683,3.541,3.6093,3.6801,3.748,3.6968,3.6693,3.6662,3.5688,3.5201,3.5169,3.4635,3.4414,3.4414,3.4414,3.4414,3.4414,3.4414,3.4414,3.4414,3.4414,3.4414,3.4414,3.4414,3.5227,3.6286,3.633,3.7186,3.8202,3.8202,3.8202,3.8202,3.8202,3.8202,3.8127,3.7725,3.7303,3.6915,3.651,3.6058,3.571,3.571,3.571,3.571,3.571,3.571,3.571,3.571,3.571,3.571,3.571,3.571,3.571,3.571,3.571,3.571,3.571,3.571,3.571,3.571,3.571,3.571,3.571,3.571,3.571,3.571,3.571,3.571,3.571,3.571,3.571,3.571,3.571,3.571,3.571,3.571,3.571,0.0,0.0,3.1939,2.8388,0.0,0.0,0.0,0.0,0.0,0.0,0.0,0.0,0.0,0.0,0.0,0.0,0.0,0.0,0.0,1.972,1.9846,2.1031,2.239,2.3341,2.3578,0.0,2.3689,2.5571,2.527,2.6108,2.8663,3.0338,3.1539,3.2276,3.3604,3.4636,3.5379,3.6045,3.6785,3.748,3.66,3.618,3.6149,3.5136,3.4668,3.4668,3.4481,3.4414,3.4414,3.4414,3.4414,3.4414,3.4414,3.4414,3.4414,3.4414,3.4414,3.4414,3.4414,3.4965,3.5784,3.617,3.6896,3.768,3.8086,3.8202,3.8202,3.8202,3.8202,3.8165,3.8014,3.7687,3.7303,3.6875,3.6457,3.6058,3.5764,3.571,3.571,3.571,3.571,3.571,3.571,3.571,3.571,3.571,3.571,3.571,3.571,3.571,3.571,3.571,3.571,3.571,3.571,3.571,3.571,3.571,3.571,3.571,3.571,3.609,3.6307,3.6307,3.6714,3.6672,3.6307,3.6307,3.6103,3.571,3.571,3.571,3.2643,3.3291,0.0,3.0427,2.9407,0.0,2.4772,0.0,2.5277,0.0,0.0,0.0,0.0,0.0,0.0,0.0,0.0,0.0,0.0,1.9751,1.9783,2.0684,2.1396,2.1979,2.2453,2.2074,2.2487,2.4132,2.4021,2.4906,0.0,2.9304,3.0907,3.1896,3.323,3.4399,3.5379,3.5837,3.6445,3.7195,3.6305,3.5817,3.564,3.4787,3.4414,3.4414,3.4414,3.4414,3.4414,3.4414,3.4414,3.4414,3.4414,3.4414,3.4414,3.4414,3.4414,3.4414,3.4414,3.498,3.5799,3.617,3.691,3.7694,3.8086,3.8202,3.8202,3.8202,3.8089,3.7991,3.7991,3.7572,3.7123,3.685,3.6457,3.6058,3.5764,3.571,3.571,3.571,3.571,3.571,3.571,3.571,3.571,3.571,3.571,3.571,3.571,3.571,3.571,3.571,3.571,3.571,3.571,3.571,3.571,3.571,3.5913,3.6035,3.6035,3.6605,3.6931,3.6931,3.7282,3.7296,3.6931,3.6931,3.6741,3.632,3.613,3.6035]}]]